[[{"header":{"parameterUnit":"m.s-1","parameterCategory":1,"la1":30.6,"la2":29.2853,"lo1":-89.7004,"lo2":-87.6739,"dy":0.0162,"dx":0.0183,"nx":112,"ny":82,"refTime":"2024-06-24T12:00:00:Z","depth":0,"parameterNumber":2,"parameterNumberName":"U-component_of_WINDS"},"data":[0.0,0.0,0.0,0.0,0.0,0.0,0.0,0.0,0.0,0.0,0.0,0.0,0.0,0.0,0.0,0.0,0.0,0.0,0.0,0.0,0.0,0.0,0.0,0.0,0.0,0.0,0.0,0.0,0.0,0.0,0.0,0.0,0.0,0.0,0.0,0.0,0.0,0.0,0.0,0.0,0.0,0.0,0.0,0.0,0.0,0.0,0.0,0.0,0.0,0.0,0.0,0.0,0.0,0.0,0.0,0.0,0.0,0.0,0.0,0.0,0.0,0.0,0.0,0.0,0.0,0.0,0.0,0.0,0.0,0.0,0.0,0.0,0.0,0.0,0.0,0.0,0.0,0.0,0.0,0.0,0.0,0.0,0.0,0.0,0.0,0.0,0.0,0.0,0.0,0.0,0.0,-1.0979,-1.3261,-1.4909,-1.5495,-1.4671,-1.3829,-1.3079,0.0,0.0,0.0,0.0,0.0,0.0,0.0,0.0,0.0,0.0,0.0,0.0,0.0,0.0,0.0,0.0,0.0,0.0,0.0,0.0,0.0,0.0,0.0,0.0,0.0,0.0,0.0,0.0,0.0,0.0,0.0,0.0,0.0,0.0,0.0,0.0,0.0,0.0,0.0,0.0,0.0,0.0,0.0,0.0,0.0,0.0,0.0,0.0,0.0,0.0,0.0,0.0,0.0,0.0,0.0,0.0,0.0,0.0,0.0,0.0,0.0,0.0,0.0,0.0,0.0,0.0,0.0,0.0,0.0,0.0,0.0,0.0,0.0,0.0,0.0,0.0,0.0,0.0,0.0,0.0,0.0,0.0,0.0,0.0,0.0,0.0,0.0,0.0,0.0,0.0,0.0,0.0,0.0,0.0,0.0,0.0,0.0,0.0,0.0,0.0,0.0,0.0,0.0,0.0,-1.0507,-1.351,-1.4737,-1.5588,-1.6103,-1.5314,-1.4437,-1.3698,0.0,0.0,0.0,0.0,0.0,0.0,0.0,0.0,0.0,0.0,0.0,0.0,0.0,0.0,0.0,0.0,0.0,0.0,0.0,0.0,0.0,0.0,0.0,0.0,0.0,0.0,0.0,0.0,0.0,0.0,0.0,0.0,0.0,0.0,0.0,0.0,0.0,0.0,0.0,0.0,0.0,0.0,0.0,0.0,0.0,0.0,0.0,0.0,0.0,0.0,0.0,0.0,0.0,0.0,0.0,0.0,0.0,0.0,0.0,0.0,0.0,0.0,0.0,0.0,0.0,0.0,0.0,0.0,0.0,0.0,0.0,0.0,0.0,0.0,0.0,0.0,0.0,0.0,0.0,0.0,0.0,0.0,0.0,0.0,0.0,0.0,0.0,0.0,0.0,0.0,0.0,0.0,0.0,0.0,0.0,0.0,0.0,0.0,0.0,0.0,0.0,0.0,0.0,-1.0246,-1.2083,-1.4317,-1.523,-1.5817,-1.6149,-1.5331,-1.4501,-1.3843,-1.186,0.0,0.0,0.0,0.0,0.0,0.0,0.0,0.0,0.0,0.0,0.0,0.0,0.0,0.0,0.0,0.0,0.0,0.0,0.0,0.0,0.0,0.0,0.0,0.0,0.0,0.0,0.0,0.0,0.0,0.0,0.0,0.0,0.0,0.0,0.0,0.0,0.0,0.0,0.0,0.0,0.0,0.0,0.0,0.0,0.0,0.0,0.0,0.0,0.0,0.0,0.0,0.0,0.0,0.0,0.0,0.0,0.0,0.0,0.0,0.0,0.0,0.0,0.0,0.0,0.0,0.0,0.0,0.0,0.0,0.0,0.0,0.0,0.0,0.0,0.0,0.0,0.0,0.0,0.0,0.0,0.0,0.0,0.0,0.0,0.0,0.0,0.0,0.0,0.0,0.0,0.0,0.0,0.0,0.0,0.0,0.0,0.0,0.0,0.0,0.0,0.0,0.0,-1.1897,-1.3473,-1.4734,-1.5558,-1.5997,-1.6044,-1.5291,-1.45,-1.3731,-1.2052,0.0,0.0,0.0,0.0,0.0,0.0,0.0,0.0,0.0,0.0,0.0,0.0,0.0,0.0,0.0,0.0,0.0,0.0,0.0,0.0,0.0,0.0,0.0,0.0,0.0,0.0,0.0,0.0,0.0,0.0,0.0,0.0,0.0,0.0,0.0,0.0,0.0,0.0,0.0,0.0,0.0,0.0,0.0,0.0,0.0,0.0,0.0,0.0,0.0,0.0,0.0,0.0,0.0,0.0,0.0,0.0,0.0,0.0,0.0,0.0,0.0,0.0,0.0,0.0,0.0,0.0,0.0,0.0,0.0,0.0,0.0,0.0,0.0,0.0,0.0,0.0,0.0,0.0,0.0,0.0,0.0,0.0,0.0,0.0,0.0,0.0,0.0,0.0,0.0,0.0,0.0,0.0,0.0,0.0,0.0,0.0,0.0,0.0,0.0,0.0,0.0,0.0,-1.3003,-1.4429,-1.5348,-1.6113,-1.6354,-1.5866,-1.542,-1.4635,-1.3397,-1.1944,0.0,0.0,0.0,0.0,0.0,0.0,0.0,0.0,0.0,0.0,0.0,0.0,0.0,0.0,0.0,0.0,0.0,0.0,0.0,0.0,0.0,0.0,0.0,0.0,0.0,0.0,0.0,0.0,0.0,0.0,0.0,0.0,0.0,0.0,0.0,0.0,0.0,0.0,0.0,0.0,0.0,0.0,0.0,0.0,0.0,0.0,0.0,0.0,0.0,0.0,0.0,0.0,0.0,0.0,0.0,0.0,0.0,0.0,0.0,0.0,0.0,0.0,0.0,0.0,0.0,0.0,0.0,0.0,0.0,0.0,0.0,0.0,0.0,0.0,0.0,0.0,0.0,0.0,0.0,0.0,0.0,0.0,0.0,0.0,0.0,0.0,0.0,0.0,0.0,0.0,0.0,0.0,0.0,0.0,0.0,0.0,0.0,0.0,0.0,0.0,0.0,0.0,-1.3284,-1.469,0.0,-1.6501,-1.6826,-1.6904,-1.6218,-1.5212,-1.3939,0.0,0.0,0.0,0.0,0.0,0.0,0.0,0.0,0.0,0.0,0.0,0.0,0.0,0.0,0.0,0.0,0.0,0.0,0.0,0.0,0.0,0.0,0.0,0.0,0.0,0.0,0.0,0.0,0.0,0.0,0.0,0.0,0.0,0.0,0.0,0.0,0.0,0.0,0.0,0.0,0.0,0.0,0.0,0.0,0.0,0.0,0.0,0.0,0.0,0.0,0.0,0.0,0.0,0.0,0.0,0.0,0.0,0.0,0.0,0.0,0.0,0.0,0.0,0.0,0.0,0.0,0.0,0.0,0.0,0.0,0.0,0.0,0.0,0.0,0.0,0.0,0.0,0.0,0.0,0.0,0.0,0.0,0.0,0.0,0.0,0.0,0.0,0.0,0.0,0.0,0.0,0.0,0.0,0.0,0.0,0.0,0.0,0.0,0.0,0.0,0.0,0.0,-1.2319,-1.3865,-1.5285,0.0,-1.7107,-1.7436,-1.7605,-1.6818,-1.5756,-1.4461,0.0,0.0,0.0,0.0,0.0,0.0,0.0,0.0,0.0,0.0,0.0,0.0,0.0,0.0,0.0,0.0,0.0,0.0,0.0,0.0,0.0,0.0,0.0,0.0,0.0,0.0,0.0,0.0,0.0,0.0,0.0,0.0,0.0,0.0,0.0,0.0,0.0,0.0,0.0,0.0,0.0,0.0,0.0,0.0,0.0,0.0,0.0,0.0,0.0,0.0,0.0,0.0,0.0,0.0,0.0,0.0,0.0,0.0,0.0,0.0,0.0,0.0,0.0,0.0,0.0,0.0,0.0,0.0,0.0,0.0,0.0,0.0,0.0,0.0,0.0,0.0,0.0,0.0,0.0,0.0,0.0,0.0,0.0,0.0,0.0,0.0,0.0,0.0,0.0,0.0,0.0,0.0,0.0,0.0,0.0,0.0,0.0,0.0,0.0,0.0,0.0,0.0,-1.3153,-1.4966,-1.6385,-1.7144,-1.7947,-1.8186,-1.7658,-1.7083,-1.6175,0.0,0.0,0.0,0.0,0.0,0.0,0.0,0.0,0.0,0.0,0.0,0.0,0.0,0.0,0.0,0.0,0.0,0.0,0.0,0.0,0.0,0.0,0.0,0.0,0.0,0.0,0.0,0.0,0.0,0.0,0.0,0.0,0.0,0.0,0.0,0.0,0.0,0.0,0.0,0.0,0.0,0.0,0.0,0.0,0.0,0.0,0.0,0.0,0.0,0.0,0.0,0.0,0.0,0.0,0.0,0.0,0.0,0.0,0.0,0.0,0.0,0.0,0.0,0.0,0.0,0.0,0.0,0.0,0.0,0.0,0.0,0.0,0.0,0.0,0.0,0.0,0.0,0.0,0.0,0.0,0.0,0.0,0.0,0.0,0.0,0.0,0.0,0.0,0.0,0.0,0.0,0.0,0.0,0.0,0.0,0.0,0.0,0.0,0.0,0.0,0.0,0.0,0.0,-1.3465,-1.5145,-1.6562,-1.7715,-1.8299,-1.8663,-1.8788,-1.799,-1.699,-1.5877,0.0,0.0,0.0,0.0,0.0,0.0,0.0,0.0,0.0,0.0,0.0,0.0,0.0,0.0,0.0,0.0,0.0,0.0,0.0,0.0,0.0,0.0,0.0,0.0,0.0,0.0,0.0,0.0,0.0,0.0,0.0,0.0,0.0,0.0,0.0,0.0,0.0,0.0,0.0,0.0,0.0,0.0,0.0,0.0,0.0,0.0,0.0,0.0,0.0,0.0,0.0,0.0,0.0,0.0,0.0,0.0,0.0,0.0,0.0,0.0,0.0,0.0,0.0,0.0,0.0,0.0,0.0,0.0,0.0,0.0,0.0,0.0,0.0,0.0,0.0,0.0,0.0,0.0,0.0,0.0,0.0,0.0,0.0,0.0,0.0,0.0,0.0,0.0,0.0,0.0,0.0,0.0,0.0,0.0,0.0,0.0,0.0,0.0,0.0,0.0,0.0,0.0,-1.3818,-1.5449,-1.6885,-1.8082,-1.8652,-1.9045,-1.9283,-1.8513,-1.7583,-1.6581,0.0,0.0,0.0,0.0,0.0,0.0,0.0,0.0,0.0,0.0,0.0,0.0,0.0,0.0,0.0,0.0,0.0,0.0,0.0,0.0,0.0,0.0,0.0,0.0,0.0,0.0,0.0,0.0,0.0,0.0,0.0,0.0,0.0,0.0,0.0,0.0,0.0,0.0,0.0,0.0,0.0,0.0,0.0,0.0,0.0,0.0,0.0,0.0,0.0,0.0,0.0,0.0,0.0,0.0,0.0,0.0,0.0,0.0,0.0,0.0,0.0,0.0,0.0,0.0,0.0,0.0,0.0,0.0,0.0,0.0,0.0,0.0,0.0,0.0,0.0,0.0,0.0,0.0,0.0,0.0,0.0,0.0,0.0,0.0,0.0,0.0,0.0,0.0,0.0,0.0,0.0,0.0,0.0,0.0,0.0,0.0,0.0,0.0,0.0,0.0,0.0,0.0,-1.4248,-1.5949,-1.7381,-1.8378,-1.8997,-1.9341,-1.9341,-1.877,-1.8044,-1.7196,0.0,0.0,0.0,0.0,0.0,0.0,0.0,0.0,0.0,0.0,0.0,0.0,0.0,0.0,0.0,0.0,0.0,0.0,0.0,0.0,0.0,0.0,0.0,0.0,0.0,0.0,0.0,0.0,0.0,0.0,0.0,0.0,0.0,0.0,0.0,0.0,0.0,0.0,0.0,0.0,0.0,0.0,0.0,0.0,0.0,0.0,0.0,0.0,0.0,0.0,0.0,0.0,0.0,0.0,0.0,0.0,0.0,0.0,0.0,0.0,-0.983,0.0,0.0,0.0,0.0,0.0,0.0,0.0,0.0,0.0,0.0,0.0,0.0,0.0,0.0,0.0,0.0,0.0,0.0,0.0,0.0,0.0,0.0,0.0,0.0,0.0,0.0,0.0,0.0,0.0,0.0,0.0,0.0,0.0,0.0,0.0,0.0,0.0,0.0,0.0,0.0,0.0,-1.5083,-1.668,-1.7987,-1.8995,-1.9377,-1.9557,-1.9557,-1.8983,-1.8479,-1.8107,0.0,0.0,0.0,0.0,0.0,0.0,0.0,0.0,0.0,0.0,0.0,0.0,0.0,0.0,0.0,0.0,0.0,0.0,0.0,0.0,0.0,0.0,0.0,0.0,0.0,0.0,0.0,0.0,0.0,0.0,0.0,0.0,0.0,0.0,0.0,0.0,0.0,0.0,0.0,0.0,0.0,0.0,0.0,0.0,0.0,0.0,0.0,0.0,0.0,0.0,0.0,0.0,0.0,0.0,0.0,0.0,0.0,0.0,0.0,0.0,0.0,-1.1283,0.0,0.0,0.0,0.0,0.0,0.0,0.0,0.0,0.0,0.0,0.0,0.0,0.0,0.0,0.0,0.0,0.0,0.0,0.0,0.0,0.0,0.0,0.0,0.0,0.0,0.0,0.0,0.0,0.0,0.0,0.0,0.0,0.0,0.0,0.0,0.0,0.0,0.0,0.0,0.0,-1.5709,-1.7139,-1.8437,-1.9784,-1.992,-1.9969,-2.0214,-1.9826,-1.9292,-1.8744,-1.7777,0.0,0.0,0.0,0.0,0.0,0.0,0.0,0.0,0.0,0.0,0.0,0.0,0.0,0.0,0.0,0.0,0.0,0.0,0.0,0.0,0.0,0.0,0.0,0.0,0.0,0.0,0.0,0.0,0.0,0.0,0.0,0.0,0.0,0.0,0.0,0.0,0.0,0.0,0.0,0.0,0.0,0.0,0.0,0.0,0.0,0.0,0.0,0.0,0.0,0.0,0.0,0.0,0.0,0.0,-1.6129,-1.6934,-1.7171,-1.7213,-1.6986,-1.4878,-1.4175,-1.4459,0.0,0.0,0.0,0.0,0.0,0.0,0.0,0.0,0.0,0.0,0.0,0.0,0.0,0.0,0.0,0.0,0.0,0.0,0.0,0.0,0.0,0.0,0.0,0.0,0.0,-1.4476,-1.4705,0.0,0.0,0.0,0.0,0.0,0.0,0.0,0.0,0.0,0.0,0.0,0.0,-1.6485,-1.7795,-1.912,-2.0595,-2.0535,-2.0566,-2.0913,-2.0689,-2.0126,-1.9195,-1.884,-1.8219,0.0,0.0,0.0,0.0,0.0,0.0,0.0,0.0,0.0,0.0,0.0,0.0,0.0,0.0,0.0,0.0,0.0,0.0,0.0,0.0,0.0,0.0,0.0,0.0,0.0,0.0,0.0,0.0,0.0,0.0,0.0,0.0,-0.7506,-0.8146,0.0,0.0,0.0,0.0,0.0,0.0,0.0,0.0,0.0,0.0,0.0,0.0,0.0,0.0,-1.5683,-1.8168,-1.8805,-1.7539,-1.8178,-1.8815,-1.9424,-1.946,-1.9399,-1.9181,-1.8493,0.0,-1.5848,-1.594,0.0,0.0,0.0,0.0,0.0,0.0,0.0,0.0,0.0,0.0,0.0,0.0,0.0,0.0,0.0,0.0,0.0,0.0,0.0,0.0,0.0,0.0,-1.5431,-1.6507,-1.7102,-1.7483,0.0,-1.6124,-1.4744,-1.489,0.0,0.0,0.0,0.0,0.0,0.0,0.0,0.0,-1.8029,-1.9411,-2.0566,-2.1313,-2.1341,-2.1272,-2.1182,-2.0764,-2.0287,-1.9798,-1.9417,-1.8987,-1.8501,-1.7323,0.0,0.0,0.0,0.0,0.0,0.0,0.0,0.0,0.0,0.0,0.0,0.0,0.0,0.0,0.0,0.0,0.0,0.0,0.0,0.0,0.0,0.0,0.0,0.0,0.0,0.0,0.0,0.0,0.0,-0.7153,-0.8485,-0.8948,-0.9193,-0.8994,0.0,0.0,0.0,0.0,0.0,0.0,0.0,0.0,0.0,-1.507,-1.7549,-1.9112,-1.9663,-2.0178,-2.0369,-2.0173,-2.0449,-2.0849,-2.1374,-2.163,-2.1549,-2.1199,-2.0537,-1.9614,-1.857,-1.7696,-1.6809,-1.589,0.0,0.0,0.0,0.0,0.0,-1.3295,-1.4051,0.0,0.0,0.0,0.0,0.0,0.0,0.0,0.0,0.0,0.0,0.0,0.0,0.0,0.0,-1.8066,-1.8813,-1.9448,-1.9909,-1.9313,-1.8393,0.0,-1.6628,-1.6164,-1.6002,0.0,0.0,0.0,0.0,0.0,-1.9347,-2.0154,-2.1086,-2.2298,-2.1984,-2.1722,-2.1864,-2.146,-2.0982,-2.0622,-2.0209,-1.9806,-1.9372,-1.8449,-1.7442,0.0,0.0,0.0,0.0,0.0,0.0,0.0,0.0,0.0,0.0,0.0,0.0,0.0,0.0,0.0,0.0,0.0,0.0,0.0,0.0,0.0,0.0,0.0,0.0,0.0,0.0,0.0,0.0,-0.8382,-0.9648,-1.0262,-1.1015,-1.1175,0.0,0.0,0.0,0.0,0.0,0.0,-1.3283,-1.4444,-1.6431,-1.9316,-2.0397,-2.1308,-2.2159,-2.1621,-2.1662,-2.2263,-2.219,-2.2335,-2.2687,-2.3029,-2.2941,-2.2442,-2.1809,-2.1321,-2.0899,-1.9314,-1.8455,-1.8074,-1.7591,-1.6753,-1.5847,-1.5983,-1.6078,-1.6205,-1.6969,-1.7496,-1.7906,-1.8165,0.0,-1.7143,-1.6446,0.0,0.0,0.0,0.0,-1.5532,-1.7318,0.0,-1.8916,-1.9903,-2.0545,-2.1114,-2.1694,-2.1889,-2.142,0.0,-1.9013,-1.8584,-1.828,0.0,0.0,0.0,0.0,-1.8988,-2.0498,-2.0977,-2.1678,-2.296,-2.2479,-2.2153,-2.2369,-2.1954,-2.1467,-2.0989,-2.0677,-2.025,-1.9787,-1.9091,-1.8196,-1.7178,0.0,0.0,0.0,0.0,0.0,0.0,0.0,0.0,0.0,0.0,0.0,0.0,0.0,0.0,0.0,0.0,0.0,0.0,0.0,0.0,0.0,0.0,0.0,0.0,0.0,0.0,0.0,0.0,0.0,-1.2944,-1.4019,0.0,0.0,0.0,0.0,-1.4525,-1.4961,-1.5766,-1.6945,-1.7334,-1.8088,-1.9341,-1.996,-2.1197,-2.3101,-2.2761,-2.2895,-2.3525,-2.3246,-2.3132,-2.3153,-2.3174,-2.2941,-2.2482,-2.2432,-2.2289,-2.2025,-2.0938,-1.9913,-1.9114,-1.9812,-1.9275,-1.8097,-1.8694,-1.8731,-1.8599,-1.9219,-1.9547,-1.9665,-1.9701,-1.8964,-1.8053,-1.798,-1.7144,0.0,0.0,-1.7482,-1.8495,-1.9858,-2.0891,-2.1828,-2.276,-2.2677,-2.2646,-2.3546,-2.3412,-2.2886,0.0,-2.1549,-2.1252,-2.1606,0.0,-2.0477,-2.066,-2.0722,-2.0915,-2.1392,-2.2234,-2.279,-2.2839,-2.2785,-2.2643,-2.2441,-2.1954,-2.1357,-2.0594,-2.053,-2.0163,-1.9366,-1.8935,-1.8332,-1.7596,-1.6777,0.0,0.0,0.0,0.0,0.0,0.0,0.0,0.0,0.0,0.0,0.0,0.0,0.0,0.0,0.0,0.0,0.0,0.0,0.0,0.0,0.0,0.0,0.0,0.0,0.0,0.0,0.0,0.0,-1.4177,-1.5628,0.0,0.0,-1.7246,-1.769,-1.793,-1.8994,-1.9792,-2.0067,-2.0562,-2.1034,-2.1402,-2.158,-2.203,-2.2727,-2.3074,-2.332,-2.3524,-2.4186,-2.4498,-2.4498,-2.4498,-2.4327,-2.4016,-2.3744,-2.3495,-2.3303,-2.321,-2.2335,-2.1135,-2.141,-2.1013,-2.0359,-2.0582,-2.0583,-2.0556,-2.0908,-2.0967,-2.0874,-2.0689,-2.0199,-1.9606,-1.9278,-1.8889,-1.8684,-1.913,-1.9793,-2.0616,-2.1681,-2.2321,-2.278,-2.3111,-2.3287,-2.3557,-2.4167,-2.4405,-2.4454,-2.4362,-2.3695,-2.3216,-2.3379,-2.2682,-2.2114,-2.2196,-2.1801,-2.1748,-2.2322,-2.2535,-2.2745,-2.2967,-2.2698,-2.2441,-2.223,-2.166,-2.1209,-2.0915,-2.0378,-1.9976,-1.9714,-1.8937,-1.8217,-1.7623,-1.6943,-1.5965,0.0,0.0,0.0,0.0,0.0,0.0,0.0,0.0,0.0,0.0,0.0,0.0,0.0,0.0,0.0,0.0,0.0,0.0,0.0,0.0,0.0,0.0,0.0,0.0,0.0,0.0,-1.4867,-1.608,-1.7747,-1.8913,-1.9164,-2.0038,-2.069,-2.0862,-2.1851,-2.228,-2.203,-2.2453,-2.2574,-2.2349,-2.2581,-2.2732,-2.285,-2.3578,-2.401,-2.4163,-2.5029,-2.5334,-2.5189,-2.5189,-2.5019,-2.4645,-2.4525,-2.4377,-2.4253,-2.4733,-2.4267,-2.3215,-2.313,-2.2601,-2.1924,-2.1924,-2.1709,-2.1438,-2.1832,-2.1992,-2.2002,-2.1679,-2.1431,-2.1191,-2.0751,-2.0649,-2.0785,-2.1086,-2.1494,-2.2016,-2.2839,-2.3166,-2.3412,-2.3763,-2.4115,-2.4498,-2.5099,-2.5382,-2.5643,-2.5911,-2.5337,-2.4705,-2.4464,-2.3995,-2.3604,-2.3454,-2.2929,-2.2712,-2.3136,-2.2908,-2.2789,-2.3062,-2.2696,-2.2353,-2.222,-2.1521,-2.1044,-2.0915,-2.025,-1.9829,-1.9683,-1.9073,-1.8353,-1.7632,-1.6638,-1.5738,-1.495,0.0,0.0,0.0,0.0,0.0,0.0,0.0,0.0,0.0,0.0,0.0,0.0,0.0,0.0,0.0,0.0,0.0,0.0,0.0,0.0,0.0,0.0,0.0,-1.3616,-1.5556,-1.7414,-1.8747,-2.0529,-2.1752,-2.1963,-2.2775,-2.3275,-2.3245,-2.3287,-2.3145,-2.288,-2.2839,-2.2634,-2.2172,-2.2796,-2.3225,-2.3489,-2.4368,-2.5035,-2.5518,-2.5791,-2.5699,-2.5251,-2.522,-2.4874,-2.4268,-2.4706,-2.4945,-2.4985,-2.5456,-2.5503,-2.5219,-2.4904,-2.4016,-2.2842,-2.2842,-2.215,-2.1352,-2.2016,-2.2626,-2.3071,-2.2662,-2.2676,-2.2737,-2.2373,-2.2358,-2.2502,-2.2522,-2.2532,-2.2684,-2.3388,-2.3542,-2.3851,-2.4949,-2.521,-2.5447,-2.6382,-2.6403,-2.6333,-2.6829,-2.6393,-2.5733,-2.5023,-2.5073,-2.5078,-2.4655,-2.4172,0.0,-2.3857,-2.3477,-2.3169,-2.3159,-2.2719,-2.2444,-2.2435,-2.1646,-2.0979,-2.0594,-2.0149,-1.9747,-1.9375,-1.9329,-1.8767,-1.7667,-1.598,-1.4943,-1.457,0.0,0.0,0.0,0.0,0.0,0.0,0.0,0.0,0.0,0.0,0.0,0.0,0.0,0.0,0.0,0.0,0.0,0.0,0.0,0.0,0.0,0.0,-1.5646,-1.5751,-1.7714,-1.9644,-2.1094,-2.2231,-2.314,-2.3729,-2.4456,-2.483,-2.4676,-2.4974,-2.4886,-2.4192,-2.4192,-2.3979,-2.3506,-2.3667,-2.3774,-2.3871,-2.4825,-2.5438,-2.5744,-2.6537,-2.6864,-2.6682,-2.6009,-2.5627,-2.5434,-2.5558,-2.5609,-2.5671,-2.6522,-2.656,-2.6074,-2.5384,-2.4425,-2.3433,-2.3433,-2.329,-2.3064,-2.3396,-2.3602,-2.377,-2.3835,-2.3388,-2.2819,-2.2885,-2.2716,-2.2571,-2.2867,-2.3278,-2.3843,-2.4559,-2.4859,-2.5088,-2.5602,-2.5575,-2.5558,-2.6187,-2.6378,-2.6494,-2.6742,-2.7078,-2.7085,-2.6544,-2.6112,-2.5909,-2.6156,0.0,0.0,-2.5157,-2.505,-2.4714,-2.4021,-2.3852,-2.3495,-2.2825,-2.2281,-2.1897,0.0,-2.1129,-2.0732,-2.0613,-1.988,-1.9102,-1.8215,-1.7696,-1.714,0.0,0.0,0.0,0.0,0.0,0.0,0.0,0.0,0.0,0.0,0.0,0.0,0.0,0.0,0.0,0.0,0.0,0.0,0.0,0.0,0.0,0.0,-1.6637,-1.8425,-1.9105,-2.0336,-2.1609,-2.28,-2.3559,-2.4218,-2.4877,-2.5221,-2.5397,-2.5482,-2.5435,-2.5158,-2.4598,-2.446,-2.4202,-2.371,-2.4115,-2.4286,-2.4304,-2.5364,-2.6019,-2.6266,-2.6948,-2.7206,-2.6998,-2.6459,-2.6107,0.0,-2.6127,-2.621,-2.6273,-2.7009,-2.6976,0.0,0.0,0.0,0.0,0.0,-2.4098,-2.4222,-2.4267,-2.4476,-2.4696,-2.4709,-2.4263,-2.3745,-2.3695,-2.3506,-2.3359,-2.3559,-2.3947,-2.4329,-2.488,-2.5133,-2.531,-2.5757,-2.5915,-2.604,-2.6486,-2.6738,-2.6923,-2.7023,0.0,0.0,-2.737,-2.6983,-2.6666,-2.6755,-2.631,-2.6006,0.0,-2.5801,-2.545,-2.4803,-2.463,-2.4218,-2.3378,-2.2832,0.0,0.0,0.0,-2.1374,-2.1374,-2.0546,0.0,0.0,0.0,0.0,0.0,0.0,0.0,0.0,-1.5416,-1.5422,0.0,0.0,0.0,0.0,0.0,0.0,0.0,0.0,0.0,0.0,0.0,0.0,0.0,0.0,0.0,0.0,-1.9046,-2.1115,-2.2702,-2.3026,-2.333,-2.3996,-2.4563,-2.5044,-2.5444,-2.5384,-2.5465,-2.5776,-2.5141,-2.4643,-2.4421,0.0,0.0,0.0,0.0,-2.4727,-2.4756,-2.5902,-2.6602,-2.69,-2.7177,-2.7092,-2.6687,-2.6635,-2.6387,-2.5978,-2.6438,-2.6615,-2.6656,-2.7123,-2.6976,-2.6506,-2.646,-2.6064,-2.5459,-2.4794,-2.4734,0.0,0.0,0.0,0.0,-2.5273,-2.5107,-2.5,-2.4609,-2.4453,-2.4424,-2.4473,-2.4492,-2.4548,-2.4885,-2.498,-2.5166,-2.5836,-2.6315,-2.6748,-2.713,-2.7362,-2.7468,-2.7468,-2.7314,-2.7285,-2.7718,-2.757,-2.7258,-2.6942,-2.6702,0.0,-2.6602,-2.626,-2.5858,-2.5505,0.0,0.0,-2.4135,-2.3487,-2.295,-2.2621,-2.2135,-2.1879,-2.1833,-2.1362,-2.1127,-2.1083,-2.034,-1.9904,-1.9904,-1.9644,-1.9642,-1.9898,-1.8129,-1.7504,0.0,0.0,0.0,0.0,0.0,0.0,0.0,0.0,0.0,0.0,0.0,0.0,0.0,0.0,0.0,-1.9282,-2.1125,-2.2594,-2.3427,-2.4346,-2.488,-2.4659,-2.5094,-2.5338,-2.5265,-2.5653,-2.574,-2.5204,-2.5168,-2.4976,-2.4491,-2.4442,0.0,-2.4021,-2.438,-2.4769,-2.5159,-2.5858,-2.64,-2.69,0.0,0.0,-2.7164,-2.6781,-2.6563,-2.649,-2.6573,-2.6615,-2.6656,-2.7123,-2.6976,-2.6488,-2.6212,-2.6205,-2.6295,-2.5622,-2.5526,-2.5735,-2.5313,-2.5266,-2.5421,-2.5538,-2.5227,-2.4793,-2.4923,-2.4697,0.0,-2.4844,-2.4941,-2.5114,-2.5706,-2.61,-2.6476,-2.7112,-2.7379,-2.7633,-2.7904,-2.7974,-2.7976,-2.7976,-2.8013,-2.8076,-2.8154,-2.7645,-2.7389,-2.7933,-2.7761,-2.7709,-2.792,-2.7851,-2.7457,-2.6598,-2.6456,-2.6079,-2.5205,-2.4707,-2.44,-2.4308,-2.3553,-2.3004,-2.2684,-2.2555,-2.2463,-2.2259,-2.2094,-2.191,-2.1678,-2.1445,-2.1339,-2.1344,-2.0208,-1.9869,0.0,0.0,0.0,0.0,0.0,0.0,0.0,0.0,0.0,0.0,0.0,-1.5802,-1.7319,0.0,-1.9598,-2.111,-2.233,-2.3383,-2.4136,-2.477,-2.5157,-2.509,-2.5445,-2.5664,-2.5492,-2.5514,-2.5431,-2.5179,-2.4857,-2.4637,-2.4538,-2.4134,-2.4044,-2.4202,-2.439,-2.4824,-2.5509,-2.6052,-2.6592,-2.7081,-2.7214,-2.7309,-2.7299,-2.7071,-2.6957,-2.6957,-2.6957,-2.6957,-2.6978,-2.7084,-2.7071,-2.6966,-2.6764,-2.6664,-2.6593,-2.6654,-2.6519,-2.6278,-2.5953,-2.5722,-2.5538,-2.5635,-2.545,-2.5266,-2.5615,-2.5576,-2.5498,-2.5918,-2.6045,-2.6143,-2.6458,-2.6714,-2.6972,-2.7422,-2.7713,-2.8034,-2.8289,-2.8488,-2.8538,-2.8443,-2.8463,-2.8461,-2.8291,-2.7733,-2.7506,-2.8208,-2.8067,-2.8014,-2.8291,-2.8291,-2.8053,-2.7405,-2.7332,-2.7011,-2.6175,-2.5423,-2.4919,-2.4836,-2.4198,-2.3758,-2.3565,-2.3556,-2.3499,-2.3393,-2.3247,-2.3151,-2.3005,-2.2615,-2.242,-2.2411,-2.1738,-2.143,0.0,0.0,0.0,0.0,0.0,0.0,0.0,0.0,-1.6667,-1.6861,-1.7875,-1.8969,-1.9972,-2.0797,-2.164,-2.2553,-2.327,-2.3953,-2.4585,-2.4862,-2.5058,-2.5262,-2.5667,-2.5865,-2.5641,-2.5279,-2.5035,-2.506,-2.443,-2.4134,-2.4282,-2.3746,-2.3596,-2.4102,-2.439,-2.4873,-2.5693,-2.6245,-2.6784,-2.7309,-2.7309,-2.7309,-2.7309,-2.7309,-2.7351,-2.7434,-2.7434,-2.7382,-2.7262,-2.7081,-2.7204,-2.7496,-2.7533,-2.7306,-2.6962,-2.7477,-2.7338,-2.6753,-2.6512,-2.6162,-2.5801,-2.5713,-2.5742,-2.5928,-2.6279,-2.6445,-2.6582,-2.6914,-2.7012,-2.7012,-2.7012,-2.7131,-2.7282,-2.7528,-2.802,-2.8443,-2.8712,-2.8995,-2.9132,-2.8834,-2.8727,-2.8621,-2.8354,-2.7862,-2.7647,-2.813,-2.796,-2.7906,-2.8184,-2.8291,-2.8184,-2.7906,-2.7906,-2.7582,-2.6854,-2.5919,-2.5196,-2.4877,-2.4431,-2.4202,-2.4202,-2.4202,-2.4202,-2.4202,-2.4003,-2.3904,-2.3904,-2.3397,-2.3147,-2.3046,-2.2795,-2.249,-1.3888,-1.4532,-1.5263,-1.604,-1.6721,-1.7205,0.0,0.0,-1.9728,-1.9518,-2.052,-2.172,-2.2602,-2.3048,-2.339,-2.3747,-2.4445,-2.4738,-2.424,-2.5084,-2.5526,-2.4861,-2.5532,-2.5809,-2.5134,-2.5218,-2.4982,-2.4282,-2.3994,-2.3746,-2.3546,-2.3447,-2.3546,-2.3854,-2.4291,-2.4873,-2.5693,-2.6245,-2.6784,-2.7309,-2.7309,-2.7309,-2.7309,-2.7309,-2.7479,-2.7852,-2.7852,-2.7624,-2.7309,-2.7262,-2.7387,-2.7633,-2.7954,-2.8055,-2.788,-2.7751,-2.7637,-2.748,-2.667,-2.6357,-2.625,-2.5859,-2.5996,-2.6328,-2.6367,-2.665,-2.6953,-2.7002,-2.7012,-2.7012,-2.7012,-2.7491,-2.8036,-2.8304,-2.8896,-2.9482,-2.9755,-2.9681,-2.9448,-2.9132,-2.8887,-2.8621,-2.8354,-2.8077,-2.7853,-2.7906,-2.7691,-2.7593,-2.7906,-2.8121,-2.8184,-2.7906,-2.7906,-2.7582,-2.6854,-2.6139,-2.5563,-2.5181,-2.4522,-2.4202,-2.4202,-2.4202,-2.4202,-2.4202,-2.4152,-2.4152,-2.4152,-2.3854,-2.3605,-2.3347,-2.3097,-2.282,-1.6749,-1.7433,-1.8107,-1.9169,-1.9703,-2.0086,-2.0506,-2.1521,-2.232,-2.2192,-2.2846,-2.3508,-2.3869,-2.3999,-2.4084,0.0,-2.4846,-2.4965,-2.4419,-2.4992,-2.5169,-2.4264,-2.4618,-2.4883,-2.4707,-2.4779,-2.4587,-2.3994,-2.3696,-2.3497,-2.3406,-2.3097,-2.3197,-2.3805,-2.4093,-2.4716,-2.5693,-2.6245,-2.6784,-2.7309,-2.7309,-2.7444,-2.7645,-2.7645,-2.7748,-2.7924,-2.7924,-2.7665,-2.733,-2.7541,-2.771,-2.785,-2.84,-2.8594,-2.8518,-2.8361,-2.8039,-2.7669,-2.7452,-2.7197,-2.6961,-2.6993,-2.7003,-2.704,-2.7296,-2.74,-2.7441,-2.7685,-2.7764,-2.7764,-2.7764,-2.7996,-2.8335,-2.8755,-2.9106,-2.9459,-2.9889,-2.9931,-2.9774,-2.9448,-2.9132,-2.8824,-2.8568,-2.8184,-2.782,-2.7516,-2.7592,-2.7799,-2.8067,-2.8237,-2.8237,-2.813,-2.8121,-2.7946,-2.7506,-2.6726,-2.6064,-2.5587,-2.4802,-2.4341,-2.4202,-2.4202,-2.4202,-2.4202,-2.4202,-2.4202,-2.4202,-2.3954,-2.3755,-2.3655,-2.3347,-2.3147,-1.8758,-1.9519,-2.0203,-2.1379,-2.198,-2.2432,-2.3024,-2.3618,-2.4085,-2.4085,-2.4306,-2.449,-2.4418,-2.4456,-2.4503,-2.4517,-2.5011,-2.5125,-2.4432,-2.4838,-2.478,-2.3703,-2.3794,-2.4013,-2.404,-2.4256,-2.4125,-2.3534,-2.3434,-2.3347,-2.3197,-2.2795,-2.2946,-2.3655,-2.3935,-2.4618,-2.5693,-2.6245,-2.6784,-2.7309,-2.7434,-2.7614,-2.7935,-2.8183,-2.8162,-2.7935,-2.8059,-2.779,-2.734,-2.7738,-2.7997,-2.8144,-2.8747,-2.9034,-2.9083,-2.8978,-2.8529,-2.798,-2.8051,-2.7897,-2.7609,-2.7824,-2.7752,-2.7637,-2.8006,-2.7996,-2.7953,-2.8203,-2.8291,-2.8291,-2.8291,-2.8344,-2.8504,-2.8877,-2.9132,-2.9343,-2.9774,-2.9942,-2.9942,-2.9659,-2.9343,-2.9026,-2.8737,-2.8193,-2.7743,-2.7371,-2.7549,-2.7767,-2.7989,-2.816,-2.8291,-2.8291,-2.8291,-2.8237,-2.8014,-2.7241,-2.6521,-2.5942,-2.5148,-2.4551,-2.4202,-2.4242,-2.4291,-2.4291,-2.435,-2.435,-2.4301,-2.4093,-2.3954,-2.3805,-2.3596,-2.3447,-1.9113,-2.0074,-2.101,-2.2104,-2.3304,-2.4208,-2.4232,-2.4519,-2.4766,-2.4766,-2.4634,-2.4454,-2.4236,-2.4616,-2.4803,-2.4216,-2.5113,-2.5385,-2.4031,-2.4615,-2.4643,-2.3186,-2.3417,-2.3505,0.0,-2.3527,-2.3614,-2.2779,-2.3134,-2.3147,-2.2644,-2.2603,-2.2846,-2.3397,-2.3836,-2.4618,-2.5693,-2.6245,-2.6784,-2.7309,-2.7696,-2.7914,-2.7955,-2.8856,-2.8773,-2.7945,-2.84,-2.8079,-2.734,-2.7738,-2.8183,-2.8638,-2.9114,-2.9415,-2.9586,-2.9554,-2.9185,-2.8595,-2.8202,-2.8095,-2.8078,-2.7924,-2.7963,-2.8085,-2.8105,-2.8203,-2.8271,-2.8291,-2.8291,-2.8291,-2.8291,-2.8514,-2.8674,-2.8727,-2.9142,-2.9606,-2.9606,-2.9827,-2.9942,-2.9659,-2.9343,-2.9026,-2.8737,-2.817,-2.7676,-2.7666,-2.7314,-2.7094,-2.7232,-2.7868,-2.8291,-2.8291,-2.8291,-2.8291,-2.8291,-2.768,-2.6983,-2.6252,-2.5571,-2.4857,-2.422,-2.439,-2.4489,-2.4489,-2.4735,-2.4735,-2.4489,-2.448,-2.4242,-2.3805,-2.3795,-2.3655,-2.0984,-2.2068,-2.3071,-2.396,-2.4783,-2.5316,-2.5199,-2.5239,-2.5265,-2.5052,-2.4496,-2.3979,-2.3766,-2.355,-2.3433,-2.3544,-2.4345,-2.4745,-2.4133,-2.4452,-2.4341,-2.3177,-2.2942,0.0,0.0,0.0,0.0,-2.2762,-2.3125,-2.3147,-2.2653,-2.2745,-2.3169,-2.3797,-2.4446,-2.5381,-2.6572,-2.7073,-2.7619,-2.8162,-2.8628,-2.8835,-2.8856,-2.9477,-2.9425,-2.8835,-2.868,-2.8266,-2.7738,-2.8193,-2.8473,-2.8659,-2.9125,-2.923,-2.9105,-2.8959,-2.8647,-2.8354,-2.8913,-2.912,-2.91,-2.927,-2.9217,-2.9068,-2.8805,-2.8651,-2.8514,-2.8121,-2.8014,-2.8014,-2.8014,-2.8121,-2.8237,-2.8621,-2.8983,-2.9343,-2.9554,-2.9827,-2.9994,-2.9879,-2.9448,-2.9079,-2.8983,-2.8256,-2.7523,-2.6904,-2.6934,-2.7117,-2.7493,-2.7731,-2.7988,-2.8262,-2.8291,-2.8291,-2.8291,-2.7857,-2.7389,-2.6973,-2.6158,-2.555,-2.5158,-2.4885,-2.4784,-2.4784,-2.4833,-2.4784,-2.448,-2.448,-2.4341,-2.4053,-2.4053,-2.4003,-2.2033,-2.3245,-2.4243,-2.5149,-2.571,-2.598,-2.5828,-2.5688,-2.5487,-2.5025,-2.4177,-2.3433,-2.3167,-2.2701,-2.2545,-2.3144,-2.3943,-2.4451,-2.4231,-2.4463,-2.4255,-2.3237,-2.2875,-2.2659,0.0,0.0,0.0,-2.2663,-2.3193,-2.3347,-2.2896,-2.3186,-2.3582,-2.4103,-2.4946,-2.5907,-2.7012,-2.751,-2.8147,-2.8866,-2.9166,-2.9445,-2.9704,-2.9912,-2.9798,-2.9423,-2.8865,-2.8349,-2.7896,-2.8245,-2.8369,-2.8411,-2.8876,-2.8951,-2.8758,-2.8685,-2.854,-2.8496,-2.9086,-2.93,-2.9353,-2.9722,-2.9564,-2.9248,-2.9132,-2.8771,-2.8344,-2.8014,-2.7799,-2.7691,-2.7691,-2.7691,-2.7862,-2.8291,-2.8708,-2.9016,-2.9343,-2.9722,-2.9994,-2.9879,-2.9448,-2.9079,-2.8973,-2.8127,-2.7139,-2.6289,-2.6387,-2.6719,-2.7158,-2.7532,-2.7826,-2.8047,-2.8203,-2.8291,-2.8291,-2.8047,-2.7717,-2.7352,-2.6634,-2.603,-2.5626,-2.5258,-2.5039,-2.5039,-2.5137,-2.503,-2.4784,-2.4686,-2.4538,-2.4301,-2.4251,-2.4202,-2.2326,-2.356,-2.4532,-2.5623,-2.605,-2.6201,-2.6201,-2.5861,-2.5352,-2.4649,-2.3654,-2.2772,-2.2343,0.0,-2.2059,-2.2851,-2.3807,-2.4356,-2.4233,-2.4563,-2.4422,0.0,0.0,0.0,0.0,0.0,0.0,-2.2627,0.0,-2.3714,-2.3432,-2.3797,-2.4181,-2.4422,-2.5385,-2.6219,-2.708,-2.7631,-2.8401,-2.9342,-2.9393,-2.9714,-3.0391,-3.0151,-2.9953,-2.9698,-2.8975,-2.8369,-2.7955,-2.7935,-2.7924,-2.7917,-2.8411,-2.8576,-2.8588,-2.8758,-2.8829,-2.8787,-2.8737,-2.8684,-2.8834,-2.9406,-2.9195,-2.8781,-2.8983,-2.8485,-2.7906,-2.7853,-2.7584,-2.7377,-2.7377,-2.7377,-2.7476,-2.7799,-2.8271,-2.8751,-2.9016,-2.9511,-2.9879,-2.9606,-2.929,-2.8963,-2.8678,-2.7715,-2.6719,-2.5869,-2.5732,-2.5898,-2.6328,-2.71,-2.766,-2.7679,-2.8008,-2.8262,-2.8315,-2.8281,-2.8009,-2.74,-2.6895,-2.6359,-2.5714,-2.5475,-2.5333,-2.5333,-2.5586,-2.5586,-2.5284,-2.503,-2.4784,-2.448,-2.4301,-2.4202,-2.3758,-2.4674,-2.5287,-2.5777,-2.624,-2.6452,-2.6084,-2.5283,-2.4435,-2.3766,-2.2392,-2.1174,-2.0819,0.0,0.0,-2.1521,-2.2515,0.0,-2.3888,-2.4223,0.0,-2.4181,0.0,-2.317,-2.3437,-2.3672,0.0,0.0,-2.3712,-2.3831,-2.3841,-2.4101,-2.4587,-2.5269,-2.6126,-2.7008,-2.7969,-2.9155,-2.9891,-3.0109,-3.0326,-3.0504,-3.0724,-3.062,-3.0557,-3.045,-2.9352,-2.8833,-2.8697,-2.8108,-2.7924,-2.7886,-2.8059,-2.8002,-2.7867,-2.8026,-2.7934,-2.783,-2.8239,-2.8664,-2.9026,-2.9185,-2.9132,-2.893,-2.8601,-2.8174,-2.7726,-2.7088,-2.6871,-2.6826,-2.6826,-2.6935,-2.7152,-2.7476,-2.797,-2.8441,-2.8504,-2.893,-2.929,-2.9237,-2.8983,-2.8519,-2.7607,-2.7353,-2.7001,-2.6142,-2.6159,-2.6328,-2.6378,-2.6582,-2.6836,-2.7148,-2.7568,-2.7927,-2.8117,-2.8265,-2.8305,-2.8357,-2.7629,-2.7055,-2.6652,-2.6163,-2.582,-2.5586,-2.5693,-2.5586,-2.5284,-2.503,-2.4784,-2.448,-2.4301,-2.4202,-2.4385,-2.4982,-2.5233,-2.5531,-2.5795,-2.5794,-2.5124,-2.4439,-2.3668,-2.2683,-2.1219,-2.0093,-2.0044,-1.9343,0.0,0.0,0.0,0.0,-2.3897,-2.4218,-2.437,0.0,-2.399,0.0,-2.4107,-2.4249,-2.4339,0.0,-2.431,-2.4426,-2.4688,-2.5034,-2.5472,-2.61,-2.688,-2.7781,-2.8867,-2.9869,-3.0443,-3.0557,-3.0724,-3.0879,-3.0983,-3.0827,-3.0879,-3.0929,0.0,-2.9204,-2.9102,-2.8282,-2.7961,-2.7913,-2.7817,-2.7683,-2.762,-2.7723,-2.7713,-2.763,-2.8147,-2.8504,-2.8761,-2.8877,-2.8761,-2.8548,-2.8344,-2.7799,-2.7187,-2.6871,-2.6609,-2.6391,-2.6564,-2.6727,-2.689,-2.7161,-2.7593,-2.797,-2.8077,-2.8441,-2.8708,-2.8601,-2.8451,-2.8018,-2.7004,-2.7145,-2.7102,-2.6229,-2.6352,-2.65,-2.6457,-2.6507,-2.6624,-2.6709,-2.7129,-2.7607,-2.8043,-2.8177,-2.8404,-2.8867,-2.805,-2.746,-2.7206,-2.6458,-2.5955,-2.5693,-2.5693,-2.5586,-2.5284,-2.503,-2.4784,-2.448,-2.4301,-2.4202,-2.4472,-2.4832,-2.4818,-2.5108,-2.5097,-2.4785,-2.3935,-2.3492,-2.2867,-2.1457,0.0,-1.9249,-1.943,-1.8576,-1.8621,-2.0908,0.0,-2.2529,-2.3756,-2.4158,-2.4356,-2.4488,-2.4388,-2.446,-2.4679,-2.4841,-2.4932,-2.4932,-2.499,-2.517,-2.5588,-2.6005,-2.6451,-2.6988,-2.766,-2.8538,-2.9659,-3.0183,-3.0609,-3.0827,-3.0879,-3.1034,-3.123,-3.1034,-3.1034,-3.1124,0.0,0.0,-2.9349,-2.8407,-2.8004,-2.7998,-2.7726,-2.7584,-2.7604,-2.7731,-2.7814,-2.7843,-2.8199,-2.8291,-2.8344,-2.8568,-2.8291,-2.796,-2.813,-2.7422,-2.6654,-2.6826,-2.65,-2.6181,-2.6473,-2.6527,-2.6582,-2.6836,-2.7098,-2.7368,-2.7638,-2.796,-2.8077,-2.7853,-2.7799,-2.7549,-2.6814,-2.7131,-2.7201,-2.6447,-2.657,-2.6754,-2.6645,-2.6712,-2.6675,-2.6398,-2.672,-2.7233,-2.7907,-2.8046,-2.8349,-2.8941,-2.8288,-2.7683,-2.736,-2.6576,-2.6004,-2.5781,-2.5742,-2.5586,-2.5284,-2.503,-2.4784,-2.448,-2.4301,-2.4202,-2.4211,-2.4672,-2.4866,-2.462,-2.4804,-2.4817,-2.379,-2.2758,0.0,0.0,-1.9105,-1.8102,-1.7708,-1.7952,-1.8405,-1.8962,0.0,0.0,0.0,0.0,-2.3648,0.0,0.0,0.0,0.0,0.0,0.0,0.0,0.0,0.0,-2.5528,-2.5945,-2.6783,-2.7995,-2.8392,-2.9016,-2.9942,-3.0464,-3.0879,-3.1127,-3.1373,-3.1476,-3.1527,-3.1476,-3.1384,-3.1146,0.0,0.0,-2.9321,-2.8585,-2.8169,-2.7998,-2.7726,-2.7584,-2.7604,-2.7731,-2.7814,-2.7843,-2.8199,-2.8291,-2.8291,-2.8344,-2.8184,-2.7853,-2.7647,-2.7098,-2.6545,-2.6336,-2.6181,-2.6127,-2.6181,-2.619,-2.6181,-2.6236,-2.65,-2.6763,-2.6817,-2.7043,-2.726,-2.7422,-2.7314,-2.7154,-2.7084,-2.7562,-2.7807,-2.7553,-2.7932,-2.8048,-2.7472,-2.6934,-2.6462,-2.6171,-2.6557,-2.6963,-2.7342,-2.78,-2.8193,-2.833,-2.8218,-2.7854,-2.7172,-2.6671,-2.6294,-2.6052,-2.583,-2.5586,-2.5284,-2.503,-2.4784,-2.448,-2.4301,-2.4202,-2.338,-2.3895,-2.4352,-2.4056,-2.4109,-2.3882,-2.2648,0.0,0.0,0.0,-1.8489,-1.781,-1.7459,-1.7406,0.0,0.0,0.0,0.0,0.0,0.0,0.0,0.0,0.0,0.0,0.0,0.0,0.0,0.0,0.0,0.0,-2.5948,-2.6717,-2.7669,-2.8688,-2.9016,-2.9501,-3.0193,-3.062,-3.0983,-3.1424,-3.1527,-3.1618,-3.1618,-3.1476,-3.1322,-3.1146,0.0,0.0,-2.937,-2.8913,-2.854,-2.8196,-2.7904,-2.7968,-2.8168,-2.8032,-2.8066,-2.8205,-2.8447,-2.8408,-2.8291,-2.8291,-2.8023,-2.7584,-2.7431,-2.6881,-2.6336,-2.6354,-2.6245,-2.6127,-2.63,-2.6245,-2.6127,-2.6127,-2.6236,-2.64,-2.6564,-2.6564,-2.6618,-2.6899,-2.689,-2.6849,-2.6978,-2.7575,-2.7936,-2.7824,-2.8267,-2.8485,-2.8169,-2.7805,-2.7195,-2.6198,-2.6289,-2.6605,-2.6943,-2.7402,-2.7794,-2.8167,-2.8092,-2.7817,-2.7396,-2.6932,-2.6496,-2.61,-2.5955,-2.5625,-2.5079,-2.4981,-2.4686,-2.4341,-2.4251,-2.4202,-2.263,-2.3041,-2.3486,-2.3299,-2.3212,-2.2766,-2.1291,-2.1008,0.0,-1.8684,-1.7933,-1.7554,-1.7373,0.0,-1.7111,0.0,-1.9454,0.0,0.0,0.0,0.0,0.0,0.0,0.0,0.0,0.0,0.0,0.0,0.0,0.0,0.0,-2.7497,-2.8423,-2.9164,-2.9501,-2.9921,-3.0505,-3.0776,-3.1127,-3.1618,-3.1618,-3.1567,-3.1527,-3.1281,-3.1127,-3.1002,0.0,0.0,0.0,-2.9276,-2.8994,-2.8602,-2.8306,-2.8434,-2.8718,-2.8457,-2.8452,-2.861,-2.8684,-2.8568,-2.8398,-2.8291,-2.7916,-2.7377,-2.7377,-2.6836,-2.6245,-2.6527,-2.6418,-2.6245,-2.6527,-2.6354,-2.6127,-2.6127,-2.6127,-2.6181,-2.6527,-2.63,-2.6127,-2.6527,-2.6509,-2.6508,-2.6846,-2.7563,-2.8063,-2.8146,-2.8604,-2.8876,-2.8823,-2.8813,-2.8162,-2.6572,-2.6385,-2.6446,-2.6645,-2.7011,-2.7419,-2.7901,-2.7922,-2.7785,-2.7547,-2.7132,-2.6699,-2.6294,-2.6149,-2.5713,-2.499,-2.4932,-2.4646,-2.4202,-2.4202,-2.4202,-2.2511,-2.2561,-2.2312,-2.212,-2.2236,-2.1942,-2.0152,0.0,-1.9742,-1.7756,-1.7191,-1.6971,-1.6576,-1.6657,-1.6905,-1.7323,-1.8255,-1.9471,0.0,0.0,0.0,0.0,0.0,0.0,0.0,0.0,0.0,0.0,0.0,0.0,0.0,-2.7622,-2.8369,-2.9523,-2.9827,-3.0203,-3.0776,-3.1034,-3.1333,-3.1618,-3.1618,-3.1476,-3.123,-3.123,-3.092,-3.0495,0.0,0.0,0.0,-2.9676,-2.9521,-2.9285,-2.9,-2.8932,-2.8977,-2.889,-2.8829,-2.8827,-2.8737,-2.8684,-2.8621,-2.8398,-2.7916,-2.7377,-2.7377,-2.7008,-2.6537,-2.6582,-2.6591,-2.6537,-2.6582,-2.6354,-2.6127,-2.6127,-2.6127,-2.6181,-2.6527,-2.6136,-2.5907,-2.6473,-2.6136,-2.6109,-2.7159,-2.7858,-2.8532,-2.9337,-2.9703,-2.9818,-2.9637,-2.9392,-2.8786,-2.7574,-2.7247,-2.6851,-2.6238,-2.6782,-2.7166,-2.7043,-2.7582,-2.7748,-2.7334,-2.7054,-2.69,-2.6853,-2.6352,-2.581,-2.5235,-2.503,-2.4646,-2.4202,-2.4202,-2.4202,-2.1291,-2.1759,-2.2289,-2.2403,-2.2433,-2.2043,-2.0573,0.0,-1.9906,-1.777,-1.7297,-1.7065,-1.6504,-1.6697,-1.6985,-1.7181,-1.8108,-1.9313,-2.0776,0.0,0.0,0.0,0.0,0.0,0.0,0.0,0.0,0.0,0.0,0.0,0.0,-2.8124,-2.8766,-2.9642,-3.0203,-3.0672,-3.1034,-3.1127,-3.1322,-3.1618,-3.1424,-3.1322,-3.1178,-3.0868,-3.0599,-3.0391,0.0,0.0,0.0,-2.9628,-2.9507,-2.9126,-2.9037,-2.9255,-2.9619,-2.9443,-2.9487,-2.9548,-2.9513,-2.9248,-2.8877,-2.8621,-2.8291,-2.7862,-2.7485,-2.7161,-2.6791,-2.6646,-2.6591,-2.6591,-2.6591,-2.6354,-2.6127,-2.6127,-2.6127,-2.6181,-2.6527,-2.6136,-2.5798,-2.6245,-2.5962,-2.6008,-2.6989,-2.7809,-2.8611,-2.9448,-2.9973,-3.0119,-2.9751,-2.9597,-2.9039,-2.7734,-2.7494,-2.7116,-2.6382,-2.6764,-2.6998,-2.6911,-2.7294,-2.7448,-2.732,-2.7225,-2.7081,-2.69,-2.6544,-2.61,-2.5557,-2.5128,-2.4735,-2.439,-2.4251,-2.4102,-2.0375,-2.0999,-2.1747,-2.2077,-2.1986,-2.15,0.0,-1.9988,-1.9434,-1.7513,-1.7124,-1.6999,-1.651,-1.6742,-1.7044,-1.7206,-1.8123,-1.9211,-2.0422,-2.1072,0.0,0.0,0.0,0.0,0.0,0.0,0.0,0.0,0.0,0.0,0.0,0.0,-2.9215,-2.968,-3.041,-3.0974,-3.1229,-3.1462,-3.1629,-3.1721,-3.1527,-3.1373,-3.1178,-3.0806,-3.0599,0.0,0.0,0.0,0.0,-2.9482,-2.9314,-2.9076,-2.904,-2.941,-2.9963,-2.9703,-2.9709,-2.9797,-2.9745,-2.9373,-2.8916,-2.8805,-2.8582,-2.8284,-2.7824,-2.7431,-2.7107,-2.6899,-2.68,-2.6691,-2.6636,-2.6418,-2.6245,-2.6245,-2.6245,-2.63,-2.6527,-2.6136,-2.5798,-2.6181,-2.5962,-2.6008,-2.6935,-2.7799,-2.8611,-2.9564,-2.9974,-3.0076,-2.9842,-2.9634,-2.9044,-2.7821,-2.768,-2.736,-2.6585,-2.6757,-2.69,-2.69,-2.7177,-2.7309,-2.7309,-2.7309,-2.7167,-2.69,-2.6651,-2.6197,-2.5557,-2.5128,-2.4735,-2.439,-2.4251,-2.4053,-2.0098,-2.0321,-2.0197,-2.0555,-2.0423,-1.9913,-1.8707,-1.8311,-1.7903,-1.6738,-1.65,-1.65,-1.65,-1.6774,-1.7078,-1.7267,-1.8127,-1.9002,-1.9528,-2.0417,0.0,0.0,0.0,0.0,0.0,0.0,0.0,0.0,0.0,0.0,0.0,0.0,-2.977,-2.9698,-3.0459,-3.1008,-3.1291,-3.2107,-3.2342,-3.2015,-3.1964,-3.1721,-3.1178,-3.1178,0.0,0.0,0.0,0.0,0.0,-2.9226,-2.9109,-2.93,-2.9065,-2.927,-2.9677,-2.9505,-2.9423,-2.9384,-2.9097,-2.8838,-2.865,-2.8748,-2.8643,-2.8475,-2.8323,-2.7862,-2.7377,-2.7377,-2.7206,-2.6935,-2.6691,-2.6591,-2.6582,-2.6582,-2.6582,-2.6591,-2.6591,-2.6136,-2.5852,-2.6473,-2.6136,-2.6063,-2.7215,-2.7916,-2.8664,-2.9837,-2.9818,-2.9791,-3.0075,-2.9471,-2.871,-2.7976,-2.7924,-2.7506,-2.6585,-2.6757,-2.69,-2.69,-2.7177,-2.7309,-2.7309,-2.7309,-2.7167,-2.69,-2.6651,-2.611,-2.5284,-2.503,-2.4646,-2.4202,-2.4202,-2.4053,-1.939,-1.9773,-1.9998,-2.0141,-2.0083,-1.9744,-1.8814,-1.8474,-1.8017,-1.6881,-1.6543,-1.65,-1.6436,-1.7039,-1.7423,-1.7084,-1.8228,-1.9168,0.0,0.0,0.0,0.0,0.0,0.0,0.0,0.0,0.0,0.0,0.0,0.0,0.0,0.0,-2.9653,-2.9759,-3.0495,-3.0967,-3.1016,-3.127,-3.1348,-3.1238,-3.0894,-3.0657,-3.0519,-3.016,0.0,0.0,0.0,0.0,0.0,-2.9328,-2.931,-2.9376,-2.9278,-2.9469,-2.9746,-2.9685,-2.9681,-2.9681,-2.9582,-2.9374,-2.9087,-2.8783,-2.8839,-2.8973,-2.8545,-2.8215,-2.7916,-2.7314,-2.7043,-2.6944,-2.6691,-2.6591,-2.6591,-2.6591,-2.6591,-2.6591,-2.6591,-2.6245,-2.6017,-2.6236,-2.6072,-2.6236,-2.6989,-2.7799,-2.8664,-2.9837,-3.0245,-3.033,-2.9959,-2.9558,-2.8929,-2.7792,-2.7565,-2.7369,-2.7081,-2.6948,-2.69,-2.69,-2.6794,-2.6736,-2.6736,-2.6736,-2.6688,-2.6651,-2.6352,-2.5994,-2.5557,-2.5128,-2.4646,-2.4202,-2.3805,-2.3605,-1.8739,-1.9322,-1.9761,-1.9912,-1.9684,-1.9261,-1.8653,-1.8158,-1.7623,-1.687,-1.6599,-1.6479,-1.6414,-1.7165,-1.763,-1.7168,-1.8448,-1.94,0.0,0.0,0.0,0.0,0.0,0.0,0.0,0.0,0.0,0.0,0.0,0.0,0.0,0.0,-2.9804,-2.9958,-3.0474,-3.085,-3.0945,-3.1137,-3.1179,-3.1024,-3.0734,-3.0551,-3.0453,0.0,0.0,0.0,0.0,0.0,0.0,-2.916,-2.9084,-2.9125,-2.9052,-2.9241,-2.9537,-2.9451,-2.9434,-2.9434,-2.9434,-2.923,-2.8961,-2.874,-2.8884,-2.9137,-2.8939,-2.871,-2.8291,-2.7422,-2.7152,-2.7053,-2.6691,-2.6591,-2.6591,-2.6591,-2.6591,-2.6591,-2.6591,-2.6354,-2.6127,-2.6236,-2.619,-2.6345,-2.7043,-2.7809,-2.8664,-2.9669,-3.0255,-3.0285,-2.9586,-2.9302,-2.8773,-2.762,-2.7357,-2.7309,-2.7309,-2.7034,-2.69,-2.69,-2.6651,-2.6496,-2.6496,-2.6496,-2.6448,-2.6342,-2.6197,-2.5849,-2.5411,-2.4883,-2.444,-2.4053,-2.3596,-2.3397,0.0,-1.8838,-1.9362,-1.97,-1.9168,-1.8484,-1.82,-1.7505,0.0,-1.674,-1.6599,-1.6479,-1.6392,-1.7142,-1.769,-1.7387,-1.8732,0.0,0.0,0.0,0.0,0.0,0.0,0.0,0.0,0.0,0.0,0.0,0.0,0.0,0.0,0.0,0.0,-3.0216,-3.0444,-3.0695,-3.0962,-3.1421,-3.1556,-3.1199,-3.1199,-3.1067,-3.0826,0.0,0.0,0.0,0.0,0.0,0.0,-2.8719,-2.8559,-2.8711,-2.8509,-2.8664,-2.9057,-2.8874,-2.8803,-2.8803,-2.8803,-2.8617,-2.8434,-2.8641,-2.8815,-2.8952,-2.9463,-2.9195,-2.8514,-2.7701,-2.7431,-2.7269,-2.6745,-2.6591,-2.6591,-2.6591,-2.6591,-2.6591,-2.6591,-2.6364,-2.6245,-2.6527,-2.6354,-2.64,-2.7269,-2.7862,-2.8558,-2.9448,-2.988,-2.9846,-2.916,-2.8926,-2.8433,-2.7502,-2.7372,-2.7351,-2.7351,-2.7054,-2.6853,-2.6853,-2.6602,-2.6448,-2.6448,-2.6448,-2.6352,-2.61,-2.6042,-2.5664,-2.4883,-2.4399,-2.4053,-2.3755,-2.3497,-2.3347,-1.6575,0.0,-1.8314,-1.8525,-1.8385,-1.8058,0.0,-1.7324,-1.6939,-1.6854,-1.662,-1.6349,-1.6132,-1.6853,-1.7363,-1.7007,-1.8373,0.0,0.0,0.0,0.0,0.0,0.0,0.0,0.0,0.0,0.0,0.0,0.0,0.0,0.0,0.0,0.0,-3.0216,-3.0239,-3.0308,-3.0399,-3.0514,-3.0537,-3.0434,-3.0318,-3.0191,-3.0145,0.0,0.0,0.0,0.0,0.0,-2.9201,-2.8998,-2.8869,-2.8769,-2.8707,-2.8787,-2.8863,-2.8801,-2.8803,-2.8803,-2.8803,-2.8617,-2.8441,-2.8792,-2.8807,-2.8776,-2.9423,-2.9195,-2.8621,-2.8184,-2.7755,-2.7323,-2.6999,-2.6736,-2.6591,-2.6591,-2.6591,-2.6591,-2.6591,-2.6527,-2.6527,-2.6591,-2.6537,-2.6682,-2.7269,-2.7755,-2.8335,-2.9448,-2.9838,-2.9973,-2.9857,-2.9648,-2.9245,-2.8655,-2.8084,-2.7769,-2.7769,-2.7026,-2.6592,-2.6592,-2.6169,-2.5878,-2.5878,-2.5878,-2.5878,-2.5781,-2.5372,-2.4981,-2.4578,-2.4143,-2.3755,-2.3506,-2.3197,-2.3097,-1.6255,-1.7092,-1.7808,-1.7845,-1.7836,-1.7787,-1.7557,-1.724,-1.6981,-1.6897,-1.6705,-1.6501,-1.6396,-1.6906,-1.7396,-1.7461,-1.8726,0.0,0.0,0.0,0.0,0.0,0.0,0.0,0.0,0.0,0.0,0.0,0.0,0.0,0.0,0.0,0.0,0.0,-3.0216,-3.0216,-3.0216,-3.0216,-3.0216,-3.0216,-3.0091,-3.0057,-3.0057,0.0,0.0,0.0,0.0,0.0,-2.9462,-2.9312,-2.9174,-2.8943,-2.8943,-2.8896,-2.8825,-2.8914,-2.8954,-2.8907,-2.8802,-2.8576,-2.8418,-2.8845,-2.8974,-2.9012,-2.961,-2.9459,-2.8983,-2.8451,-2.7825,-2.7229,-2.7041,-2.6751,-2.6515,-2.66,-2.6591,-2.6636,-2.6736,-2.6791,-2.6845,-2.6954,-2.6954,-2.7116,-2.753,-2.7853,-2.8388,-2.9237,-2.9722,-2.9933,-2.9772,-2.9698,-2.9469,-2.8869,-2.8439,-2.8196,-2.8048,-2.7305,-2.6718,-2.6506,-2.6024,-2.5693,-2.5693,-2.5693,-2.5693,-2.5693,-2.5186,-2.4686,-2.4332,-2.3945,-2.3596,-2.3197,-2.3046,-2.2996,-1.6321,-1.7051,-1.7468,-1.7459,-1.7608,-1.7711,-1.7546,-1.7331,-1.7153,-1.7067,0.0,-1.6838,-1.6817,-1.7135,0.0,0.0,0.0,0.0,0.0,0.0,0.0,0.0,0.0,0.0,0.0,0.0,0.0,0.0,0.0,0.0,0.0,0.0,0.0,0.0,-3.0331,-3.0342,-3.0342,-3.0262,-3.0216,-3.0216,-3.0216,-3.0216,-3.0216,-3.0216,0.0,0.0,0.0,0.0,-2.9748,-2.9542,-2.9312,-2.9046,-2.9112,-2.9006,-2.8885,-2.9137,-2.9176,-2.9117,-2.8865,-2.8623,-2.8474,-2.8935,-2.9192,-2.9394,-2.986,-2.9827,-2.9438,-2.8585,-2.7814,-2.7242,-2.7072,-2.6751,-2.6495,-2.6707,-2.6745,-2.68,-2.6999,-2.7043,-2.7152,-2.7377,-2.7377,-2.7485,-2.7853,-2.8077,-2.8398,-2.8973,-2.9511,-2.9745,-2.9405,-2.9599,-2.9504,-2.8866,-2.8712,-2.8571,-2.8339,-2.7611,-2.695,-2.6579,-2.6014,-2.5693,-2.5693,-2.5693,-2.5693,-2.5693,-2.5186,-2.4686,-2.4183,-2.3895,-2.3497,-2.2996,-2.2946,-2.2946,-1.578,-1.6225,-1.6702,-1.7468,-1.7843,-1.7939,-1.7593,-1.7726,-1.7892,-1.7764,0.0,0.0,0.0,-1.7487,0.0,0.0,0.0,0.0,0.0,0.0,0.0,0.0,0.0,0.0,0.0,0.0,0.0,0.0,0.0,0.0,0.0,0.0,0.0,0.0,0.0,-3.0893,-3.0893,-3.0445,-3.0216,-3.0216,-3.0216,-3.0216,-3.0216,-3.0216,-3.0091,0.0,0.0,-2.9646,-2.922,-2.9174,-2.9035,-2.8894,-2.9263,-2.9284,-2.9111,-2.9548,-2.9563,-2.9355,-2.9306,-2.912,-2.8946,-2.9446,-2.9443,-2.9394,-2.986,-2.9827,-2.942,-2.8689,-2.8009,-2.749,-2.7242,-2.6959,-2.6814,-2.7175,-2.7269,-2.7269,-2.7323,-2.7323,-2.7368,-2.7377,-2.7377,-2.7485,-2.7853,-2.7906,-2.8121,-2.8674,-2.9036,-2.9323,-2.9514,-2.9776,-2.9912,-2.9787,-2.924,-2.886,-2.8819,-2.7583,-2.6834,-2.6764,-2.6074,-2.5693,-2.5693,-2.5693,-2.5693,-2.5693,-2.5186,-2.4735,-2.443,-2.3795,-2.3297,-2.2996,-2.2745,-2.2644,-1.5602,-1.5879,-1.6157,-1.6692,-1.7361,-1.7797,-1.7475,-1.7708,-1.8076,-1.8301,0.0,0.0,0.0,0.0,0.0,0.0,0.0,0.0,0.0,0.0,0.0,0.0,0.0,0.0,0.0,0.0,0.0,0.0,0.0,0.0,0.0,0.0,0.0,0.0,0.0,0.0,-3.1019,-3.048,-3.0216,-3.0216,-3.0091,-3.0057,-3.0057,-2.9909,-2.976,-2.9691,0.0,-2.97,-2.9702,-2.9702,-2.9634,-2.9565,-2.9784,-2.964,-2.9304,-2.9636,-2.9656,-2.9584,-2.9584,-2.9595,-2.9587,-2.9686,-2.9815,-2.9922,-2.9974,-2.9931,-2.9629,-2.8764,-2.8219,-2.7793,-2.7323,-2.7113,-2.7069,-2.7327,-2.7377,-2.7431,-2.7638,-2.7691,-2.7691,-2.7862,-2.7916,-2.7916,-2.8077,-2.813,-2.8237,-2.8621,-2.8781,-2.9036,-2.9554,-2.9722,-2.9774,-2.9774,-2.9485,-2.9164,-2.8808,-2.799,-2.7111,-2.6261,-2.5898,-2.5693,-2.5693,-2.5693,-2.5635,-2.5489,-2.5088,-2.4686,-2.4282,-2.3696,-2.3247,-2.2996,-2.2695,-2.2594,-1.5553,-1.5774,-1.5899,-1.6048,-1.6842,-1.7523,-1.7354,-1.7735,-1.8265,-1.8791,-1.883,0.0,0.0,0.0,0.0,0.0,0.0,0.0,0.0,0.0,0.0,0.0,0.0,0.0,0.0,0.0,0.0,0.0,0.0,0.0,0.0,0.0,0.0,0.0,0.0,0.0,-3.118,-3.0537,-3.0216,-3.0216,-3.0011,-2.9886,-2.9886,-2.9634,-2.9439,-2.9359,-2.9424,-2.9644,-2.9858,-2.998,-3.0016,-3.0025,-3.0133,-2.9945,-2.9635,-2.9761,-2.9826,-2.9856,-2.9958,-3.0071,-3.0234,-3.0121,-3.0252,-3.0453,-3.0193,-3.0099,-2.9891,-2.8868,-2.8445,-2.8182,-2.7509,-2.7323,-2.7386,-2.7542,-2.7593,-2.7701,-2.796,-2.8014,-2.8067,-2.8237,-2.8291,-2.8291,-2.8291,-2.8291,-2.8354,-2.8568,-2.8674,-2.8887,-2.9353,-2.9448,-2.9501,-2.9501,-2.9448,-2.9154,-2.8536,-2.8157,-2.7444,-2.6103,-2.5801,-2.5693,-2.5693,-2.5693,-2.5586,-2.5294,-2.5039,-2.4686,-2.4183,-2.3746,-2.3406,-2.3197,-2.2896,-2.2795,-1.5572,-1.5844,-1.5997,-1.6088,-1.6629,-1.7191,-1.7363,-1.8081,-1.8875,-1.9348,-1.9594,0.0,0.0,0.0,0.0,0.0,0.0,0.0,0.0,0.0,0.0,0.0,0.0,0.0,0.0,0.0,0.0,0.0,0.0,0.0,0.0,0.0,0.0,0.0,0.0,0.0,-3.1638,-3.0709,-3.0216,-3.0216,-3.0011,-2.9886,-2.9886,-2.9634,-2.9255,-2.8872,-2.9263,-2.9185,-2.8828,-2.9276,-2.9479,-2.9505,-2.9952,-3.0174,-3.0296,-3.0089,-3.0151,-3.039,-3.0619,-3.0733,-3.0785,-3.1021,-3.095,-3.0724,-3.0453,-3.0391,-3.0141,-2.9157,-2.8968,-2.8833,-2.7921,-2.7656,-2.7764,-2.814,-2.8237,-2.8237,-2.8291,-2.8291,-2.8291,-2.8291,-2.8291,-2.8291,-2.8291,-2.8291,-2.8291,-2.8344,-2.8514,-2.8737,-2.8781,-2.8983,-2.9132,-2.9132,-2.893,-2.8516,-2.7849,-2.7738,-2.7503,-2.6953,-2.6132,-2.5693,-2.5693,-2.5693,-2.5586,-2.5294,-2.5039,-2.4784,-2.4489,-2.3994,-2.3755,-2.3755,-2.3456,-2.3347,-1.4838,-1.5321,-1.5644,-1.5408,-1.6186,-1.7209,-1.7872,-1.8708,-1.9662,-2.0754,-2.0885,0.0,0.0,0.0,0.0,0.0,0.0,0.0,0.0,0.0,0.0,0.0,0.0,0.0,0.0,0.0,0.0,0.0,0.0,0.0,0.0,0.0,0.0,0.0,0.0,0.0,0.0,-3.1065,-3.0549,-3.0216,-3.0011,-2.9783,-2.9634,-2.9359,-2.9082,-2.8825,-2.9081,-2.9268,-2.9396,-2.9718,-2.9918,-3.0041,-3.0025,-3.0099,-3.0141,-3.0245,-3.0401,-3.0672,-3.0972,-3.1178,-3.127,-3.123,-3.1127,-3.0983,-3.0713,-3.0672,-3.0474,-2.9777,-2.9641,-2.9409,-2.8234,-2.8009,-2.8096,-2.8252,-2.8291,-2.8291,-2.8291,-2.8291,-2.8354,-2.8514,-2.8568,-2.8621,-2.8761,-2.8664,-2.8568,-2.8568,-2.8514,-2.8514,-2.8684,-2.8781,-2.8834,-2.8834,-2.8621,-2.8339,-2.8066,-2.7812,-2.7536,-2.7153,-2.6592,-2.6156,-2.5895,-2.5678,-2.5345,-2.4794,-2.4686,-2.4538,-2.4291,-2.3954,-2.3805,-2.3795,-2.3497,-2.3397,-1.4349,-1.4956,-1.5449,-1.5234,-1.6131,-1.7393,-1.8821,-1.9369,-1.9994,-2.145,-2.1786,-2.18,-2.1669,0.0,0.0,0.0,0.0,0.0,0.0,0.0,0.0,0.0,0.0,0.0,0.0,0.0,0.0,0.0,0.0,0.0,0.0,0.0,0.0,0.0,0.0,0.0,0.0,-3.1502,-3.0985,-3.0468,-3.0251,-2.9884,-2.9485,-2.922,-2.8943,-2.8696,-2.8996,-2.9289,-2.9575,-2.9833,-3.0136,-3.0391,-3.0193,-3.0203,-3.0256,-3.0453,-3.0713,-3.0931,-3.1127,-3.1373,-3.1567,-3.1373,-3.1333,-3.1281,-3.1034,-3.0931,-3.0827,-3.0308,-3.0047,-2.9765,-2.8812,-2.8532,-2.8558,-2.8558,-2.8558,-2.8558,-2.8558,-2.8558,-2.8611,-2.8771,-2.8834,-2.8877,-2.9079,-2.893,-2.8781,-2.8727,-2.8514,-2.8461,-2.8568,-2.8568,-2.8568,-2.8568,-2.8408,-2.8291,-2.8291,-2.7974,-2.7693,-2.741,-2.6984,-2.654,-2.6047,-2.5673,-2.5255,-2.4725,-2.4545,-2.439,-2.4202,-2.4003,-2.3954,-2.3904,-2.3755,-2.3646,-1.4217,-1.4896,-1.5553,-1.5756,-1.6461,-1.7772,-2.0247,-2.0036,-1.9708,-2.1132,-2.2162,-2.2626,-2.2049,0.0,0.0,0.0,0.0,0.0,0.0,0.0,0.0,0.0,0.0,0.0,0.0,0.0,0.0,0.0,0.0,0.0,0.0,0.0,0.0,0.0,0.0,0.0,0.0,-3.2007,-3.1525,-3.0973,-3.0705,-3.02,-2.9485,-2.922,-2.885,-2.8427,-2.8912,-2.9036,-2.9019,-2.949,-2.9992,-3.0391,-3.0391,-3.0557,-3.0786,-3.0786,-3.0983,-3.1178,-3.1178,-3.1373,-3.1618,-3.1618,-3.1618,-3.1578,-3.1281,-3.1178,-3.1075,-3.0547,-3.0193,-2.9942,-2.9659,-2.9343,-2.9132,-2.9079,-2.9079,-2.9079,-2.9079,-2.9079,-2.9079,-2.9079,-2.9079,-2.9132,-2.9132,-2.9079,-2.9036,-2.8727,-2.8684,-2.8621,-2.8344,-2.8291,-2.8291,-2.8291,-2.8291,-2.8291,-2.8291,-2.8067,-2.7906,-2.7906,-2.7314,-2.6733,-2.6126,-2.5733,-2.5396,-2.5075,-2.4694,-2.439,-2.4202,-2.4202,-2.4202,-2.4202,-2.4202,-2.4202,-1.4156,-1.5057,-1.5818,-1.6305,0.0,0.0,-2.0532,-2.0486,-2.0576,0.0,-2.3184,-2.3757,-2.3457,0.0,0.0,0.0,0.0,0.0,0.0,0.0,0.0,0.0,0.0,0.0,0.0,0.0,0.0,0.0,0.0,0.0,0.0,0.0,0.0,0.0,0.0,0.0,0.0,0.0,-3.1269,-3.0435,-3.0377,-3.0014,-2.9485,-2.922,-2.8943,-2.8696,-2.8996,-2.9096,-2.9095,-2.9745,-3.0248,-3.0672,-3.0672,-3.0724,-3.0827,-3.1034,-3.1127,-3.123,-3.1424,-3.1527,-3.1618,-3.1618,-3.1618,-3.1578,-3.1527,-3.1476,-3.1373,-3.0817,-3.062,-3.0464,-2.9994,-2.9827,-2.9617,-2.9185,-2.9079,-2.9079,-2.9079,-2.9079,-2.9185,-2.9396,-2.9448,-2.9501,-2.9722,-2.9396,-2.9079,-2.8983,-2.8664,-2.8291,-2.8067,-2.7799,-2.7755,-2.796,-2.8014,-2.8014,-2.8014,-2.796,-2.7745,-2.7314,-2.7098,-2.681,-2.634,-2.6033,-2.5543,-2.4877,-2.4748,-2.4546,-2.4202,-2.4202,-2.4202,-2.4202,-2.4202,-2.4301,-1.4158,-1.5216,-1.6168,-1.6887,-1.8196,-1.9677,-2.0991,0.0,0.0,0.0,0.0,-2.4537,0.0,0.0,0.0,0.0,0.0,0.0,0.0,0.0,0.0,0.0,0.0,0.0,0.0,0.0,0.0,0.0,0.0,0.0,0.0,0.0,0.0,0.0,0.0,0.0,0.0,0.0,0.0,-3.0529,-3.0341,-2.9978,-2.9485,-2.922,-2.8989,-2.8825,-2.8996,-2.9225,-2.9413,-2.9917,-3.0453,-3.0983,-3.0983,-3.1023,-3.1127,-3.1281,-3.1373,-3.1373,-3.1516,-3.1618,-3.1618,-3.1618,-3.1618,-3.1618,-3.1618,-3.1618,-3.1527,-3.1075,-3.0879,-3.0672,-3.0245,-3.0099,-2.9889,-2.9564,-2.9459,-2.9459,-2.9459,-2.9459,-2.9511,-2.9722,-2.9774,-2.9827,-2.9994,-2.9617,-2.9237,-2.9132,-2.8548,-2.8014,-2.7745,-2.7539,-2.753,-2.7853,-2.7906,-2.7906,-2.7906,-2.7799,-2.7476,-2.7043,-2.689,-2.6779,-2.6635,-2.6254,-2.5791,-2.5313,-2.4941,-2.4656,-2.4459,-2.4284,-2.4251,-2.4341,-2.4341,-2.444,-1.4245,-1.5389,-1.6589,-1.7533,-1.8859,0.0,-2.1846,-2.304,-2.3781,-2.3511,0.0,0.0,0.0,0.0,0.0,0.0,0.0,0.0,0.0,0.0,0.0,0.0,0.0,0.0,0.0,0.0,0.0,0.0,0.0,0.0,0.0,0.0,0.0,0.0,0.0,0.0,0.0,0.0,0.0,0.0,-3.0505,-2.9989,-2.9439,-2.9174,-2.8989,-2.8825,-2.899,-2.9322,-2.9807,-3.002,-3.0542,-3.1165,-3.1208,-3.1373,-3.1618,-3.1618,-3.1618,-3.1618,-3.1618,-3.1618,-3.1618,-3.1618,-3.1618,-3.1618,-3.1618,-3.1618,-3.1516,-3.1281,-3.1034,-3.0724,-3.0453,-3.0193,-2.9994,-2.9994,-2.9994,-2.9994,-2.9994,-2.9994,-2.9994,-2.9994,-2.9994,-2.9994,-2.9994,-2.9774,-2.9448,-2.9026,-2.8335,-2.7745,-2.7431,-2.7323,-2.7476,-2.7799,-2.7853,-2.7853,-2.7906,-2.7584,-2.7314,-2.7043,-2.6736,-2.6691,-2.6935,-2.6421,-2.6083,-2.5957,-2.5249,-2.4854,-2.4721,-2.4385,-2.4341,-2.448,-2.4538,-2.4686,-1.4513,-1.5881,0.0,-1.8637,-2.1043,-2.328,-2.4139,-2.4743,-2.489,-2.4122,0.0,0.0,0.0,0.0,0.0,0.0,0.0,0.0,0.0,0.0,0.0,0.0,0.0,0.0,0.0,0.0,0.0,0.0,0.0,0.0,0.0,0.0,0.0,0.0,0.0,0.0,-3.077,-3.0976,-3.0825,0.0,-3.0128,-2.972,-2.9174,-2.8943,-2.885,-2.8803,-2.8866,-2.9147,-2.9589,-3.0019,-3.0487,-3.0993,-3.1374,-3.1578,-3.1618,-3.1618,-3.1618,-3.1618,-3.1618,-3.1618,-3.1618,-3.1618,-3.1618,-3.1618,-3.1618,-3.1618,-3.1516,-3.1281,-3.1034,-3.0724,-3.0453,-3.0193,-2.9994,-2.9994,-2.9994,-2.9994,-2.9994,-2.9994,-2.9994,-2.9994,-2.9994,-2.9994,-2.9994,-2.9564,-2.8973,-2.8281,-2.7799,-2.7431,-2.7098,-2.6899,-2.6963,-2.7431,-2.7485,-2.7584,-2.7906,-2.7584,-2.7314,-2.7088,-2.6791,-2.6646,-2.6691,-2.6797,-2.6551,-2.5884,-2.5646,-2.5187,-2.4339,-2.4387,-2.444,-2.4538,-2.4735,-2.4981,-1.5231,-1.6536,0.0,-2.0384,0.0,-2.4294,-2.4898,-2.5464,-2.5852,0.0,0.0,0.0,0.0,0.0,0.0,0.0,0.0,0.0,0.0,0.0,0.0,0.0,0.0,0.0,0.0,0.0,0.0,0.0,0.0,0.0,0.0,0.0,0.0,0.0,0.0,0.0,-3.026,-3.0463,-3.0369,-3.0028,-2.9807,-2.9429,-2.8943,-2.885,-2.8803,-2.8803,-2.8803,-2.9077,-2.95,-2.9751,-3.0275,-3.0919,-3.1171,-3.1422,-3.1618,-3.1618,-3.1618,-3.1618,-3.1618,-3.1618,-3.1618,-3.1618,-3.1618,-3.1618,-3.1618,-3.1618,-3.1567,-3.1424,-3.1178,-3.0972,-3.0817,-3.0505,-3.0193,-3.0193,-3.0099,-2.9994,-2.9994,-2.9994,-2.9994,-2.9994,-2.9994,-2.9922,-2.9704,-2.9185,-2.8522,-2.777,-2.753,-2.7269,-2.6836,-2.6791,-2.6944,-2.7377,-2.753,-2.7691,-2.7906,-2.7554,-2.7172,-2.6968,-2.6743,-2.657,-2.6599,-2.6499,-2.638,-2.6338,-2.5904,-2.5367,-2.4827,-2.473,-2.4784,-2.4883,-2.5039,-2.5235,-1.5792,-1.7267,-1.9121,-2.2183,-2.3692,0.0,-2.5218,-2.5868,0.0,0.0,0.0,0.0,0.0,0.0,0.0,0.0,0.0,0.0,0.0,0.0,0.0,0.0,0.0,0.0,0.0,0.0,0.0,0.0,0.0,0.0,0.0,0.0,0.0,0.0,0.0,-2.9977,-2.9886,-3.0045,-3.0045,-2.984,-2.9542,-2.9209,-2.8803,-2.8803,-2.8803,-2.8803,-2.8803,-2.9033,-2.9416,-2.9456,-2.9947,-3.0657,-3.0745,-3.1029,-3.1378,-3.1378,-3.1378,-3.1378,-3.1378,-3.1378,-3.1378,-3.1378,-3.1378,-3.1378,-3.1378,-3.1433,-3.1498,-3.1498,-3.1359,-3.1178,-3.1178,-3.0806,-3.037,-3.0286,-3.0016,-2.9818,-2.988,-2.9818,-2.9756,-2.9756,-2.9756,-2.9632,-2.9096,-2.8737,-2.8244,-2.7431,-2.7384,-2.7215,-2.6745,-2.6836,-2.7098,-2.7431,-2.7745,-2.7906,-2.796,-2.7511,-2.7065,-2.6803,-2.6595,-2.6489,-2.6461,-2.5965,-2.6023,-2.6699,-2.5955,-2.5509,-2.5383,-2.5102,-2.5088,-2.5284,-2.5342,-2.5489,-1.528,0.0,-2.0953,0.0,-2.44,-2.523,0.0,0.0,0.0,0.0,0.0,0.0,0.0,0.0,0.0,0.0,0.0,0.0,0.0,0.0,0.0,0.0,0.0,0.0,0.0,0.0,0.0,0.0,0.0,0.0,0.0,0.0,-3.0781,-3.0487,-3.0487,0.0,-2.9886,-2.9931,-2.9829,-2.9542,-2.9266,-2.9035,-2.8803,-2.8803,-2.8803,-2.8803,-2.8803,-2.8836,-2.8935,-2.9314,-2.9554,-2.9718,-3.0133,-3.0341,-3.0406,-3.0406,-3.0406,-3.0406,-3.0406,-3.0406,-3.0406,-3.0406,-3.0406,-3.0406,-3.0406,-3.0679,-3.0996,-3.0996,-3.1099,-3.1178,-3.1178,-3.0806,-3.0286,-2.9877,-2.9424,-2.9127,-2.9343,-2.9073,-2.8794,-2.8794,-2.8794,-2.8622,-2.8066,-2.8278,-2.8145,-2.705,-2.7204,-2.7269,-2.6999,-2.6989,-2.7206,-2.7799,-2.7853,-2.8014,-2.8237,-2.7617,-2.7052,-2.6657,-2.627,-2.5989,-2.583,-2.5742,-2.5762,-2.5859,-2.5932,-2.5636,-2.4968,-2.5166,-2.5235,-2.5294,-2.5538,-2.5693,-1.5911,-1.8676,-2.1445,0.0,-2.4047,-2.5169,-2.6598,0.0,0.0,0.0,0.0,0.0,0.0,0.0,0.0,0.0,0.0,0.0,0.0,0.0,0.0,0.0,0.0,0.0,0.0,0.0,0.0,0.0,0.0,0.0,0.0,-3.1083,-3.1083,-3.0994,-3.0758,0.0,-3.0045,-2.9977,-2.9691,-2.9255,-2.9035,-2.8896,-2.8803,-2.8803,-2.8803,-2.8803,-2.8803,-2.8803,-2.8825,-2.9033,-2.9237,-2.95,-2.9718,-2.9969,-3.0209,-3.0209,-3.0209,-3.0209,-3.0209,-3.0209,-3.0209,-3.0209,-3.0209,-3.0209,-3.0209,-3.0351,-3.0515,-3.0515,-3.0754,-3.1023,-3.1023,-3.082,-3.0493,-3.0018,-2.9195,-2.8472,-2.8387,-2.8287,-2.8227,-2.8357,-2.8301,-2.8191,-2.8208,-2.7993,-2.7658,-2.7197,-2.7156,-2.7152,-2.7043,-2.7152,-2.7422,-2.7853,-2.8014,-2.8184,-2.8291,-2.7795,-2.7308,-2.6855,-2.6227,-2.5799,-2.5693,-2.5693,-2.5693,-2.5693,-2.5781,-2.5673,-2.5342,-2.5489,-2.5538,-2.5538,-2.5645,-2.5693,0.0,0.0,-2.1087,-2.2205,-2.3303,-2.4507,0.0,0.0,0.0,0.0,0.0,0.0,0.0,0.0,0.0,0.0,0.0,0.0,0.0,0.0,0.0,0.0,0.0,0.0,0.0,0.0,0.0,0.0,0.0,0.0,-3.1306,-3.135,-3.135,-3.1306,-3.0904,-3.0532,-3.0216,-2.9874,-2.9462,-2.9035,-2.8896,-2.8803,-2.8803,-2.8803,-2.8803,-2.8803,-2.8803,-2.8803,-2.8803,-2.8803,-2.9011,-2.9292,-2.9292,-2.9521,-2.9838,-2.9838,-2.9838,-2.9838,-2.9838,-2.9838,-2.9838,-2.9838,-2.9838,-2.9838,-2.9838,-2.9925,-3.0024,-3.0024,-3.045,-3.0898,-3.0898,-3.0874,-3.0637,-3.0093,-2.9057,-2.8043,-2.7443,-2.7448,-2.7592,-2.7721,-2.7725,-2.7797,-2.8025,-2.7698,-2.7331,-2.7229,-2.714,-2.7098,-2.7098,-2.7368,-2.7638,-2.796,-2.8184,-2.8291,-2.8291,-2.791,-2.7529,-2.7197,-2.6377,-2.5908,-2.5908,-2.5742,-2.5693,-2.5693,-2.5693,-2.5693,-2.5693,-2.5693,-2.5693,-2.5693,-2.5693,-2.5693,0.0,-1.8753,0.0,-2.1291,-2.2289,0.0,0.0,0.0,0.0,0.0,0.0,0.0,0.0,0.0,0.0,0.0,0.0,0.0,0.0,0.0,0.0,0.0,0.0,0.0,0.0,0.0,0.0,0.0,0.0,0.0,-3.1306,-3.1528,-3.1572,-3.1306,-3.1095,-3.0736,-3.0216,-2.9485,-2.9035,-2.8803,-2.8803,-2.8803,-2.8803,-2.8803,-2.8803,-2.8803,-2.8803,-2.8803,-2.8803,-2.8803,-2.8814,-2.8836,-2.8836,-2.8858,-2.8869,-2.8869,-2.8869,-2.8869,-2.8869,-2.8869,-2.8869,-2.8869,-2.8869,-2.8869,-2.8869,-2.9197,-2.9521,-2.9521,-3.0177,-3.0898,-3.0898,-3.0874,-3.0604,-2.9739,-2.8838,-2.7912,-2.6814,-2.6557,-2.6567,-2.6567,-2.6878,-2.7111,-2.6913,-2.7294,-2.7418,-2.6897,-2.7132,-2.7377,-2.7377,-2.7691,-2.796,-2.8237,-2.8291,-2.8291,-2.8291,-2.791,-2.7708,-2.7689,-2.6826,-2.6357,-2.6357,-2.5957,-2.5693,-2.5693,-2.5693,-2.5693,-2.5693,-2.5693,-2.5693,-2.5693,-2.5693,-2.5693,0.0,0.0,0.0,-2.0154,-2.114,-2.223,0.0,0.0,0.0,0.0,0.0,0.0,0.0,0.0,0.0,0.0,0.0,0.0,0.0,0.0,0.0,0.0,0.0,0.0,0.0,0.0,0.0,0.0,0.0,0.0,-3.1025,-3.1112,-3.1312,-3.156,-3.1196,-3.0703,-3.0011,-2.9405,-2.9082,-2.8989,-2.885,-2.8803,-2.8803,-2.8803,-2.8803,-2.8803,-2.8803,-2.8803,-2.8803,-2.8803,-2.8803,-2.8803,-2.8803,-2.8803,-2.8803,-2.8803,-2.8803,-2.8803,-2.8803,-2.8803,-2.8803,-2.8803,-2.8803,-2.8803,-2.8803,-2.8924,-2.9066,-2.9066,-2.9718,-3.0461,-3.0461,-3.0597,-3.0439,-2.9036,-2.8025,-2.7171,-2.6412,-2.6245,-2.6245,-2.6245,-2.6692,-2.7033,-2.693,-2.7153,-2.7314,-2.722,-2.7166,-2.726,-2.7691,-2.7853,-2.8014,-2.8291,-2.8291,-2.8291,-2.8291,-2.8323,-2.8094,-2.7523,-2.7197,-2.6774,-2.6222,-2.5859,-2.5693,-2.5693,-2.5693,-2.5693,-2.5693,-2.5693,-2.5693,-2.5693,-2.5693,-2.5693,-1.7101,0.0,0.0,0.0,0.0,0.0,0.0,0.0,0.0,0.0,0.0,0.0,0.0,0.0,0.0,0.0,0.0,0.0,0.0,0.0,0.0,0.0,0.0,0.0,0.0,0.0,0.0,0.0,0.0,0.0,-3.0615,-3.0783,-3.112,-3.156,-3.1018,-3.0516,-3.0011,-2.942,-2.91,-2.9082,-2.8943,-2.885,-2.8803,-2.8803,-2.8803,-2.8803,-2.8803,-2.8803,-2.8803,-2.8803,-2.8803,-2.8803,-2.8803,-2.8803,-2.8803,-2.8803,-2.8803,-2.8803,-2.8803,-2.8803,-2.8803,-2.8803,-2.8803,-2.8803,-2.8803,-2.8803,-2.8803,-2.8803,-2.9456,-3.0209,-3.0209,-3.0292,-2.9997,-2.8652,-2.7582,-2.6805,-2.6448,-2.6245,-2.614,-2.6201,-2.6675,-2.7061,-2.7097,-2.7255,-2.7419,-2.7384,-2.7314,-2.7476,-2.7853,-2.796,-2.8072,-2.8096,-2.8319,-2.8392,-2.8245,-2.8585,-2.8515,-2.782,-2.7631,-2.7172,-2.6348,-2.5995,-2.5781,-2.5693,-2.5693,-2.5693,-2.5693,-2.5693,-2.5693,-2.5693,-2.5693,-2.5693,0.0,0.0,0.0,0.0,0.0,0.0,0.0,0.0,0.0,0.0,0.0,0.0,0.0,0.0,0.0,0.0,0.0,0.0,0.0,0.0,0.0,0.0,0.0,0.0,0.0,0.0,0.0,0.0,0.0,-2.9809,-3.0062,-3.0567,-3.0997,-3.1235,-3.054,-3.0164,-3.0193,-2.9476,-2.9128,-2.9128,-2.9128,-2.8989,-2.8803,-2.8803,-2.8803,-2.8803,-2.8803,-2.8803,-2.8803,-2.8803,-2.8803,-2.8803,-2.8803,-2.8803,-2.8803,-2.8803,-2.8803,-2.8803,-2.8803,-2.8803,-2.8803,-2.8803,-2.8803,-2.8803,-2.8803,-2.8803,-2.8803,-2.8803,-2.9456,-3.0199,-3.0182,-2.9888,-2.9384,-2.8767,-2.7739,-2.6948,-2.69,-2.6506,-2.6201,-2.6408,-2.6728,-2.7036,-2.7193,-2.7617,-2.7799,-2.7485,-2.7691,-2.7906,-2.7906,-2.8174,-2.8168,-2.7757,-2.8292,-2.8519,-2.8145,-2.8693,-2.891,-2.8498,-2.8045,-2.7492,-2.6804,-2.6328,-2.5965,-2.5693,-2.5693,-2.5693,-2.5693,-2.5693,-2.5693,-2.5693,-2.5693,-2.5693,-1.8451,0.0,0.0,0.0,0.0,0.0,0.0,0.0,0.0,0.0,0.0,0.0,0.0,0.0,0.0,0.0,0.0,0.0,0.0,0.0,0.0,0.0,0.0,0.0,0.0,0.0,0.0,0.0,0.0,-2.9231,-2.952,-3.0013,-3.0289,-3.0134,-2.9808,-2.9726,-2.9931,-2.9394,-2.9274,-2.9657,-2.9266,-2.9082,-2.8989,-2.885,-2.8803,-2.8803,-2.8803,-2.8803,-2.8803,-2.8803,-2.8803,-2.8803,-2.8803,-2.8803,-2.8803,-2.8803,-2.8803,-2.8803,-2.8803,-2.8803,-2.8803,-2.8803,-2.8803,-2.8803,-2.8803,-2.8803,-2.8803,-2.8803,-2.9252,-2.9801,-3.029,-3.0065,-2.961,-2.9264,-2.8399,-2.7631,-2.7452,-2.7548,-2.7565,-2.7091,-2.7322,-2.7548,-2.7516,-2.8041,-2.8378,-2.8077,-2.8281,-2.8538,-2.8761,-2.8598,-2.8411,-2.8291,-2.8153,-2.8164,-2.8364,-2.841,-2.8401,-2.8269,-2.7693,-2.715,-2.66,-2.6083,-2.5781,-2.5693,-2.5693,-2.5693,-2.5693,-2.5693,-2.5693,-2.5693,-2.5693,-2.5693,-1.9042,-1.8926,-1.8802,0.0,0.0,0.0,0.0,0.0,0.0,0.0,0.0,0.0,0.0,0.0,0.0,0.0,0.0,0.0,0.0,0.0,0.0,0.0,0.0,0.0,0.0,0.0,0.0,0.0,-2.8683,-2.8901,-2.9292,-2.9593,-2.9815,-2.9863,-2.9438,-2.9357,-2.9616,-2.9224,-2.9224,-2.9568,-2.9498,-2.937,-2.9266,-2.9174,-2.9035,-2.8943,-2.8943,-2.8896,-2.8803,-2.8803,-2.8803,-2.8803,-2.8803,-2.8803,-2.8803,-2.8803,-2.8803,-2.8803,-2.8803,-2.8803,-2.8803,-2.8803,-2.8803,-2.8803,-2.8803,-2.8803,-2.8803,-2.8803,-2.9153,-2.9615,-3.0083,-2.9959,-2.9602,-2.9321,-2.878,-2.8269,-2.8081,-2.8455,-2.8608,-2.7947,-2.8136,-2.8421,-2.8398,-2.8846,-2.9132,-2.8857,-2.9069,-2.9219,-2.9132,-2.895,-2.8696,-2.8269,-2.8258,-2.8298,-2.8269,-2.8419,-2.8396,-2.8101,-2.7696,-2.7203,-2.6516,-2.6217,-2.5927,-2.5693,-2.5693,-2.5693,-2.5693,-2.5693,-2.5693,-2.5693,-2.5693,-2.5693,-1.9579,-1.9598,-1.9584,0.0,0.0,0.0,-1.9146,-1.8769,0.0,0.0,0.0,0.0,0.0,0.0,0.0,0.0,0.0,0.0,0.0,0.0,0.0,0.0,0.0,0.0,0.0,0.0,0.0,-2.8219,-2.8391,-2.8715,-2.9143,-2.9167,-2.9383,-2.9851,-2.9189,-2.8994,-2.9303,-2.9005,-2.895,-2.9159,-2.9579,-2.9726,-2.9531,-2.9531,-2.9347,-2.9128,-2.9128,-2.8989,-2.885,-2.8803,-2.8803,-2.8803,-2.8803,-2.8803,-2.8803,-2.8803,-2.8803,-2.8803,-2.8803,-2.8803,-2.8803,-2.8803,-2.8803,-2.8803,-2.885,-2.885,-2.885,-2.8896,-2.92,-2.9635,-2.9781,-2.972,-2.9536,-2.9298,-2.9001,-2.8771,-2.8771,-2.9211,-2.9406,-2.8898,-2.9088,-2.9434,-2.9589,-2.9849,-2.9881,-2.9589,-2.9818,-2.9839,-2.9351,-2.9278,-2.8946,-2.8105,-2.8551,-2.8624,-2.8053,-2.8561,-2.8613,-2.8042,-2.7872,-2.7482,-2.6613,-2.6544,-2.6265,-2.5732,-2.5742,-2.5693,-2.5693,-2.5693,-2.5693,-2.5693,-2.5693,-2.5693,-2.0318,-2.022,-2.0122,-1.9764,0.0,0.0,0.0,-1.8919,0.0,0.0,0.0,0.0,0.0,0.0,0.0,0.0,0.0,0.0,0.0,0.0,0.0,0.0,0.0,0.0,0.0,0.0,-2.8431,-2.8431,-2.8471,-2.8467,-2.8402,-2.8414,-2.8462,-2.8557,-2.8045,-2.8081,-2.8762,-2.8368,-2.8628,-2.9404,-2.9306,-2.9432,-2.9783,-2.9588,-2.9485,-2.9393,-2.9174,-2.9082,-2.9035,-2.885,-2.8803,-2.8803,-2.8803,-2.8803,-2.8803,-2.8803,-2.8803,-2.8803,-2.8803,-2.8803,-2.8803,-2.8803,-2.8803,-2.885,-2.8989,-2.9035,-2.9082,-2.9301,-2.9704,-3.0069,-3.0122,-3.0067,-3.0047,-3.0,-2.9658,-2.9347,-2.9347,-2.9738,-3.0022,-2.9921,-2.9953,-3.0087,-3.0187,-3.0163,-2.9977,-2.9679,-2.9917,-3.0033,-2.9936,-2.9466,-2.908,-2.8887,-2.8455,-2.8296,-2.8534,-2.8338,-2.8296,-2.8544,-2.7823,-2.7345,-2.7167,-2.6736,-2.6352,-2.6004,-2.583,-2.5693,-2.5693,-2.5693,-2.5693,-2.5693,-2.5693,-2.5693,-2.0845,-2.0836,-2.0864,-2.0683,0.0,0.0,0.0,0.0,0.0,0.0,0.0,0.0,0.0,0.0,0.0,0.0,0.0,0.0,0.0,0.0,0.0,0.0,0.0,0.0,0.0,0.0,-2.7821,-2.7729,-2.7678,-2.772,-2.7814,-2.7787,-2.7878,-2.807,-2.7829,-2.7813,-2.807,-2.8143,-2.8368,-2.8746,-2.8834,-2.9178,-2.9692,-2.9545,-2.9591,-2.9691,-2.9554,-2.9405,-2.9312,-2.9209,-2.8973,-2.8739,-2.889,-2.8943,-2.8989,-2.9128,-2.9163,-2.9163,-2.9163,-2.9163,-2.9163,-2.9163,-2.9163,-2.9163,-2.9255,-2.9405,-2.9554,-2.976,-3.0033,-3.018,-3.018,-3.0318,-3.0364,-3.0226,-3.0125,-3.0034,-2.9897,-3.026,-3.0576,-3.0576,-3.0591,-3.063,-3.0657,-3.0596,-3.0431,-3.0296,-3.0394,-3.0392,-3.0197,-2.9785,-2.9412,-2.9103,-2.8665,-2.8423,-2.8528,-2.8325,-2.8246,-2.8328,-2.7889,-2.7584,-2.7452,-2.7119,-2.6736,-2.6304,-2.6159,-2.612,-2.612,-2.5965,-2.582,-2.5693,-2.5693,-2.5693,0.0,0.0,0.0,0.0,0.0,-2.1001,0.0,0.0,0.0,-2.1114,0.0,0.0,0.0,0.0,0.0,0.0,0.0,0.0,0.0,0.0,0.0,0.0,0.0,0.0,0.0,0.0,-2.6736,-2.6503,-2.6574,-2.669,-2.688,-2.715,-2.7451,-2.7676,-2.7713,-2.7626,-2.7429,-2.7828,-2.8011,-2.7935,-2.841,-2.8881,-2.9387,-2.9443,-2.9584,-2.9783,-2.9738,-2.9579,-2.9387,-2.9296,-2.906,-2.8701,-2.8933,-2.8975,-2.8897,-2.9114,-2.9205,-2.9228,-2.9352,-2.9431,-2.9454,-2.9589,-2.9669,-2.9715,-2.9715,-2.9852,-2.9988,-3.0295,-3.0294,-3.0236,-3.034,-3.0487,-3.0623,-3.0408,-3.0487,-3.0532,-3.0306,-3.0606,-3.0812,-3.0777,-3.0777,-3.0833,-3.0895,-3.0847,-3.0791,-3.0791,-3.0791,-3.0633,-3.024,-3.0019,-2.9733,-2.9218,-2.8989,-2.8757,-2.8488,-2.8488,-2.8384,-2.8186,-2.8092,-2.7998,-2.7773,-2.7499,-2.7167,-2.6736,-2.664,-2.6592,-2.6592,-2.6294,-2.6062,-2.5781,-2.5732,-2.5693,0.0,0.0,0.0,0.0,-2.1752,0.0,0.0,0.0,-2.0681,-2.091,0.0,0.0,0.0,0.0,0.0,0.0,0.0,0.0,0.0,0.0,0.0,0.0,0.0,0.0,0.0,0.0,0.0,-2.5048,-2.5428,-2.5469,-2.5013,-2.6353,-2.7062,-2.6911,-2.699,-2.7085,-2.7226,-2.7101,-2.7269,-2.7648,-2.8107,-2.8588,-2.9051,-2.9301,-2.9433,-2.9437,-2.9198,-2.9089,-2.9002,-2.8612,-2.8502,-2.8633,-2.869,-2.8489,-2.8131,-2.8175,-2.8175,-2.8275,-2.8913,-2.9149,-2.9262,-2.9886,-3.0261,-3.0487,-3.0487,-3.032,-3.0252,-3.0765,-3.0554,-3.0308,-3.0765,-3.0927,-3.0927,-3.0927,-3.0724,-3.0578,-3.0578,-3.0398,-3.0228,-3.0068,-3.0022,-3.0227,-3.0868,-3.0606,-3.0297,-3.0297,-3.0297,-3.0274,-3.0217,-3.0011,-2.9816,-2.9497,-2.922,-2.8989,-2.8757,-2.8757,-2.8757,-2.871,-2.8477,-2.8348,-2.8301,-2.7831,-2.7536,-2.7499,-2.7051,-2.686,-2.686,-2.6592,-2.6304,-2.6052,-2.583,-2.5693,0.0,0.0,0.0,0.0,0.0,0.0,0.0,0.0,-2.135,0.0,0.0,0.0,0.0,0.0,0.0,0.0,0.0,0.0,0.0,0.0,0.0,0.0,0.0,0.0,0.0,0.0,0.0,0.0,0.0,-2.3848,-2.4319,-2.5213,-2.5925,-2.6376,-2.6405,-2.6574,-2.6828,-2.6891,-2.7065,-2.7371,-2.7818,-2.8386,-2.8951,-2.916,-2.9451,-2.9737,-2.964,-2.9598,-2.9555,-2.9258,-2.8966,-2.8764,-2.8676,-2.86,-2.8594,-2.8735,-2.8789,-2.8902,-2.9528,-2.9746,-2.9839,-3.0483,-3.0736,-3.0871,-3.0994,-3.0717,-3.0521,-3.1219,-3.1037,-3.0751,-3.1276,-3.1407,-3.1362,-3.1229,-3.1005,-3.0781,-3.0623,-3.0318,-3.0011,-2.9931,-2.9783,-2.9759,-3.01,-3.0056,-3.0045,-3.017,-3.0216,-3.0216,-3.0216,-3.0011,-2.984,-2.9737,-2.9359,-2.9082,-2.8989,-2.885,-2.8803,-2.8803,-2.871,-2.8581,-2.8395,-2.816,-2.8008,-2.7857,-2.762,-2.7515,-2.7515,-2.7251,-2.7013,-2.6774,-2.6197,-2.5868,-2.5223,0.0,0.0,0.0,0.0,0.0,0.0,0.0,0.0,0.0,0.0,0.0,0.0,0.0,0.0,0.0,0.0,0.0,0.0,0.0,0.0,0.0,0.0,0.0,0.0,0.0,0.0,0.0,0.0,0.0,-2.2823,-2.3778,-2.4629,-2.5413,-2.5825,-2.617,-2.6472,-2.6741,-2.6935,-2.7059,-2.7758,-2.8281,-2.8657,-2.8991,-2.9378,-2.9741,-2.9741,-2.9741,-2.9741,-2.9475,-2.9177,-2.8872,-2.8574,-2.8645,-2.8848,-2.8967,-2.8967,-2.9103,-2.9816,-3.0316,-3.0699,-3.1078,-3.1196,-3.1196,-3.1261,-3.0937,-3.0628,-3.1372,-3.1189,-3.0956,-3.1529,-3.1705,-3.1661,-3.1439,-3.1184,-3.0927,-3.0769,-3.0284,-2.9886,-2.9794,-2.9588,-2.9393,-2.9393,-2.9691,-2.9931,-3.0091,-3.017,-3.0216,-3.0216,-3.0045,-2.9977,-2.9886,-2.9554,-2.9266,-2.922,-2.8989,-2.885,-2.8803,-2.8803,-2.871,-2.8535,-2.8488,-2.843,-2.8233,-2.8139,-2.8092,-2.8092,-2.7867,-2.7584,-2.7357,-2.6668,-2.6149,0.0,0.0,0.0,-2.5585,0.0,0.0,0.0,0.0,-2.2184,0.0,0.0,0.0,0.0,0.0,-2.1546,-2.0241,0.0,0.0,0.0,0.0,0.0,0.0,0.0,0.0,0.0,0.0,0.0,0.0,0.0,0.0,-1.9829,-2.1961,-2.3361,-2.3746,-2.5095,-2.5902,-2.6132,-2.6642,-2.6845,-2.6751,-2.7901,-2.8313,-2.8062,-2.8753,-2.9128,-2.914,-2.914,-2.914,-2.9101,-2.8718,-2.8654,-2.8736,-2.8351,-2.8335,-2.8479,-2.8089,-2.794,-2.8133,-2.9367,-3.0623,-3.1637,-3.1661,-3.1661,-3.1617,-3.1395,-3.0937,-3.0585,-3.1151,-3.0925,-3.0696,-3.1484,-3.1705,-3.1705,-3.1705,-3.133,-3.0984,-3.0984,-3.0432,-2.984,-2.9542,-2.9301,-2.9128,-2.9128,-2.9554,-2.9886,-2.9886,-3.0091,-3.0216,-3.0216,-3.017,-3.0136,-2.9931,-2.9886,-2.9794,-2.9485,-2.9255,-2.8989,-2.8803,-2.8803,-2.8803,-2.8803,-2.8803,-2.8803,-2.8757,-2.8535,-2.8395,-2.8395,-2.8139,-2.7857,-2.7584,-2.7098,-2.6572,0.0,0.0,-2.7295,-2.6803,0.0,0.0,0.0,0.0,0.0,0.0,0.0,0.0,0.0,0.0,-2.18,-2.0345,-1.9924,0.0,0.0,0.0,0.0,0.0,0.0,0.0,0.0,0.0,0.0,0.0,0.0,0.0,0.0,-2.1398,-2.261,-2.4117,-2.486,-2.5501,-2.6098,-2.6531,-2.689,-2.7085,-2.7601,-2.8033,-2.8421,-2.8772,-2.9185,-2.9546,-2.9546,-2.9546,-2.9546,-2.9104,-2.8934,-2.8973,-2.8538,-2.8431,-2.8471,-2.8363,-2.8323,-2.8466,-2.96,-3.074,-3.1705,-3.1705,-3.1705,-3.1661,-3.1395,-3.0937,-3.0585,-3.1151,-3.0925,-3.0696,-3.1484,-3.1705,-3.1705,-3.1705,-3.133,-3.0984,-3.0984,-3.0284,-2.9588,-2.9531,-2.9163,-2.8896,-2.8896,-2.9174,-2.9508,-2.984,-3.0045,-3.0216,-3.0216,-3.0216,-3.017,-3.0091,-2.9977,-2.984,-2.9783,-2.9359,-2.8989,-2.8803,-2.8803,-2.8803,-2.8803,-2.8803,-2.8803,-2.8803,-2.871,-2.8664,-2.8664,-2.871,-2.8606,-2.8384,-2.8373,-2.7762,-3.0834,-3.0068,0.0,0.0,-2.7598,0.0,-2.613,0.0,0.0,0.0,0.0,0.0,0.0,0.0,-2.2095,-2.0598,-2.0128,-1.9437,0.0,0.0,0.0,0.0,0.0,0.0,0.0,0.0,-1.7008,-1.7266,0.0,0.0,0.0,0.0,-2.1212,-2.2669,-2.3699,-2.4607,-2.5436,-2.6073,-2.6594,-2.7066,-2.7433,-2.778,-2.8163,-2.8675,-2.9101,-2.9503,-2.9704,-2.9792,-2.9753,-2.93,-2.9091,-2.9052,-2.8669,-2.851,-2.851,-2.851,-2.8631,-2.8883,-2.9569,-3.0494,-3.1428,-3.1428,-3.156,-3.1661,-3.135,-3.0947,-3.0658,-3.1,-3.0891,-3.0846,-3.1533,-3.1705,-3.1657,-3.1476,-3.1077,-3.0687,-3.0455,-2.9643,-2.8959,-2.8959,-2.8597,-2.8289,-2.8289,-2.8615,-2.9066,-2.9669,-2.9966,-3.0136,-3.017,-3.0216,-3.0216,-3.0216,-3.0091,-2.9852,-2.9557,-2.9205,-2.8796,-2.83,-2.8289,-2.8289,-2.8289,-2.8346,-2.8391,-2.8391,-2.8556,-2.8655,-2.8655,-2.8958,-2.9035,-2.8896,-2.9128,-2.8699]},{"header":{"parameterUnit":"m.s-1","parameterCategory":1,"la1":30.6,"la2":29.2853,"lo1":-89.7004,"lo2":-87.6739,"dy":0.0162,"dx":0.0183,"nx":112,"ny":82,"refTime":"2024-06-24T12:00:00:Z","depth":0,"parameterNumber":3,"parameterNumberName":"V-component_of_WINDS"},"data":[0.0,0.0,0.0,0.0,0.0,0.0,0.0,0.0,0.0,0.0,0.0,0.0,0.0,0.0,0.0,0.0,0.0,0.0,0.0,0.0,0.0,0.0,0.0,0.0,0.0,0.0,0.0,0.0,0.0,0.0,0.0,0.0,0.0,0.0,0.0,0.0,0.0,0.0,0.0,0.0,0.0,0.0,0.0,0.0,0.0,0.0,0.0,0.0,0.0,0.0,0.0,0.0,0.0,0.0,0.0,0.0,0.0,0.0,0.0,0.0,0.0,0.0,0.0,0.0,0.0,0.0,0.0,0.0,0.0,0.0,0.0,0.0,0.0,0.0,0.0,0.0,0.0,0.0,0.0,0.0,0.0,0.0,0.0,0.0,0.0,0.0,0.0,0.0,0.0,0.0,0.0,-2.2699,-2.667,-2.9339,-3.0005,-2.8715,-2.7215,-2.5669,0.0,0.0,0.0,0.0,0.0,0.0,0.0,0.0,0.0,0.0,0.0,0.0,0.0,0.0,0.0,0.0,0.0,0.0,0.0,0.0,0.0,0.0,0.0,0.0,0.0,0.0,0.0,0.0,0.0,0.0,0.0,0.0,0.0,0.0,0.0,0.0,0.0,0.0,0.0,0.0,0.0,0.0,0.0,0.0,0.0,0.0,0.0,0.0,0.0,0.0,0.0,0.0,0.0,0.0,0.0,0.0,0.0,0.0,0.0,0.0,0.0,0.0,0.0,0.0,0.0,0.0,0.0,0.0,0.0,0.0,0.0,0.0,0.0,0.0,0.0,0.0,0.0,0.0,0.0,0.0,0.0,0.0,0.0,0.0,0.0,0.0,0.0,0.0,0.0,0.0,0.0,0.0,0.0,0.0,0.0,0.0,0.0,0.0,0.0,0.0,0.0,0.0,0.0,0.0,-2.2405,-2.7245,-2.9557,-3.101,-3.169,-3.0382,-2.8877,-2.7325,0.0,0.0,0.0,0.0,0.0,0.0,0.0,0.0,0.0,0.0,0.0,0.0,0.0,0.0,0.0,0.0,0.0,0.0,0.0,0.0,0.0,0.0,0.0,0.0,0.0,0.0,0.0,0.0,0.0,0.0,0.0,0.0,0.0,0.0,0.0,0.0,0.0,0.0,0.0,0.0,0.0,0.0,0.0,0.0,0.0,0.0,0.0,0.0,0.0,0.0,0.0,0.0,0.0,0.0,0.0,0.0,0.0,0.0,0.0,0.0,0.0,0.0,0.0,0.0,0.0,0.0,0.0,0.0,0.0,0.0,0.0,0.0,0.0,0.0,0.0,0.0,0.0,0.0,0.0,0.0,0.0,0.0,0.0,0.0,0.0,0.0,0.0,0.0,0.0,0.0,0.0,0.0,0.0,0.0,0.0,0.0,0.0,0.0,0.0,0.0,0.0,0.0,0.0,-2.2547,-2.5548,-2.9111,-3.0882,-3.1899,-3.2126,-3.0832,-2.9325,-2.7689,-2.4116,0.0,0.0,0.0,0.0,0.0,0.0,0.0,0.0,0.0,0.0,0.0,0.0,0.0,0.0,0.0,0.0,0.0,0.0,0.0,0.0,0.0,0.0,0.0,0.0,0.0,0.0,0.0,0.0,0.0,0.0,0.0,0.0,0.0,0.0,0.0,0.0,0.0,0.0,0.0,0.0,0.0,0.0,0.0,0.0,0.0,0.0,0.0,0.0,0.0,0.0,0.0,0.0,0.0,0.0,0.0,0.0,0.0,0.0,0.0,0.0,0.0,0.0,0.0,0.0,0.0,0.0,0.0,0.0,0.0,0.0,0.0,0.0,0.0,0.0,0.0,0.0,0.0,0.0,0.0,0.0,0.0,0.0,0.0,0.0,0.0,0.0,0.0,0.0,0.0,0.0,0.0,0.0,0.0,0.0,0.0,0.0,0.0,0.0,0.0,0.0,0.0,0.0,-2.5441,-2.8088,-3.0125,-3.1722,-3.2529,-3.2267,-3.1092,-2.9565,-2.7767,-2.4848,0.0,0.0,0.0,0.0,0.0,0.0,0.0,0.0,0.0,0.0,0.0,0.0,0.0,0.0,0.0,0.0,0.0,0.0,0.0,0.0,0.0,0.0,0.0,0.0,0.0,0.0,0.0,0.0,0.0,0.0,0.0,0.0,0.0,0.0,0.0,0.0,0.0,0.0,0.0,0.0,0.0,0.0,0.0,0.0,0.0,0.0,0.0,0.0,0.0,0.0,0.0,0.0,0.0,0.0,0.0,0.0,0.0,0.0,0.0,0.0,0.0,0.0,0.0,0.0,0.0,0.0,0.0,0.0,0.0,0.0,0.0,0.0,0.0,0.0,0.0,0.0,0.0,0.0,0.0,0.0,0.0,0.0,0.0,0.0,0.0,0.0,0.0,0.0,0.0,0.0,0.0,0.0,0.0,0.0,0.0,0.0,0.0,0.0,0.0,0.0,0.0,0.0,-2.6884,-2.9339,-3.0867,-3.2406,-3.3072,-3.2441,-3.1616,-3.0173,-2.793,-2.4901,0.0,0.0,0.0,0.0,0.0,0.0,0.0,0.0,0.0,0.0,0.0,0.0,0.0,0.0,0.0,0.0,0.0,0.0,0.0,0.0,0.0,0.0,0.0,0.0,0.0,0.0,0.0,0.0,0.0,0.0,0.0,0.0,0.0,0.0,0.0,0.0,0.0,0.0,0.0,0.0,0.0,0.0,0.0,0.0,0.0,0.0,0.0,0.0,0.0,0.0,0.0,0.0,0.0,0.0,0.0,0.0,0.0,0.0,0.0,0.0,0.0,0.0,0.0,0.0,0.0,0.0,0.0,0.0,0.0,0.0,0.0,0.0,0.0,0.0,0.0,0.0,0.0,0.0,0.0,0.0,0.0,0.0,0.0,0.0,0.0,0.0,0.0,0.0,0.0,0.0,0.0,0.0,0.0,0.0,0.0,0.0,0.0,0.0,0.0,0.0,0.0,0.0,-2.7312,-2.9624,0.0,-3.2649,-3.3382,-3.3627,-3.2529,-3.0847,-2.8579,0.0,0.0,0.0,0.0,0.0,0.0,0.0,0.0,0.0,0.0,0.0,0.0,0.0,0.0,0.0,0.0,0.0,0.0,0.0,0.0,0.0,0.0,0.0,0.0,0.0,0.0,0.0,0.0,0.0,0.0,0.0,0.0,0.0,0.0,0.0,0.0,0.0,0.0,0.0,0.0,0.0,0.0,0.0,0.0,0.0,0.0,0.0,0.0,0.0,0.0,0.0,0.0,0.0,0.0,0.0,0.0,0.0,0.0,0.0,0.0,0.0,0.0,0.0,0.0,0.0,0.0,0.0,0.0,0.0,0.0,0.0,0.0,0.0,0.0,0.0,0.0,0.0,0.0,0.0,0.0,0.0,0.0,0.0,0.0,0.0,0.0,0.0,0.0,0.0,0.0,0.0,0.0,0.0,0.0,0.0,0.0,0.0,0.0,0.0,0.0,0.0,0.0,-2.5327,-2.7962,-3.0243,0.0,-3.3305,-3.4036,-3.4366,-3.3276,-3.1602,-2.9323,0.0,0.0,0.0,0.0,0.0,0.0,0.0,0.0,0.0,0.0,0.0,0.0,0.0,0.0,0.0,0.0,0.0,0.0,0.0,0.0,0.0,0.0,0.0,0.0,0.0,0.0,0.0,0.0,0.0,0.0,0.0,0.0,0.0,0.0,0.0,0.0,0.0,0.0,0.0,0.0,0.0,0.0,0.0,0.0,0.0,0.0,0.0,0.0,0.0,0.0,0.0,0.0,0.0,0.0,0.0,0.0,0.0,0.0,0.0,0.0,0.0,0.0,0.0,0.0,0.0,0.0,0.0,0.0,0.0,0.0,0.0,0.0,0.0,0.0,0.0,0.0,0.0,0.0,0.0,0.0,0.0,0.0,0.0,0.0,0.0,0.0,0.0,0.0,0.0,0.0,0.0,0.0,0.0,0.0,0.0,0.0,0.0,0.0,0.0,0.0,0.0,0.0,-2.6025,-2.8981,-3.1391,-3.2934,-3.4476,-3.5122,-3.4471,-3.3799,-3.2441,0.0,0.0,0.0,0.0,0.0,0.0,0.0,0.0,0.0,0.0,0.0,0.0,0.0,0.0,0.0,0.0,0.0,0.0,0.0,0.0,0.0,0.0,0.0,0.0,0.0,0.0,0.0,0.0,0.0,0.0,0.0,0.0,0.0,0.0,0.0,0.0,0.0,0.0,0.0,0.0,0.0,0.0,0.0,0.0,0.0,0.0,0.0,0.0,0.0,0.0,0.0,0.0,0.0,0.0,0.0,0.0,0.0,0.0,0.0,0.0,0.0,0.0,0.0,0.0,0.0,0.0,0.0,0.0,0.0,0.0,0.0,0.0,0.0,0.0,0.0,0.0,0.0,0.0,0.0,0.0,0.0,0.0,0.0,0.0,0.0,0.0,0.0,0.0,0.0,0.0,0.0,0.0,0.0,0.0,0.0,0.0,0.0,0.0,0.0,0.0,0.0,0.0,0.0,-2.6787,-2.9328,-3.1563,-3.3582,-3.4688,-3.5379,-3.5711,-3.4651,-3.3255,-3.1585,0.0,0.0,0.0,0.0,0.0,0.0,0.0,0.0,0.0,0.0,0.0,0.0,0.0,0.0,0.0,0.0,0.0,0.0,0.0,0.0,0.0,0.0,0.0,0.0,0.0,0.0,0.0,0.0,0.0,0.0,0.0,0.0,0.0,0.0,0.0,0.0,0.0,0.0,0.0,0.0,0.0,0.0,0.0,0.0,0.0,0.0,0.0,0.0,0.0,0.0,0.0,0.0,0.0,0.0,0.0,0.0,0.0,0.0,0.0,0.0,0.0,0.0,0.0,0.0,0.0,0.0,0.0,0.0,0.0,0.0,0.0,0.0,0.0,0.0,0.0,0.0,0.0,0.0,0.0,0.0,0.0,0.0,0.0,0.0,0.0,0.0,0.0,0.0,0.0,0.0,0.0,0.0,0.0,0.0,0.0,0.0,0.0,0.0,0.0,0.0,0.0,0.0,-2.7046,-2.9677,-3.1923,-3.383,-3.4987,-3.5818,-3.6266,-3.5281,-3.4048,-3.263,0.0,0.0,0.0,0.0,0.0,0.0,0.0,0.0,0.0,0.0,0.0,0.0,0.0,0.0,0.0,0.0,0.0,0.0,0.0,0.0,0.0,0.0,0.0,0.0,0.0,0.0,0.0,0.0,0.0,0.0,0.0,0.0,0.0,0.0,0.0,0.0,0.0,0.0,0.0,0.0,0.0,0.0,0.0,0.0,0.0,0.0,0.0,0.0,0.0,0.0,0.0,0.0,0.0,0.0,0.0,0.0,0.0,0.0,0.0,0.0,0.0,0.0,0.0,0.0,0.0,0.0,0.0,0.0,0.0,0.0,0.0,0.0,0.0,0.0,0.0,0.0,0.0,0.0,0.0,0.0,0.0,0.0,0.0,0.0,0.0,0.0,0.0,0.0,0.0,0.0,0.0,0.0,0.0,0.0,0.0,0.0,0.0,0.0,0.0,0.0,0.0,0.0,-2.7153,-3.0076,-3.2433,-3.3848,-3.5356,-3.628,-3.628,-3.5676,-3.4755,-3.3478,0.0,0.0,0.0,0.0,0.0,0.0,0.0,0.0,0.0,0.0,0.0,0.0,0.0,0.0,0.0,0.0,0.0,0.0,0.0,0.0,0.0,0.0,0.0,0.0,0.0,0.0,0.0,0.0,0.0,0.0,0.0,0.0,0.0,0.0,0.0,0.0,0.0,0.0,0.0,0.0,0.0,0.0,0.0,0.0,0.0,0.0,0.0,0.0,0.0,0.0,0.0,0.0,0.0,0.0,0.0,0.0,0.0,0.0,0.0,0.0,-1.9608,0.0,0.0,0.0,0.0,0.0,0.0,0.0,0.0,0.0,0.0,0.0,0.0,0.0,0.0,0.0,0.0,0.0,0.0,0.0,0.0,0.0,0.0,0.0,0.0,0.0,0.0,0.0,0.0,0.0,0.0,0.0,0.0,0.0,0.0,0.0,0.0,0.0,0.0,0.0,0.0,0.0,-2.8744,-3.1125,-3.3127,-3.4535,-3.5595,-3.6208,-3.6208,-3.5608,-3.5123,-3.4876,0.0,0.0,0.0,0.0,0.0,0.0,0.0,0.0,0.0,0.0,0.0,0.0,0.0,0.0,0.0,0.0,0.0,0.0,0.0,0.0,0.0,0.0,0.0,0.0,0.0,0.0,0.0,0.0,0.0,0.0,0.0,0.0,0.0,0.0,0.0,0.0,0.0,0.0,0.0,0.0,0.0,0.0,0.0,0.0,0.0,0.0,0.0,0.0,0.0,0.0,0.0,0.0,0.0,0.0,0.0,0.0,0.0,0.0,0.0,0.0,0.0,-2.1275,0.0,0.0,0.0,0.0,0.0,0.0,0.0,0.0,0.0,0.0,0.0,0.0,0.0,0.0,0.0,0.0,0.0,0.0,0.0,0.0,0.0,0.0,0.0,0.0,0.0,0.0,0.0,0.0,0.0,0.0,0.0,0.0,0.0,0.0,0.0,0.0,0.0,0.0,0.0,0.0,-2.9008,-3.1321,-3.3348,-3.5057,-3.6122,-3.6874,-3.7229,-3.6995,-3.6571,-3.591,-3.4058,0.0,0.0,0.0,0.0,0.0,0.0,0.0,0.0,0.0,0.0,0.0,0.0,0.0,0.0,0.0,0.0,0.0,0.0,0.0,0.0,0.0,0.0,0.0,0.0,0.0,0.0,0.0,0.0,0.0,0.0,0.0,0.0,0.0,0.0,0.0,0.0,0.0,0.0,0.0,0.0,0.0,0.0,0.0,0.0,0.0,0.0,0.0,0.0,0.0,0.0,0.0,0.0,0.0,0.0,-2.8507,-2.978,-2.9666,-2.9664,-2.957,-2.6499,-2.5572,-2.6085,0.0,0.0,0.0,0.0,0.0,0.0,0.0,0.0,0.0,0.0,0.0,0.0,0.0,0.0,0.0,0.0,0.0,0.0,0.0,0.0,0.0,0.0,0.0,0.0,0.0,-2.4272,-2.4841,0.0,0.0,0.0,0.0,0.0,0.0,0.0,0.0,0.0,0.0,0.0,0.0,-2.9361,-3.1694,-3.3794,-3.5583,-3.6763,-3.7682,-3.8317,-3.8504,-3.8052,-3.6776,-3.5904,-3.4906,0.0,0.0,0.0,0.0,0.0,0.0,0.0,0.0,0.0,0.0,0.0,0.0,0.0,0.0,0.0,0.0,0.0,0.0,0.0,0.0,0.0,0.0,0.0,0.0,0.0,0.0,0.0,0.0,0.0,0.0,0.0,0.0,-1.7523,-1.9309,0.0,0.0,0.0,0.0,0.0,0.0,0.0,0.0,0.0,0.0,0.0,0.0,0.0,0.0,-3.0127,-3.1707,-3.1765,-3.0378,-3.1092,-3.1782,-3.2488,-3.2466,-3.2525,-3.2563,-3.1473,0.0,-2.7588,-2.8031,0.0,0.0,0.0,0.0,0.0,0.0,0.0,0.0,0.0,0.0,0.0,0.0,0.0,0.0,0.0,0.0,0.0,0.0,0.0,0.0,0.0,0.0,-2.5681,-2.7336,-2.8392,-2.9097,0.0,-2.7858,-2.653,-2.7141,0.0,0.0,0.0,0.0,0.0,0.0,0.0,0.0,-3.1786,-3.3876,-3.5532,-3.6363,-3.7339,-3.7984,-3.8213,-3.8442,-3.8254,-3.7431,-3.6615,-3.5804,-3.4979,-3.2752,0.0,0.0,0.0,0.0,0.0,0.0,0.0,0.0,0.0,0.0,0.0,0.0,0.0,0.0,0.0,0.0,0.0,0.0,0.0,0.0,0.0,0.0,0.0,0.0,0.0,0.0,0.0,0.0,0.0,-1.7163,-1.9397,-2.058,-2.0708,-2.0261,0.0,0.0,0.0,0.0,0.0,0.0,0.0,0.0,0.0,-2.9103,-3.232,-3.3866,-3.3549,-3.3333,-3.324,-3.3245,-3.3534,-3.4022,-3.4708,-3.5124,-3.5425,-3.5545,-3.4348,-3.3215,-3.2084,-3.0806,-2.9559,-2.8373,0.0,0.0,0.0,0.0,0.0,-2.3558,-2.4093,0.0,0.0,0.0,0.0,0.0,0.0,0.0,0.0,0.0,0.0,0.0,0.0,0.0,0.0,-2.9337,-3.0551,-3.1582,-3.233,-3.1984,-3.1147,0.0,-2.9616,-2.9539,-2.9471,0.0,0.0,0.0,0.0,0.0,-3.3258,-3.4732,-3.6156,-3.7573,-3.8367,-3.8986,-3.9443,-3.9731,-3.9566,-3.8784,-3.8008,-3.7249,-3.6529,-3.4697,-3.3241,0.0,0.0,0.0,0.0,0.0,0.0,0.0,0.0,0.0,0.0,0.0,0.0,0.0,0.0,0.0,0.0,0.0,0.0,0.0,0.0,0.0,0.0,0.0,0.0,0.0,0.0,0.0,0.0,-1.9335,-2.1231,-2.2389,-2.3223,-2.3298,0.0,0.0,0.0,0.0,0.0,0.0,-2.6353,-2.8502,-3.0903,-3.3457,-3.4454,-3.5115,-3.5462,-3.4601,-3.4667,-3.5628,-3.5512,-3.5744,-3.6307,-3.6854,-3.7253,-3.7442,-3.6296,-3.5927,-3.5926,-3.3368,-3.2127,-3.1783,-3.1091,-2.9837,-2.8442,-2.8612,-2.8491,-2.8352,-2.888,-2.9408,-2.98,-2.9642,0.0,-2.7703,-2.6641,0.0,0.0,0.0,0.0,-2.5346,-2.8054,0.0,-3.0419,-3.1851,-3.2878,-3.3789,-3.4717,-3.5286,-3.4955,0.0,-3.2277,-3.2188,-3.1822,0.0,0.0,0.0,0.0,-3.3307,-3.4712,-3.579,-3.6986,-3.8497,-3.9231,-3.9863,-4.0458,-4.0752,-4.048,-3.9474,-3.8888,-3.8185,-3.7215,-3.5904,-3.4676,-3.3532,0.0,0.0,0.0,0.0,0.0,0.0,0.0,0.0,0.0,0.0,0.0,0.0,0.0,0.0,0.0,0.0,0.0,0.0,0.0,0.0,0.0,0.0,0.0,0.0,0.0,0.0,0.0,0.0,0.0,-2.589,-2.7293,0.0,0.0,0.0,0.0,-2.7977,-2.7991,-2.8888,-3.1048,-3.1191,-3.2134,-3.4185,-3.4054,-3.4931,-3.697,-3.6514,-3.6729,-3.7649,-3.7201,-3.7019,-3.7052,-3.7085,-3.7253,-3.7509,-3.7425,-3.7465,-3.7485,-3.5993,-3.4578,-3.3528,-3.4929,-3.4155,-3.2397,-3.2958,-3.269,-3.2134,-3.2791,-3.2937,-3.289,-3.2868,-3.1328,-2.9459,-2.9412,-2.7771,0.0,0.0,-2.8044,-2.9599,-3.1857,-3.3514,-3.4932,-3.6423,-3.629,-3.6241,-3.7682,-3.7466,-3.6804,0.0,-3.5425,-3.5195,-3.587,0.0,-3.529,-3.5161,-3.5983,-3.6593,-3.6498,-3.7747,-3.8689,-3.8773,-3.9664,-4.0328,-4.0485,-4.0752,-4.0273,-3.8732,-3.8612,-3.7922,-3.6422,-3.5611,-3.4935,-3.4349,-3.2838,0.0,0.0,0.0,0.0,0.0,0.0,0.0,0.0,0.0,0.0,0.0,0.0,0.0,0.0,0.0,0.0,0.0,0.0,0.0,0.0,0.0,0.0,0.0,0.0,0.0,0.0,0.0,0.0,-2.6594,-2.834,0.0,0.0,-2.9871,-3.0562,-3.137,-3.2651,-3.3768,-3.467,-3.5082,-3.562,-3.6333,-3.6273,-3.6573,-3.7361,-3.7561,-3.7868,-3.8201,-3.8894,-3.9206,-3.9206,-3.9206,-3.9312,-3.948,-3.8937,-3.8814,-3.8975,-3.8916,-3.7823,-3.6241,-3.6804,-3.6672,-3.6168,-3.6378,-3.6288,-3.6056,-3.6214,-3.5863,-3.5261,-3.4689,-3.3617,-3.2469,-3.2005,-3.1282,-3.079,-3.1525,-3.2379,-3.3478,-3.5207,-3.5983,-3.6456,-3.6986,-3.7268,-3.7698,-3.8676,-3.9056,-3.9325,-3.9658,-3.8761,-3.7978,-3.8244,-3.7936,-3.7636,-3.7588,-3.757,-3.7669,-3.799,-3.8544,-3.91,-3.9581,-4.0118,-4.0485,-4.0624,-4.0311,-3.9888,-3.9336,-3.8427,-3.7668,-3.7077,-3.5897,-3.4995,-3.4401,-3.3432,-3.2109,0.0,0.0,0.0,0.0,0.0,0.0,0.0,0.0,0.0,0.0,0.0,0.0,0.0,0.0,0.0,0.0,0.0,0.0,0.0,0.0,0.0,0.0,0.0,0.0,0.0,0.0,-2.6752,-2.8063,-3.028,-3.1633,-3.1504,-3.2779,-3.3845,-3.438,-3.5745,-3.6627,-3.6755,-3.7184,-3.7476,-3.7565,-3.7768,-3.8019,-3.8313,-3.8855,-3.9278,-3.9528,-4.0348,-4.0641,-4.0409,-4.0409,-4.0331,-4.0217,-3.9924,-3.9877,-4.0067,-4.0758,-4.0287,-3.9118,-3.9169,-3.9048,-3.885,-3.885,-3.8567,-3.8182,-3.8296,-3.8091,-3.7634,-3.6804,-3.6202,-3.5618,-3.488,-3.4622,-3.4678,-3.518,-3.5596,-3.6193,-3.7361,-3.7619,-3.765,-3.8122,-3.8593,-3.9206,-4.0166,-4.0818,-4.1438,-4.2282,-4.1145,-4.002,-3.9824,-3.9835,-3.9773,-3.9521,-3.9219,-3.9141,-3.9573,-3.9479,-3.9571,-4.0045,-4.032,-4.0534,-4.0607,-4.0053,-3.9577,-3.9336,-3.8185,-3.7392,-3.7116,-3.6156,-3.5255,-3.4418,-3.328,-3.2091,-3.0823,0.0,0.0,0.0,0.0,0.0,0.0,0.0,0.0,0.0,0.0,0.0,0.0,0.0,0.0,0.0,0.0,0.0,0.0,0.0,0.0,0.0,0.0,0.0,-2.4564,-2.7148,-2.9343,-3.0592,-3.3256,-3.498,-3.4894,-3.6183,-3.7068,-3.711,-3.7176,-3.731,-3.7428,-3.7453,-3.7577,-3.7829,-3.8413,-3.9135,-3.9977,-4.0454,-4.1055,-4.1744,-4.1576,-4.1127,-4.0509,-4.0459,-4.0099,-3.9601,-4.0317,-4.0606,-4.0673,-4.1438,-4.1822,-4.1971,-4.2068,-4.1388,-4.0373,-4.0373,-3.9552,-3.8521,-3.9112,-3.9687,-4.0062,-3.9351,-3.8982,-3.8697,-3.7982,-3.7674,-3.7542,-3.7576,-3.7593,-3.7752,-3.8353,-3.8511,-3.8826,-4.0121,-4.0442,-4.0823,-4.222,-4.2667,-4.3077,-4.3781,-4.265,-4.1382,-4.0833,-4.142,-4.1737,-4.1033,-4.1139,0.0,-4.1322,-4.0663,-4.0231,-4.0214,-4.0464,-4.0595,-4.0578,-4.0075,-3.9457,-3.8732,-3.7996,-3.7236,-3.6439,-3.6353,-3.5766,-3.4488,-3.2494,-3.1066,-3.0291,0.0,0.0,0.0,0.0,0.0,0.0,0.0,0.0,0.0,0.0,0.0,0.0,0.0,0.0,0.0,0.0,0.0,0.0,0.0,0.0,0.0,0.0,-2.6168,-2.6673,-2.9048,-3.1437,-3.3271,-3.4561,-3.5718,-3.6802,-3.7658,-3.851,-3.9394,-3.9967,-4.0413,-4.0764,-4.0764,-4.0912,-4.1231,-4.1409,-4.1595,-4.1765,-4.225,-4.2546,-4.2635,-4.2883,-4.2886,-4.27,-4.1624,-4.1011,-4.0901,-4.11,-4.1183,-4.1282,-4.2547,-4.3236,-4.3394,-4.235,-4.1987,-4.2057,-4.2057,-4.1801,-4.1502,-4.1563,-4.1716,-4.18,-4.1493,-4.0714,-3.9824,-3.9538,-3.9049,-3.8704,-3.921,-3.9716,-4.0176,-4.0772,-4.0865,-4.0839,-4.1072,-4.1227,-4.1605,-4.2525,-4.3256,-4.3985,-4.4838,-4.4955,-4.4745,-4.4068,-4.3781,-4.3765,-4.4073,0.0,0.0,-4.3684,-4.3498,-4.324,-4.2892,-4.2919,-4.2826,-4.2479,-4.1795,-4.1291,0.0,-3.9842,-3.8991,-3.8767,-3.7785,-3.6891,-3.6138,-3.5589,-3.4949,0.0,0.0,0.0,0.0,0.0,0.0,0.0,0.0,0.0,0.0,0.0,0.0,0.0,0.0,0.0,0.0,0.0,0.0,0.0,0.0,0.0,0.0,-2.7349,-2.9343,-3.0207,-3.1693,-3.3196,-3.461,-3.5678,-3.6763,-3.7943,-3.8838,-3.977,-4.0779,-4.1405,-4.1871,-4.2179,-4.226,-4.2453,-4.2774,-4.2951,-4.3034,-4.2957,-4.3383,-4.3518,-4.3392,-4.3547,-4.3433,-4.3102,-4.2241,-4.1678,0.0,-4.1711,-4.1844,-4.1943,-4.3118,-4.3805,0.0,0.0,0.0,0.0,0.0,-4.3363,-4.3585,-4.3112,-4.3151,-4.3318,-4.2905,-4.2238,-4.1545,-4.1145,-4.0713,-4.046,-4.0908,-4.127,-4.1613,-4.1923,-4.1931,-4.1916,-4.2032,-4.2394,-4.2912,-4.3647,-4.4499,-4.5253,-4.5761,0.0,0.0,-4.635,-4.5694,-4.5269,-4.5421,-4.5228,-4.5043,0.0,-4.4801,-4.4529,-4.4289,-4.4319,-4.4144,-4.3623,-4.294,0.0,0.0,0.0,-4.0198,-4.0198,-3.9155,0.0,0.0,0.0,0.0,0.0,0.0,0.0,0.0,-3.3154,-3.3452,0.0,0.0,0.0,0.0,0.0,0.0,0.0,0.0,0.0,0.0,0.0,0.0,0.0,0.0,0.0,0.0,-2.9968,-3.2282,-3.4137,-3.4624,-3.4915,-3.5243,-3.6675,-3.7927,-3.8716,-3.994,-4.0951,-4.1654,-4.2154,-4.2469,-4.262,0.0,0.0,0.0,0.0,-4.3817,-4.3756,-4.3973,-4.4056,-4.3898,-4.3704,-4.3251,-4.2605,-4.2522,-4.2125,-4.1574,-4.2208,-4.2489,-4.2555,-4.33,-4.3805,-4.4114,-4.4255,-4.4581,-4.4884,-4.4272,-4.4507,0.0,0.0,0.0,0.0,-4.3775,-4.3487,-4.3301,-4.2625,-4.2354,-4.2303,-4.2388,-4.2422,-4.2412,-4.2351,-4.2408,-4.2616,-4.3104,-4.3796,-4.4516,-4.5152,-4.5992,-4.6632,-4.6632,-4.6836,-4.7259,-4.7889,-4.7275,-4.6507,-4.5967,-4.6017,0.0,-4.6075,-4.5483,-4.5128,-4.5194,0.0,0.0,-4.4568,-4.3941,-4.3276,-4.2543,-4.174,-4.1257,-4.117,-4.0602,-4.0262,-4.0285,-3.9812,-3.9595,-3.9595,-3.9725,-4.0161,-4.0797,-3.8007,-3.7114,0.0,0.0,0.0,0.0,0.0,0.0,0.0,0.0,0.0,0.0,0.0,0.0,0.0,0.0,0.0,-3.0049,-3.2298,-3.3974,-3.4897,-3.6609,-3.759,-3.708,-3.7823,-3.8832,-3.9946,-4.1455,-4.2523,-4.3002,-4.3813,-4.4371,-4.4641,-4.4668,0.0,-4.494,-4.4902,-4.48,-4.4582,-4.4339,-4.4155,-4.3898,0.0,0.0,-4.3367,-4.2754,-4.2406,-4.2291,-4.2423,-4.2489,-4.2555,-4.33,-4.3805,-4.4193,-4.5172,-4.5965,-4.6476,-4.5868,-4.5697,-4.5603,-4.4854,-4.4657,-4.4703,-4.4456,-4.4027,-4.36,-4.3278,-4.2777,0.0,-4.3031,-4.32,-4.328,-4.3749,-4.431,-4.4723,-4.4569,-4.523,-4.5875,-4.5871,-4.6672,-4.7376,-4.7376,-4.8034,-4.8629,-4.8765,-4.8246,-4.792,-4.8261,-4.845,-4.848,-4.8359,-4.824,-4.8039,-4.7739,-4.7728,-4.7535,-4.7031,-4.6345,-4.5889,-4.5717,-4.4414,-4.3379,-4.2775,-4.2645,-4.2583,-4.2646,-4.2556,-4.2541,-4.266,-4.2777,-4.2917,-4.3045,-4.1319,-4.0963,0.0,0.0,0.0,0.0,0.0,0.0,0.0,0.0,0.0,0.0,0.0,-2.4391,-2.6479,0.0,-2.968,-3.1818,-3.3657,-3.5161,-3.6208,-3.778,-3.8646,-3.8177,-3.9275,-4.0479,-4.1599,-4.2568,-4.3389,-4.4054,-4.4729,-4.514,-4.5194,-4.5389,-4.5459,-4.5397,-4.5274,-4.5015,-4.4631,-4.4338,-4.4039,-4.3763,-4.3658,-4.3598,-4.3582,-4.3218,-4.3035,-4.3035,-4.3035,-4.3035,-4.3069,-4.3555,-4.4068,-4.4658,-4.5778,-4.6535,-4.7003,-4.699,-4.6753,-4.6328,-4.5524,-4.5004,-4.4682,-4.4626,-4.4416,-4.4207,-4.4479,-4.4299,-4.4164,-4.4891,-4.5111,-4.5167,-4.5481,-4.5807,-4.6018,-4.5751,-4.6351,-4.6887,-4.6734,-4.7412,-4.8087,-4.8166,-4.8562,-4.8925,-4.9001,-4.8893,-4.8865,-4.8981,-4.9107,-4.9138,-4.9001,-4.9001,-4.8958,-4.8809,-4.8805,-4.8604,-4.8083,-4.7069,-4.6498,-4.6586,-4.551,-4.4682,-4.432,-4.4302,-4.4311,-4.4345,-4.4421,-4.4472,-4.4547,-4.4746,-4.4845,-4.4827,-4.4202,-4.3939,0.0,0.0,0.0,0.0,0.0,0.0,0.0,0.0,-2.4827,-2.5354,-2.6626,-2.8056,-2.9264,-3.0616,-3.1932,-3.3201,-3.4744,-3.6189,-3.741,-3.8744,-3.9523,-3.9369,-4.0778,-4.2104,-4.2993,-4.3455,-4.4024,-4.4862,-4.523,-4.5389,-4.531,-4.5615,-4.5693,-4.545,-4.5274,-4.4988,-4.4502,-4.4224,-4.3923,-4.3598,-4.3598,-4.3598,-4.3598,-4.3598,-4.3664,-4.3797,-4.3797,-4.3714,-4.3628,-4.3763,-4.4284,-4.509,-4.6049,-4.6705,-4.7174,-4.7712,-4.759,-4.7046,-4.6036,-4.5314,-4.4801,-4.4649,-4.4699,-4.4908,-4.5517,-4.5805,-4.6041,-4.6616,-4.6786,-4.6786,-4.6786,-4.6874,-4.69,-4.6733,-4.7214,-4.7689,-4.755,-4.8018,-4.8483,-4.8707,-4.8769,-4.8832,-4.8987,-4.9246,-4.9367,-4.9094,-4.9168,-4.9199,-4.9063,-4.9001,-4.9063,-4.9199,-4.9199,-4.9001,-4.8446,-4.7244,-4.6526,-4.6542,-4.5828,-4.5397,-4.5397,-4.5397,-4.5397,-4.5397,-4.5502,-4.5554,-4.5554,-4.5795,-4.5922,-4.5972,-4.6097,-4.5856,-1.7776,-1.8982,-2.0486,-2.1976,-2.3388,-2.4457,0.0,0.0,-2.8839,-2.8201,-2.9717,-3.1309,-3.1907,-3.2764,-3.3716,-3.4633,-3.6071,-3.7286,-3.7867,-3.9852,-4.135,-4.1684,-4.2284,-4.2847,-4.3314,-4.4122,-4.4838,-4.531,-4.5485,-4.5615,-4.5718,-4.577,-4.5718,-4.5581,-4.5327,-4.4988,-4.4502,-4.4224,-4.3923,-4.3598,-4.3598,-4.3598,-4.3598,-4.3598,-4.3976,-4.4572,-4.4572,-4.4208,-4.3598,-4.3628,-4.4149,-4.4983,-4.584,-4.6692,-4.7568,-4.7825,-4.7868,-4.7597,-4.6194,-4.5652,-4.5466,-4.479,-4.5026,-4.5602,-4.5669,-4.616,-4.6684,-4.6769,-4.6786,-4.6786,-4.6786,-4.714,-4.7477,-4.734,-4.7736,-4.8111,-4.7966,-4.8081,-4.8292,-4.8483,-4.8675,-4.8832,-4.8987,-4.9124,-4.9229,-4.9199,-4.932,-4.9398,-4.9199,-4.9077,-4.9063,-4.9199,-4.9199,-4.9001,-4.8446,-4.7769,-4.7082,-4.6378,-4.5757,-4.5397,-4.5397,-4.5397,-4.5397,-4.5397,-4.5423,-4.5423,-4.5423,-4.5581,-4.571,-4.5821,-4.5947,-4.602,-2.1341,-2.2566,-2.392,-2.5905,-2.6871,-2.7583,-2.8484,-2.9895,-3.0933,-3.0615,-3.1589,-3.258,-3.2777,-3.3646,-3.4637,0.0,-3.7097,-3.8352,-3.8702,-4.0485,-4.1682,-4.1606,-4.2213,-4.3098,-4.4343,-4.4817,-4.5167,-4.5485,-4.5641,-4.5744,-4.5812,-4.5947,-4.5897,-4.5607,-4.5432,-4.5052,-4.4502,-4.4224,-4.3923,-4.3598,-4.3598,-4.3813,-4.4241,-4.4241,-4.4406,-4.4688,-4.4688,-4.4274,-4.3631,-4.4075,-4.4453,-4.4895,-4.6231,-4.7006,-4.7462,-4.8147,-4.8199,-4.7804,-4.7072,-4.652,-4.6115,-4.5711,-4.5841,-4.625,-4.6688,-4.7102,-4.753,-4.7953,-4.8088,-4.8088,-4.8088,-4.8247,-4.8343,-4.8094,-4.8202,-4.8308,-4.8066,-4.8017,-4.8115,-4.8292,-4.8483,-4.869,-4.8863,-4.9063,-4.9046,-4.8634,-4.9018,-4.926,-4.9107,-4.9032,-4.9032,-4.9094,-4.9077,-4.9019,-4.8865,-4.7846,-4.7142,-4.7002,-4.5917,-4.53,-4.5397,-4.5397,-4.5397,-4.5397,-4.5397,-4.5397,-4.5397,-4.5528,-4.5632,-4.5684,-4.5821,-4.5922,-2.3687,-2.4927,-2.6152,-2.8179,-2.9169,-2.9904,-3.0974,-3.1773,-3.2254,-3.2254,-3.2698,-3.3096,-3.315,-3.4207,-3.5321,-3.6093,-3.7878,-3.9249,-3.9385,-4.0832,-4.1755,-4.1366,-4.2056,-4.3098,-4.4508,-4.4791,-4.5017,-4.5329,-4.5622,-4.5821,-4.5897,-4.6097,-4.6023,-4.5684,-4.5494,-4.5106,-4.4502,-4.4224,-4.3923,-4.3598,-4.3797,-4.4191,-4.4705,-4.5102,-4.5069,-4.4705,-4.4903,-4.4473,-4.3648,-4.439,-4.4804,-4.5149,-4.6568,-4.7263,-4.7576,-4.8348,-4.8433,-4.8098,-4.774,-4.7241,-4.6754,-4.6421,-4.6532,-4.6918,-4.7426,-4.7885,-4.8294,-4.8849,-4.9001,-4.9001,-4.9001,-4.897,-4.8877,-4.8658,-4.8483,-4.8356,-4.8115,-4.8033,-4.8033,-4.8163,-4.8356,-4.8547,-4.8786,-4.8832,-4.8663,-4.8133,-4.8324,-4.8582,-4.8724,-4.8897,-4.9001,-4.9001,-4.9001,-4.9032,-4.9138,-4.8027,-4.7357,-4.7409,-4.6196,-4.5453,-4.5397,-4.5353,-4.5327,-4.5327,-4.5318,-4.5318,-4.5344,-4.5432,-4.5528,-4.5607,-4.5693,-4.577,-2.3603,-2.5011,-2.6413,-2.7789,-2.9827,-3.1548,-3.1579,-3.2244,-3.2866,-3.2866,-3.2989,-3.3123,-3.3282,-3.467,-3.5921,-3.6413,-3.8395,-3.9847,-3.9699,-4.0966,-4.1836,-4.1613,-4.2245,-4.2843,0.0,-4.3786,-4.4294,-4.4707,-4.5403,-4.5922,-4.6172,-4.6214,-4.6073,-4.5795,-4.5546,-4.5106,-4.4502,-4.4224,-4.3923,-4.3598,-4.4324,-4.4671,-4.4738,-4.6179,-4.6046,-4.4721,-4.545,-4.4937,-4.3648,-4.439,-4.5102,-4.5831,-4.6593,-4.7418,-4.8162,-4.8227,-4.8452,-4.8666,-4.7878,-4.7578,-4.7429,-4.6589,-4.6884,-4.7561,-4.7594,-4.8239,-4.8968,-4.9001,-4.9001,-4.9001,-4.9001,-4.8894,-4.8801,-4.8769,-4.85,-4.8195,-4.8195,-4.8082,-4.8033,-4.8163,-4.8356,-4.8547,-4.8786,-4.8304,-4.7936,-4.7919,-4.731,-4.7166,-4.801,-4.8636,-4.9001,-4.9001,-4.9001,-4.9001,-4.9001,-4.8429,-4.7814,-4.7238,-4.661,-4.602,-4.5432,-4.5274,-4.522,-4.522,-4.5086,-4.5086,-4.522,-4.5203,-4.5353,-4.5607,-4.5589,-4.5684,-2.5175,-2.6711,-2.8112,-2.9655,-3.0948,-3.1897,-3.1965,-3.2232,-3.2484,-3.2648,-3.2507,-3.2405,-3.2562,-3.3246,-3.4256,-3.557,-3.731,-3.8749,-3.9478,-4.0495,-4.1016,-4.0654,-4.0966,0.0,0.0,0.0,0.0,-4.4672,-4.5386,-4.5922,-4.6189,-4.6122,-4.6217,-4.6578,-4.6218,-4.6024,-4.6024,-4.5732,-4.5404,-4.5069,-4.5814,-4.6146,-4.6179,-4.7173,-4.709,-4.6146,-4.5897,-4.5235,-4.439,-4.5119,-4.5566,-4.5864,-4.6609,-4.7119,-4.7495,-4.7606,-4.7795,-4.8015,-4.8,-4.7988,-4.7955,-4.7531,-4.7678,-4.802,-4.8178,-4.8519,-4.8894,-4.9077,-4.9138,-4.9138,-4.9138,-4.9077,-4.9032,-4.8832,-4.8595,-4.8356,-4.8227,-4.8082,-4.8001,-4.8049,-4.8292,-4.8515,-4.8595,-4.8209,-4.7551,-4.6599,-4.665,-4.7086,-4.7861,-4.8152,-4.8477,-4.8951,-4.9001,-4.9001,-4.9001,-4.8372,-4.792,-4.7797,-4.6709,-4.5975,-4.5857,-4.536,-4.5059,-4.5059,-4.5032,-4.5059,-4.5203,-4.5203,-4.53,-4.5476,-4.5476,-4.5502,-2.5797,-2.7458,-2.8891,-3.0373,-3.1328,-3.194,-3.2038,-3.215,-3.2185,-3.2175,-3.1866,-3.1667,-3.1887,-3.2196,-3.3112,-3.5132,-3.678,-3.8196,-3.9348,-4.0214,-4.0567,-4.0147,-4.0534,-4.0878,0.0,0.0,0.0,-4.424,-4.5153,-4.5821,-4.6048,-4.6252,-4.6533,-4.6925,-4.6793,-4.6737,-4.6786,-4.6471,-4.6271,-4.6195,-4.6676,-4.7008,-4.7192,-4.7753,-4.7571,-4.6745,-4.6081,-4.5367,-4.4752,-4.5202,-4.54,-4.5467,-4.6212,-4.6557,-4.6699,-4.7156,-4.7381,-4.7544,-4.8169,-4.8405,-4.8373,-4.8147,-4.8244,-4.8436,-4.8483,-4.8721,-4.897,-4.9138,-4.926,-4.932,-4.932,-4.932,-4.9246,-4.9001,-4.8736,-4.853,-4.8356,-4.8147,-4.8001,-4.8049,-4.8292,-4.8515,-4.8578,-4.7989,-4.7005,-4.5534,-4.5703,-4.6278,-4.7039,-4.7567,-4.8075,-4.8578,-4.8849,-4.9001,-4.9001,-4.8578,-4.825,-4.8099,-4.6956,-4.6243,-4.6112,-4.5333,-4.494,-4.494,-4.4886,-4.4923,-4.5059,-4.5113,-4.5194,-4.5344,-4.5371,-4.5397,-2.557,-2.7343,-2.8723,-3.0,-3.1046,-3.1784,-3.1784,-3.1936,-3.1943,-3.1478,-3.1037,-3.0845,-3.118,0.0,-3.2474,-3.502,-3.6659,-3.8048,-3.9256,-4.0084,-4.0445,0.0,0.0,0.0,0.0,0.0,0.0,-4.3467,0.0,-4.5676,-4.5865,-4.6578,-4.6951,-4.6914,-4.7245,-4.7301,-4.6904,-4.6559,-4.6574,-4.6957,-4.6925,-4.7208,-4.7704,-4.7902,-4.7473,-4.6617,-4.6034,-4.54,-4.4738,-4.4705,-4.4688,-4.4785,-4.5467,-4.5732,-4.5862,-4.6814,-4.716,-4.7323,-4.8423,-4.8818,-4.8707,-4.834,-4.8468,-4.8738,-4.8595,-4.8844,-4.9199,-4.9229,-4.9381,-4.9518,-4.9518,-4.9518,-4.9441,-4.926,-4.8968,-4.8688,-4.853,-4.8276,-4.8049,-4.8195,-4.8388,-4.8562,-4.8685,-4.7642,-4.6278,-4.4807,-4.457,-4.4857,-4.5602,-4.6938,-4.7787,-4.7821,-4.8511,-4.8951,-4.892,-4.8984,-4.8758,-4.8184,-4.7415,-4.6708,-4.6152,-4.5256,-4.4776,-4.4776,-4.4654,-4.4654,-4.4803,-4.4923,-4.5059,-4.5203,-4.5344,-4.5397,-2.6912,-2.8135,-2.9026,-3.0048,-3.086,-3.1524,-3.1855,-3.1222,-3.0651,-3.0902,-2.9715,-2.8746,-2.9053,0.0,0.0,-3.2669,-3.426,0.0,-3.8228,-3.9239,0.0,-4.0544,0.0,-4.1801,-4.239,-4.3486,0.0,0.0,-4.4949,-4.5901,-4.6665,-4.6795,-4.7357,-4.8411,-4.8243,-4.8226,-4.8443,-4.7693,-4.7374,-4.749,-4.7375,-4.7423,-4.7537,-4.7604,-4.7505,-4.7226,-4.6073,-4.5478,-4.5263,-4.4873,-4.4688,-4.4735,-4.4903,-4.5031,-4.5252,-4.6185,-4.6605,-4.6895,-4.8422,-4.8784,-4.8547,-4.8452,-4.8483,-4.8627,-4.8798,-4.9046,-4.9256,-4.9632,-4.975,-4.9796,-4.9796,-4.9737,-4.9619,-4.9441,-4.9185,-4.8892,-4.8877,-4.8627,-4.8388,-4.842,-4.8595,-4.8416,-4.7457,-4.6903,-4.6069,-4.4603,-4.4298,-4.4584,-4.5573,-4.6041,-4.6481,-4.7022,-4.775,-4.8129,-4.7973,-4.8588,-4.8903,-4.8624,-4.7376,-4.6625,-4.6632,-4.5201,-4.4497,-4.4654,-4.4615,-4.4654,-4.4803,-4.4923,-4.5059,-4.5203,-4.5344,-4.5397,-2.7321,-2.8176,-2.871,-2.9564,-3.0136,-3.047,-3.0546,-3.0046,-2.9489,-2.9296,-2.8031,-2.7093,-2.7589,-2.737,0.0,0.0,0.0,0.0,-3.7692,-3.8851,-3.9768,0.0,-4.1448,0.0,-4.3045,-4.3972,-4.4479,0.0,-4.5007,-4.5698,-4.6554,-4.6835,-4.753,-4.8701,-4.8744,-4.8731,-4.8642,-4.8033,-4.7671,-4.7621,-4.7537,-4.7436,-4.7369,-4.747,-4.7436,-4.7287,0.0,-4.5403,-4.5352,-4.4393,-4.3995,-4.4026,-4.4087,-4.4194,-4.4417,-4.5798,-4.6351,-4.6673,-4.8385,-4.8877,-4.8704,-4.8658,-4.8704,-4.8829,-4.897,-4.926,-4.9555,-4.975,-4.9913,-5.0028,-4.9959,-4.9872,-4.9784,-4.9637,-4.9398,-4.9185,-4.9124,-4.8892,-4.8736,-4.8798,-4.8909,-4.8528,-4.7128,-4.6663,-4.601,-4.4529,-4.4184,-4.4322,-4.4916,-4.5339,-4.5768,-4.6261,-4.6989,-4.7457,-4.7608,-4.8074,-4.8461,-4.8642,-4.7264,-4.6501,-4.665,-4.5142,-4.4395,-4.4615,-4.4615,-4.4654,-4.4803,-4.4923,-4.5059,-4.5203,-4.5344,-4.5397,-2.706,-2.7761,-2.8113,-2.882,-2.9191,-2.9277,-2.8843,-2.8752,-2.8429,-2.7279,0.0,-2.5602,-2.6198,-2.5686,-2.647,-3.0493,0.0,-3.3876,-3.711,-3.8381,-3.9455,-4.0655,-4.1714,-4.2688,-4.362,-4.447,-4.4978,-4.4978,-4.4968,-4.5292,-4.6043,-4.6794,-4.7597,-4.8438,-4.8889,-4.8813,-4.8163,-4.7836,-4.7588,-4.747,-4.7436,-4.7335,-4.7183,-4.7335,-4.7335,-4.7135,0.0,0.0,-4.5193,-4.3848,-4.3225,-4.3113,-4.3312,-4.3402,-4.3644,-4.5587,-4.629,-4.6569,-4.8354,-4.9001,-4.897,-4.8863,-4.9001,-4.9168,-4.9094,-4.9471,-4.9866,-4.9796,-4.9971,-5.016,-5.0051,-5.0022,-4.9993,-4.9813,-4.9649,-4.95,-4.935,-4.9168,-4.9124,-4.9229,-4.926,-4.8817,-4.7393,-4.6874,-4.6178,-4.4786,-4.444,-4.4307,-4.4236,-4.4787,-4.5286,-4.5493,-4.6164,-4.6815,-4.7258,-4.7494,-4.7768,-4.8165,-4.6963,-4.6301,-4.6333,-4.5005,-4.4367,-4.4542,-4.4587,-4.4654,-4.4803,-4.4923,-4.5059,-4.5203,-4.5344,-4.5397,-2.6479,-2.7221,-2.7861,-2.826,-2.885,-2.925,-2.8988,-2.8166,0.0,0.0,-2.473,-2.3751,-2.334,-2.4206,-2.5448,-2.7018,0.0,0.0,0.0,0.0,-3.8308,0.0,0.0,0.0,0.0,0.0,0.0,0.0,0.0,0.0,-4.6054,-4.6806,-4.7702,-4.8856,-4.8807,-4.853,-4.8033,-4.7704,-4.7436,-4.7251,-4.7064,-4.6996,-4.6961,-4.6996,-4.708,-4.7168,0.0,0.0,-4.5258,-4.4547,-4.3793,-4.3113,-4.3312,-4.3402,-4.3644,-4.5587,-4.629,-4.6569,-4.8354,-4.9001,-4.9001,-4.897,-4.9063,-4.9229,-4.9367,-4.9649,-4.9924,-5.0057,-5.016,-5.0189,-5.016,-5.0178,-5.016,-5.0132,-4.9971,-4.9808,-4.9779,-4.9679,-4.956,-4.9471,-4.953,-4.924,-4.8116,-4.7618,-4.709,-4.6083,-4.5693,-4.5324,-4.483,-4.4495,-4.4368,-4.454,-4.5197,-4.566,-4.5617,-4.6844,-4.727,-4.6572,-4.6274,-4.5901,-4.5446,-4.4607,-4.4196,-4.4338,-4.4514,-4.4654,-4.4803,-4.4923,-4.5059,-4.5203,-4.5344,-4.5397,-2.5571,-2.6422,-2.7404,-2.7612,-2.798,-2.8148,-2.7474,0.0,0.0,0.0,-2.3401,-2.2643,-2.2397,-2.2735,0.0,0.0,0.0,0.0,0.0,0.0,0.0,0.0,0.0,0.0,0.0,0.0,0.0,0.0,0.0,0.0,-4.5864,-4.6864,-4.7804,-4.8702,-4.853,-4.826,-4.7853,-4.7604,-4.7369,-4.703,-4.6961,-4.6876,-4.6876,-4.6996,-4.7098,-4.7168,0.0,0.0,-4.5226,-4.4522,-4.3739,-4.3007,-4.3174,-4.3481,-4.4002,-4.5632,-4.648,-4.7058,-4.8413,-4.8956,-4.9001,-4.9001,-4.9155,-4.9381,-4.9488,-4.9767,-5.0057,-5.0092,-5.0149,-5.0189,-5.012,-5.0149,-5.0189,-5.0189,-5.0132,-5.0046,-4.9959,-4.9959,-4.993,-4.9801,-4.9784,-4.9451,-4.8421,-4.7881,-4.7309,-4.6421,-4.6015,-4.5696,-4.541,-4.5153,-4.4816,-4.4365,-4.463,-4.4942,-4.5287,-4.5945,-4.6257,-4.6077,-4.5618,-4.5283,-4.5037,-4.4382,-4.4097,-4.431,-4.4395,-4.4609,-4.4896,-4.4951,-4.5113,-4.53,-4.5371,-4.5397,-2.4696,-2.5589,-2.6605,-2.6743,-2.6999,-2.6892,-2.5656,-2.5485,0.0,-2.297,-2.2146,-2.1774,-2.1694,0.0,-2.2099,0.0,-2.6593,0.0,0.0,0.0,0.0,0.0,0.0,0.0,0.0,0.0,0.0,0.0,0.0,0.0,0.0,-4.6797,-4.7656,-4.8418,-4.826,-4.8,-4.7654,-4.7504,-4.7251,-4.6876,-4.6876,-4.6911,-4.6961,-4.7149,-4.7251,-4.7286,0.0,0.0,0.0,-4.4867,-4.4118,-4.3418,-4.3588,-4.3994,-4.4647,-4.5875,-4.6772,-4.7498,-4.8455,-4.8863,-4.894,-4.9001,-4.9216,-4.9518,-4.9518,-4.9813,-5.0149,-5.0022,-5.008,-5.0149,-5.0022,-5.0092,-5.0189,-5.0189,-5.0189,-5.016,-5.0022,-5.012,-5.0189,-5.0022,-4.9988,-4.9723,-4.8807,-4.8226,-4.7642,-4.6843,-4.645,-4.6212,-4.6015,-4.5998,-4.5621,-4.4553,-4.4459,-4.4673,-4.5122,-4.5177,-4.5297,-4.553,-4.5012,-4.4683,-4.4624,-4.4168,-4.3998,-4.4196,-4.4281,-4.4536,-4.4968,-4.4978,-4.5157,-4.5397,-4.5397,-4.5397,-2.4193,-2.4838,-2.5219,-2.5335,-2.6035,-2.6207,-2.4393,0.0,-2.4325,-2.1635,-2.1088,-2.0864,-2.0153,-2.0616,-2.1492,-2.2626,-2.4784,-2.7423,0.0,0.0,0.0,0.0,0.0,0.0,0.0,0.0,0.0,0.0,0.0,0.0,0.0,-4.6428,-4.6982,-4.8177,-4.8082,-4.7869,-4.7504,-4.7335,-4.7115,-4.6876,-4.6876,-4.6996,-4.7183,-4.7183,-4.7386,-4.7638,0.0,0.0,0.0,-4.6469,-4.5896,-4.5095,-4.5302,-4.5415,-4.5594,-4.6686,-4.716,-4.7389,-4.8423,-4.8818,-4.8832,-4.894,-4.9216,-4.9518,-4.9518,-4.9742,-5.004,-4.9993,-5.0011,-5.004,-4.9993,-5.0092,-5.0189,-5.0189,-5.0189,-5.016,-5.0022,-5.0206,-5.0302,-5.0051,-5.0206,-5.0154,-4.9504,-4.9114,-4.868,-4.8108,-4.7883,-4.7489,-4.6633,-4.6696,-4.6291,-4.4997,-4.5013,-4.4909,-4.4433,-4.4905,-4.4879,-4.4131,-4.4464,-4.4406,-4.3744,-4.3826,-4.3898,-4.3927,-4.4184,-4.448,-4.4831,-4.4923,-4.5157,-4.5397,-4.5397,-4.5397,-2.2634,-2.3798,-2.5082,-2.5658,-2.6149,-2.6096,-2.4627,0.0,-2.3988,-2.1319,-2.0798,-2.061,-1.9933,-2.0482,-2.1354,-2.2341,-2.4528,-2.7201,-3.0371,0.0,0.0,0.0,0.0,0.0,0.0,0.0,0.0,0.0,0.0,0.0,0.0,-4.5782,-4.6373,-4.7207,-4.7523,-4.7571,-4.7335,-4.7251,-4.7098,-4.6876,-4.703,-4.7098,-4.7217,-4.742,-4.7571,-4.7704,0.0,0.0,0.0,-4.6731,-4.6206,-4.5499,-4.5579,-4.5811,-4.6158,-4.6664,-4.7189,-4.7749,-4.8161,-4.8436,-4.8658,-4.8832,-4.9001,-4.9246,-4.9458,-4.9637,-4.986,-4.9982,-5.0011,-5.0011,-5.0011,-5.0092,-5.0189,-5.0189,-5.0189,-5.016,-5.0022,-5.0206,-5.0359,-5.0149,-5.0274,-5.0228,-4.9708,-4.9277,-4.8815,-4.8292,-4.7968,-4.7506,-4.6699,-4.6682,-4.6248,-4.5036,-4.4977,-4.4795,-4.4234,-4.4323,-4.4273,-4.3914,-4.3999,-4.3926,-4.3615,-4.3674,-4.3763,-4.3898,-4.4068,-4.431,-4.4603,-4.4869,-4.5086,-4.5274,-4.5371,-4.545,-2.1377,-2.2666,-2.4152,-2.5009,-2.5348,-2.5174,0.0,-2.3716,-2.311,-2.0872,-2.0408,-2.0258,-1.9852,-2.0446,-2.1332,-2.2272,-2.4492,-2.7057,-2.9784,-3.1913,0.0,0.0,0.0,0.0,0.0,0.0,0.0,0.0,0.0,0.0,0.0,0.0,-4.5419,-4.6142,-4.6716,-4.6907,-4.6738,-4.6864,-4.6892,-4.6807,-4.6961,-4.7064,-4.7217,-4.7437,-4.7571,0.0,0.0,0.0,0.0,-4.65,-4.6236,-4.5971,-4.5693,-4.5944,-4.6471,-4.6289,-4.6634,-4.7225,-4.7258,-4.7467,-4.777,-4.8178,-4.8402,-4.8622,-4.9178,-4.9488,-4.9666,-4.9801,-4.9877,-4.9935,-4.9964,-5.008,-5.0149,-5.0149,-5.0149,-5.012,-5.0022,-5.0206,-5.0359,-5.016,-5.0274,-5.0228,-4.9737,-4.926,-4.8815,-4.8244,-4.7737,-4.721,-4.6618,-4.6404,-4.5922,-4.4959,-4.484,-4.4647,-4.4135,-4.3985,-4.3898,-4.3898,-4.3704,-4.3598,-4.3598,-4.3598,-4.3687,-4.3898,-4.4027,-4.4253,-4.4603,-4.4869,-4.5086,-4.5274,-4.5371,-4.5476,-2.0721,-2.1508,-2.1945,-2.2728,-2.3135,-2.3009,-2.1806,-2.163,-2.1335,-1.9992,-1.9708,-1.9708,-1.9708,-2.0394,-2.1279,-2.2151,-2.4441,-2.6702,-2.8479,-3.0847,0.0,0.0,0.0,0.0,0.0,0.0,0.0,0.0,0.0,0.0,0.0,0.0,-4.3929,-4.5082,-4.5585,-4.5756,-4.5635,-4.6067,-4.6404,-4.6582,-4.6617,-4.6807,-4.7217,-4.7217,0.0,0.0,0.0,0.0,0.0,-4.5876,-4.6135,-4.6776,-4.5955,-4.6056,-4.6584,-4.5651,-4.5308,-4.5356,-4.5564,-4.5706,-4.5962,-4.6912,-4.7318,-4.7625,-4.8689,-4.9246,-4.9518,-4.9518,-4.959,-4.9737,-4.9935,-5.0011,-4.9993,-4.9993,-4.9993,-5.0011,-5.0011,-5.0206,-5.0331,-5.0051,-5.0206,-5.02,-4.9607,-4.9216,-4.8784,-4.8099,-4.7258,-4.665,-4.6422,-4.5928,-4.5393,-4.4771,-4.4688,-4.4557,-4.4135,-4.3985,-4.3898,-4.3898,-4.3704,-4.3598,-4.3598,-4.3598,-4.3687,-4.3898,-4.4027,-4.4327,-4.4803,-4.4923,-4.5157,-4.5397,-4.5397,-4.5476,-1.939,-2.0165,-2.0845,-2.1836,-2.2207,-2.217,-2.1454,-2.144,-2.1188,-1.9897,-1.9672,-1.9708,-1.9762,-2.0808,-2.1854,-2.2416,-2.4973,-2.7374,0.0,0.0,0.0,0.0,0.0,0.0,0.0,0.0,0.0,0.0,0.0,0.0,0.0,0.0,-4.2944,-4.3913,-4.4475,-4.4743,-4.4709,-4.4866,-4.4978,-4.503,-4.5267,-4.5451,-4.5568,-4.5783,0.0,0.0,0.0,0.0,0.0,-4.5486,-4.5567,-4.578,-4.5518,-4.5487,-4.5587,-4.5277,-4.5163,-4.5163,-4.5228,-4.534,-4.5548,-4.6063,-4.6603,-4.7163,-4.7742,-4.8503,-4.9216,-4.953,-4.9679,-4.9755,-4.9935,-5.0011,-5.0011,-5.0011,-5.0011,-5.0011,-5.0011,-5.0149,-5.0246,-5.0132,-5.0217,-5.0132,-4.9708,-4.926,-4.8784,-4.8099,-4.7589,-4.6815,-4.5587,-4.5407,-4.4976,-4.3941,-4.3899,-4.3906,-4.3763,-4.3868,-4.3898,-4.3898,-4.3939,-4.3952,-4.3952,-4.3952,-4.3981,-4.4027,-4.4184,-4.435,-4.4603,-4.4869,-4.5157,-4.5397,-4.5607,-4.571,-1.8215,-1.9071,-1.9848,-2.0846,-2.1062,-2.0974,-2.0762,-2.0705,-2.0497,-1.9753,-1.965,-1.9726,-1.978,-2.1008,-2.2114,-2.2425,-2.5102,-2.745,0.0,0.0,0.0,0.0,0.0,0.0,0.0,0.0,0.0,0.0,0.0,0.0,0.0,0.0,-4.2172,-4.2685,-4.342,-4.3753,-4.3685,-4.3956,-4.4118,-4.4203,-4.4406,-4.4555,-4.4622,0.0,0.0,0.0,0.0,0.0,0.0,-4.4477,-4.4573,-4.4849,-4.4524,-4.4494,-4.4626,-4.4285,-4.4155,-4.4155,-4.4155,-4.4267,-4.449,-4.5004,-4.6,-4.7085,-4.7573,-4.8258,-4.9001,-4.9471,-4.9619,-4.9696,-4.9935,-5.0011,-5.0011,-5.0011,-5.0011,-5.0011,-5.0011,-5.0092,-5.0189,-5.0132,-5.0178,-5.0074,-4.9679,-4.9277,-4.8784,-4.8179,-4.749,-4.6635,-4.5342,-4.5014,-4.4519,-4.3564,-4.3568,-4.3598,-4.3598,-4.3793,-4.3898,-4.3898,-4.4027,-4.4097,-4.4097,-4.4097,-4.4126,-4.4167,-4.4253,-4.4435,-4.4686,-4.5005,-4.5247,-4.5476,-4.5693,-4.5795,0.0,-1.8112,-1.8862,-1.9743,-1.9719,-1.9563,-1.9775,-1.9613,0.0,-1.9556,-1.965,-1.9726,-1.9797,-2.1027,-2.2091,-2.2305,-2.4915,0.0,0.0,0.0,0.0,0.0,0.0,0.0,0.0,0.0,0.0,0.0,0.0,0.0,0.0,0.0,0.0,-4.1588,-4.2387,-4.2736,-4.2616,-4.3248,-4.3633,-4.384,-4.384,-4.3958,-4.4127,0.0,0.0,0.0,0.0,0.0,0.0,-4.3083,-4.3353,-4.4,-4.3175,-4.3307,-4.3796,-4.2908,-4.2602,-4.2602,-4.2602,-4.2728,-4.3061,-4.3999,-4.5559,-4.7245,-4.7962,-4.8468,-4.8894,-4.9337,-4.9488,-4.9577,-4.9906,-5.0011,-5.0011,-5.0011,-5.0011,-5.0011,-5.0011,-5.0109,-5.0149,-5.0022,-5.0092,-5.0046,-4.9577,-4.9246,-4.8846,-4.8292,-4.7242,-4.629,-4.5663,-4.4862,-4.4204,-4.38,-4.3698,-4.3664,-4.3664,-4.3826,-4.3927,-4.3927,-4.4056,-4.4126,-4.4126,-4.4126,-4.4184,-4.431,-4.4321,-4.4564,-4.5005,-4.5291,-4.5476,-4.5632,-4.5744,-4.5821,-1.5389,0.0,-1.7417,-1.8404,-1.8627,-1.87,0.0,-1.9198,-1.9358,-1.9431,-1.9632,-1.9833,-2.001,-2.1234,-2.2324,-2.2621,-2.523,0.0,0.0,0.0,0.0,0.0,0.0,0.0,0.0,0.0,0.0,0.0,0.0,0.0,0.0,0.0,0.0,-4.1588,-4.1813,-4.1907,-4.1841,-4.1999,-4.2127,-4.2178,-4.2309,-4.2424,-4.2457,0.0,0.0,0.0,0.0,0.0,-4.2686,-4.2589,-4.2699,-4.2955,-4.2761,-4.2779,-4.2892,-4.2699,-4.2602,-4.2602,-4.2602,-4.2728,-4.3173,-4.4762,-4.5656,-4.6389,-4.778,-4.8468,-4.8832,-4.9063,-4.9307,-4.9547,-4.9725,-4.9889,-5.0011,-5.0011,-5.0011,-5.0011,-5.0011,-5.0022,-5.0022,-5.0011,-5.004,-4.9918,-4.9577,-4.9307,-4.8954,-4.8292,-4.7868,-4.7276,-4.6307,-4.6093,-4.5794,-4.5197,-4.4726,-4.444,-4.444,-4.421,-4.4039,-4.4039,-4.4315,-4.4485,-4.4485,-4.4485,-4.4485,-4.4542,-4.4731,-4.4951,-4.515,-4.5406,-4.5632,-4.5761,-4.5897,-4.5947,-1.5158,-1.6008,-1.69,-1.7536,-1.8071,-1.85,-1.8745,-1.9064,-1.9321,-1.9395,-1.956,-1.9885,-2.0475,-2.1541,-2.2619,-2.3598,-2.6012,0.0,0.0,0.0,0.0,0.0,0.0,0.0,0.0,0.0,0.0,0.0,0.0,0.0,0.0,0.0,0.0,0.0,-4.1588,-4.1588,-4.1588,-4.1588,-4.1588,-4.1588,-4.1703,-4.1752,-4.1752,0.0,0.0,0.0,0.0,0.0,-4.2174,-4.2254,-4.2349,-4.2508,-4.2508,-4.2539,-4.2635,-4.3069,-4.3231,-4.3262,-4.3309,-4.3482,-4.3865,-4.5169,-4.592,-4.6542,-4.7733,-4.8308,-4.8595,-4.8909,-4.8931,-4.8997,-4.9546,-4.9526,-4.9476,-4.9895,-5.0011,-4.9964,-4.9889,-4.986,-4.983,-4.9772,-4.9772,-4.9683,-4.9411,-4.9229,-4.8923,-4.842,-4.8147,-4.7671,-4.6732,-4.6617,-4.6369,-4.5755,-4.5402,-4.5232,-4.5324,-4.4886,-4.4465,-4.4114,-4.44,-4.4615,-4.4615,-4.4615,-4.4615,-4.4615,-4.4858,-4.5113,-4.5283,-4.5511,-4.5693,-4.5897,-4.5972,-4.5998,-1.5488,-1.6251,-1.6832,-1.7232,-1.8075,-1.8869,-1.9023,-1.9376,-1.9689,-1.9764,0.0,-2.0291,-2.1237,-2.213,0.0,0.0,0.0,0.0,0.0,0.0,0.0,0.0,0.0,0.0,0.0,0.0,0.0,0.0,0.0,0.0,0.0,0.0,0.0,0.0,-4.1843,-4.1762,-4.1762,-4.1652,-4.1588,-4.1588,-4.1588,-4.1588,-4.1588,-4.1588,0.0,0.0,0.0,0.0,-4.1996,-4.2093,-4.2254,-4.2461,-4.2558,-4.2701,-4.2924,-4.3813,-4.4185,-4.4201,-4.4343,-4.4499,-4.4803,-4.5529,-4.6267,-4.704,-4.7785,-4.8082,-4.8275,-4.8649,-4.8419,-4.8273,-4.9218,-4.9015,-4.8798,-4.9705,-4.9906,-4.9877,-4.9725,-4.9679,-4.9619,-4.9518,-4.9518,-4.9458,-4.9229,-4.9124,-4.894,-4.8578,-4.8276,-4.7834,-4.7172,-4.6911,-4.6648,-4.6195,-4.6061,-4.6057,-4.6246,-4.5614,-4.4964,-4.4344,-4.4496,-4.4615,-4.4615,-4.4615,-4.4615,-4.4615,-4.4858,-4.5113,-4.5363,-4.5537,-4.5744,-4.5998,-4.6023,-4.6023,-1.5008,-1.5841,-1.6775,-1.8049,-1.9093,-1.988,-2.0239,-2.0846,-2.137,-2.1502,0.0,0.0,0.0,-2.3578,0.0,0.0,0.0,0.0,0.0,0.0,0.0,0.0,0.0,0.0,0.0,0.0,0.0,0.0,0.0,0.0,0.0,0.0,0.0,0.0,0.0,-4.2521,-4.2521,-4.1904,-4.1588,-4.1588,-4.1588,-4.1588,-4.1588,-4.1588,-4.1703,0.0,0.0,-4.2045,-4.2318,-4.2349,-4.2445,-4.2636,-4.3282,-4.3621,-4.3877,-4.4642,-4.4983,-4.5096,-4.5128,-4.5271,-4.5545,-4.6222,-4.6664,-4.704,-4.7785,-4.8082,-4.8126,-4.7747,-4.7787,-4.7975,-4.8273,-4.8387,-4.8624,-4.9406,-4.9577,-4.9577,-4.9547,-4.9547,-4.95,-4.9518,-4.9518,-4.9458,-4.9229,-4.9199,-4.9077,-4.8801,-4.8564,-4.8322,-4.8045,-4.7884,-4.7753,-4.7669,-4.7251,-4.698,-4.7028,-4.6019,-4.5328,-4.5211,-4.4823,-4.4615,-4.4615,-4.4615,-4.4615,-4.4615,-4.4858,-4.5086,-4.523,-4.5589,-4.5846,-4.5998,-4.6122,-4.6172,-1.4968,-1.5913,-1.6952,-1.8136,-1.9323,-2.0294,-2.0597,-2.1244,-2.1928,-2.235,0.0,0.0,0.0,0.0,0.0,0.0,0.0,0.0,0.0,0.0,0.0,0.0,0.0,0.0,0.0,0.0,0.0,0.0,0.0,0.0,0.0,0.0,0.0,0.0,0.0,0.0,-4.2695,-4.1952,-4.1588,-4.1588,-4.1703,-4.1752,-4.1752,-4.1834,-4.1916,-4.2012,0.0,-4.2317,-4.2815,-4.2815,-4.3218,-4.3832,-4.4156,-4.4464,-4.4803,-4.5635,-4.5995,-4.5994,-4.5994,-4.6011,-4.6109,-4.6486,-4.6913,-4.7423,-4.7852,-4.8017,-4.7997,-4.7519,-4.755,-4.7777,-4.8048,-4.8167,-4.846,-4.93,-4.9518,-4.9488,-4.935,-4.932,-4.932,-4.9246,-4.9216,-4.9216,-4.9124,-4.9094,-4.9032,-4.8832,-4.8738,-4.8564,-4.8227,-4.8147,-4.8115,-4.8115,-4.788,-4.7825,-4.8063,-4.7164,-4.614,-4.5031,-4.4745,-4.4615,-4.4615,-4.4615,-4.4626,-4.4709,-4.4913,-4.5113,-4.531,-4.5641,-4.5871,-4.5998,-4.6147,-4.6196,-1.5019,-1.6017,-1.7087,-1.806,-1.9417,-2.0608,-2.1005,-2.1803,-2.2706,-2.3361,-2.3779,0.0,0.0,0.0,0.0,0.0,0.0,0.0,0.0,0.0,0.0,0.0,0.0,0.0,0.0,0.0,0.0,0.0,0.0,0.0,0.0,0.0,0.0,0.0,0.0,0.0,-4.2916,-4.2031,-4.1588,-4.1588,-4.1784,-4.1898,-4.1898,-4.2029,-4.2142,-4.2222,-4.2414,-4.2832,-4.3444,-4.3621,-4.4187,-4.4935,-4.5097,-4.5457,-4.5962,-4.6716,-4.693,-4.6864,-4.6799,-4.675,-4.6668,-4.6717,-4.7144,-4.7688,-4.7853,-4.7935,-4.7835,-4.7456,-4.7575,-4.7844,-4.8009,-4.8048,-4.8282,-4.918,-4.9398,-4.9337,-4.9168,-4.9138,-4.9107,-4.9032,-4.9001,-4.9001,-4.9001,-4.9001,-4.8987,-4.8863,-4.8801,-4.8675,-4.8373,-4.8292,-4.826,-4.826,-4.8292,-4.8401,-4.8565,-4.804,-4.6941,-4.5213,-4.4801,-4.4615,-4.4615,-4.4615,-4.4654,-4.482,-4.494,-4.5113,-4.5363,-4.5615,-4.5812,-4.5897,-4.6048,-4.6097,-1.4972,-1.5948,-1.6968,-1.8025,-1.9599,-2.1088,-2.1976,-2.3299,-2.4488,-2.5159,-2.6002,0.0,0.0,0.0,0.0,0.0,0.0,0.0,0.0,0.0,0.0,0.0,0.0,0.0,0.0,0.0,0.0,0.0,0.0,0.0,0.0,0.0,0.0,0.0,0.0,0.0,-4.3646,-4.2268,-4.1588,-4.1588,-4.1784,-4.1898,-4.1898,-4.2029,-4.227,-4.2603,-4.3282,-4.3781,-4.418,-4.4867,-4.5178,-4.5325,-4.6012,-4.6799,-4.7556,-4.7803,-4.7787,-4.7589,-4.7489,-4.7438,-4.7404,-4.7203,-4.732,-4.7537,-4.7688,-4.7704,-4.7655,-4.7233,-4.7738,-4.8344,-4.7997,-4.7902,-4.8088,-4.8863,-4.9032,-4.9032,-4.9001,-4.9001,-4.9001,-4.9001,-4.9001,-4.9001,-4.9001,-4.9001,-4.9001,-4.897,-4.8894,-4.8786,-4.8738,-4.8595,-4.8483,-4.8483,-4.8627,-4.8531,-4.7994,-4.7922,-4.7517,-4.6684,-4.5376,-4.4615,-4.4615,-4.4615,-4.4654,-4.482,-4.494,-4.5059,-4.522,-4.5485,-4.5632,-4.5632,-4.5787,-4.5821,-1.455,-1.5831,-1.711,-1.7764,-1.9461,-2.1299,-2.257,-2.3999,-2.5509,-2.7108,-2.7842,0.0,0.0,0.0,0.0,0.0,0.0,0.0,0.0,0.0,0.0,0.0,0.0,0.0,0.0,0.0,0.0,0.0,0.0,0.0,0.0,0.0,0.0,0.0,0.0,0.0,0.0,-4.2758,-4.2047,-4.1588,-4.1784,-4.1947,-4.2029,-4.2222,-4.2413,-4.2635,-4.3522,-4.4219,-4.4836,-4.5652,-4.629,-4.6815,-4.7243,-4.7589,-4.7886,-4.782,-4.7721,-4.7571,-4.7352,-4.7217,-4.7132,-4.7183,-4.7251,-4.7369,-4.7521,-4.7571,-4.7605,-4.7653,-4.7899,-4.811,-4.7813,-4.8149,-4.8663,-4.8934,-4.9001,-4.9001,-4.9001,-4.9001,-4.8987,-4.8894,-4.8863,-4.8832,-4.8704,-4.8784,-4.8863,-4.8863,-4.8894,-4.8894,-4.8818,-4.8738,-4.8707,-4.8707,-4.8832,-4.8838,-4.8612,-4.8173,-4.7814,-4.7628,-4.6644,-4.588,-4.5422,-4.5501,-4.5374,-4.5076,-4.5113,-4.5194,-4.5327,-4.5528,-4.5607,-4.5589,-4.5744,-4.5795,-1.4349,-1.5829,-1.7233,-1.7837,-1.9481,-2.1527,-2.3662,-2.4847,-2.6116,-2.8272,-2.9509,-3.0633,-3.2125,0.0,0.0,0.0,0.0,0.0,0.0,0.0,0.0,0.0,0.0,0.0,0.0,0.0,0.0,0.0,0.0,0.0,0.0,0.0,0.0,0.0,0.0,0.0,0.0,-4.3358,-4.2647,-4.1936,-4.2117,-4.2187,-4.2109,-4.2318,-4.2508,-4.2745,-4.3602,-4.4462,-4.5325,-4.6159,-4.6963,-4.7704,-4.7853,-4.7869,-4.7836,-4.7688,-4.7521,-4.7403,-4.7251,-4.7064,-4.6911,-4.7064,-4.7115,-4.7149,-4.7335,-4.7403,-4.747,-4.7803,-4.7968,-4.7982,-4.7833,-4.8318,-4.8846,-4.8846,-4.8846,-4.8846,-4.8846,-4.8846,-4.8815,-4.8721,-4.8707,-4.8658,-4.8515,-4.8627,-4.8738,-4.8769,-4.8894,-4.8925,-4.8863,-4.8863,-4.8863,-4.8863,-4.8956,-4.9001,-4.9001,-4.8575,-4.8331,-4.8447,-4.806,-4.7391,-4.6391,-4.6197,-4.5915,-4.5537,-4.5324,-4.5274,-4.5397,-4.5502,-4.5528,-4.5554,-4.5632,-4.5667,-1.4562,-1.5939,-1.735,-1.8367,-1.9792,-2.1849,-2.5397,-2.5935,-2.6332,-2.8559,-3.0998,-3.2844,-3.3234,0.0,0.0,0.0,0.0,0.0,0.0,0.0,0.0,0.0,0.0,0.0,0.0,0.0,0.0,0.0,0.0,0.0,0.0,0.0,0.0,0.0,0.0,0.0,0.0,-4.4053,-4.339,-4.2728,-4.2849,-4.2633,-4.2109,-4.2318,-4.2571,-4.2948,-4.3681,-4.4605,-4.566,-4.6402,-4.7078,-4.7704,-4.7704,-4.7621,-4.752,-4.752,-4.7369,-4.7217,-4.7217,-4.7064,-4.6876,-4.6876,-4.6876,-4.6927,-4.7149,-4.7217,-4.7285,-4.7605,-4.7853,-4.8033,-4.8163,-4.8356,-4.8483,-4.8515,-4.8515,-4.8515,-4.8515,-4.8515,-4.8515,-4.8515,-4.8515,-4.8483,-4.8483,-4.8515,-4.8564,-4.8769,-4.8818,-4.8832,-4.897,-4.9001,-4.9001,-4.9001,-4.9001,-4.9001,-4.9001,-4.9107,-4.9199,-4.9199,-4.953,-4.898,-4.7375,-4.6543,-4.6172,-4.6302,-4.5598,-4.5274,-4.5397,-4.5397,-4.5397,-4.5397,-4.5397,-4.5397,-1.5347,-1.6981,-1.852,-2.0046,0.0,0.0,-2.6638,-2.6698,-2.6998,0.0,-3.2428,-3.4246,-3.4452,0.0,0.0,0.0,0.0,0.0,0.0,0.0,0.0,0.0,0.0,0.0,0.0,0.0,0.0,0.0,0.0,0.0,0.0,0.0,0.0,0.0,0.0,0.0,0.0,0.0,-4.4245,-4.3065,-4.3082,-4.2765,-4.2109,-4.2318,-4.2508,-4.2745,-4.3602,-4.4168,-4.4589,-4.5914,-4.6914,-4.7571,-4.7571,-4.7537,-4.747,-4.7335,-4.7251,-4.7183,-4.703,-4.6961,-4.6876,-4.6876,-4.6876,-4.6927,-4.6961,-4.6996,-4.7064,-4.7454,-4.7604,-4.7704,-4.8001,-4.8082,-4.8212,-4.8452,-4.8515,-4.8515,-4.8515,-4.8515,-4.8452,-4.8324,-4.8292,-4.826,-4.8147,-4.8324,-4.8515,-4.8595,-4.8784,-4.9001,-4.9107,-4.926,-4.9307,-4.9168,-4.9138,-4.9138,-4.9138,-4.9168,-4.929,-4.953,-4.9649,-4.925,-4.826,-4.8071,-4.7537,-4.6542,-4.6301,-4.5922,-4.5397,-4.5397,-4.5397,-4.5397,-4.5397,-4.5344,-1.5794,-1.7698,-1.9527,-2.1182,-2.3185,-2.5299,-2.7542,0.0,0.0,0.0,0.0,-3.5369,0.0,0.0,0.0,0.0,0.0,0.0,0.0,0.0,0.0,0.0,0.0,0.0,0.0,0.0,0.0,0.0,0.0,0.0,0.0,0.0,0.0,0.0,0.0,0.0,0.0,0.0,0.0,-4.2998,-4.3131,-4.2813,-4.2109,-4.2318,-4.2476,-4.2635,-4.3602,-4.4154,-4.4544,-4.5849,-4.6782,-4.7369,-4.7369,-4.7319,-4.7251,-4.7149,-4.7064,-4.7064,-4.6945,-4.6876,-4.6876,-4.6876,-4.6876,-4.6876,-4.6876,-4.6876,-4.6961,-4.7285,-4.7436,-4.7571,-4.782,-4.7935,-4.8066,-4.8244,-4.8308,-4.8308,-4.8308,-4.8308,-4.8276,-4.8147,-4.8115,-4.8082,-4.8001,-4.8212,-4.842,-4.8483,-4.8829,-4.9138,-4.929,-4.9428,-4.9411,-4.9229,-4.9199,-4.9199,-4.9199,-4.926,-4.9441,-4.9679,-4.9784,-4.9578,-4.9056,-4.8862,-4.8379,-4.7482,-4.6906,-4.6372,-4.588,-4.5552,-4.5371,-4.53,-4.53,-4.5247,-1.6031,-1.8218,-2.0394,-2.2091,-2.4302,0.0,-2.8535,-3.0645,-3.2212,-3.2361,0.0,0.0,0.0,0.0,0.0,0.0,0.0,0.0,0.0,0.0,0.0,0.0,0.0,0.0,0.0,0.0,0.0,0.0,0.0,0.0,0.0,0.0,0.0,0.0,0.0,0.0,0.0,0.0,0.0,0.0,-4.3064,-4.2829,-4.2142,-4.2349,-4.2476,-4.2635,-4.3489,-4.43,-4.5033,-4.5898,-4.6584,-4.7085,-4.715,-4.7064,-4.6876,-4.6876,-4.6876,-4.6876,-4.6876,-4.6876,-4.6876,-4.6876,-4.6876,-4.6876,-4.6876,-4.6876,-4.6945,-4.7149,-4.7335,-4.7537,-4.7688,-4.7853,-4.8001,-4.8001,-4.8001,-4.8001,-4.8001,-4.8001,-4.8001,-4.8001,-4.8001,-4.8001,-4.8001,-4.8115,-4.8292,-4.8547,-4.8954,-4.929,-4.9488,-4.9547,-4.9441,-4.926,-4.9229,-4.9229,-4.9199,-4.9381,-4.953,-4.9679,-4.9889,-4.9935,-4.9737,-4.9171,-4.8798,-4.8689,-4.7362,-4.6621,-4.6493,-4.5742,-4.53,-4.5203,-4.5194,-4.5113,-1.6549,-1.8927,0.0,-2.4178,-2.7673,-3.0684,-3.1601,-3.2687,-3.3407,-3.3124,0.0,0.0,0.0,0.0,0.0,0.0,0.0,0.0,0.0,0.0,0.0,0.0,0.0,0.0,0.0,0.0,0.0,0.0,0.0,0.0,0.0,0.0,0.0,0.0,0.0,0.0,-4.3138,-4.3831,-4.3818,0.0,-4.3328,-4.3041,-4.2349,-4.2508,-4.2571,-4.2602,-4.2796,-4.3313,-4.4075,-4.4821,-4.5519,-4.6167,-4.6734,-4.6927,-4.6876,-4.6876,-4.6876,-4.6876,-4.6876,-4.6876,-4.6876,-4.6876,-4.6876,-4.6876,-4.6876,-4.6876,-4.6945,-4.7149,-4.7335,-4.7537,-4.7688,-4.7853,-4.8001,-4.8001,-4.8001,-4.8001,-4.8001,-4.8001,-4.8001,-4.8001,-4.8001,-4.8001,-4.8001,-4.8244,-4.8578,-4.8984,-4.926,-4.9488,-4.9649,-4.9801,-4.9789,-4.9488,-4.9458,-4.9381,-4.9199,-4.9381,-4.953,-4.9632,-4.986,-4.9982,-4.9935,-4.9612,-4.8901,-4.7797,-4.7481,-4.6753,-4.5656,-4.5386,-4.5247,-4.5194,-4.5086,-4.4951,-1.714,-1.9576,0.0,-2.6505,0.0,-3.1876,-3.252,-3.3562,-3.4541,0.0,0.0,0.0,0.0,0.0,0.0,0.0,0.0,0.0,0.0,0.0,0.0,0.0,0.0,0.0,0.0,0.0,0.0,0.0,0.0,0.0,0.0,0.0,0.0,0.0,0.0,0.0,-4.2423,-4.2806,-4.2872,-4.2587,-4.2767,-4.2719,-4.2508,-4.2571,-4.2602,-4.2602,-4.2602,-4.3007,-4.3735,-4.4107,-4.4885,-4.584,-4.6212,-4.6585,-4.6876,-4.6876,-4.6876,-4.6876,-4.6876,-4.6876,-4.6876,-4.6876,-4.6876,-4.6876,-4.6876,-4.6876,-4.6911,-4.703,-4.7217,-4.7352,-4.7454,-4.7654,-4.7853,-4.7853,-4.7935,-4.8001,-4.8001,-4.8001,-4.8001,-4.8001,-4.8001,-4.7885,-4.7537,-4.7743,-4.8301,-4.9209,-4.9411,-4.9577,-4.9813,-4.986,-4.9755,-4.9518,-4.9411,-4.932,-4.9199,-4.895,-4.8894,-4.903,-4.9641,-4.9579,-4.8608,-4.7682,-4.7346,-4.7637,-4.7096,-4.6477,-4.5726,-4.5312,-4.5059,-4.5005,-4.494,-4.4831,-1.7424,-2.0262,-2.3772,-2.8521,-3.0737,0.0,-3.2791,-3.3942,0.0,0.0,0.0,0.0,0.0,0.0,0.0,0.0,0.0,0.0,0.0,0.0,0.0,0.0,0.0,0.0,0.0,0.0,0.0,0.0,0.0,0.0,0.0,0.0,0.0,0.0,0.0,-4.1833,-4.1898,-4.1736,-4.1736,-4.1931,-4.2093,-4.2302,-4.2602,-4.2602,-4.2602,-4.2602,-4.2602,-4.2942,-4.3509,-4.367,-4.4399,-4.5451,-4.5581,-4.6002,-4.652,-4.652,-4.652,-4.652,-4.652,-4.652,-4.652,-4.652,-4.652,-4.652,-4.652,-4.6601,-4.6698,-4.6698,-4.6932,-4.7217,-4.7217,-4.7437,-4.7671,-4.7539,-4.7687,-4.7835,-4.7819,-4.7719,-4.762,-4.762,-4.762,-4.7421,-4.6904,-4.7124,-4.783,-4.9108,-4.9402,-4.9607,-4.9906,-4.9813,-4.9649,-4.9488,-4.929,-4.9199,-4.9168,-4.8502,-4.8082,-4.7982,-4.8855,-4.8535,-4.6651,-4.5315,-4.5416,-4.7189,-4.6465,-4.602,-4.5911,-4.5285,-4.4913,-4.4803,-4.4793,-4.4709,-1.6675,0.0,-2.6283,0.0,-3.1301,-3.2807,0.0,0.0,0.0,0.0,0.0,0.0,0.0,0.0,0.0,0.0,0.0,0.0,0.0,0.0,0.0,0.0,0.0,0.0,0.0,0.0,0.0,0.0,0.0,0.0,0.0,0.0,-4.1221,-4.139,-4.139,0.0,-4.1898,-4.1866,-4.1915,-4.2093,-4.2286,-4.2445,-4.2602,-4.2602,-4.2602,-4.2602,-4.2602,-4.2651,-4.2797,-4.346,-4.3816,-4.4059,-4.4674,-4.4982,-4.5079,-4.5079,-4.5079,-4.5079,-4.5079,-4.5079,-4.5079,-4.5079,-4.5079,-4.5079,-4.5079,-4.5484,-4.5953,-4.5953,-4.6543,-4.7217,-4.7217,-4.7437,-4.7539,-4.6897,-4.6975,-4.7183,-4.7072,-4.6527,-4.6079,-4.6079,-4.6079,-4.614,-4.6366,-4.6946,-4.7662,-4.8426,-4.9078,-4.9577,-4.9725,-4.9708,-4.959,-4.926,-4.9229,-4.9138,-4.9032,-4.8442,-4.7573,-4.6404,-4.6669,-4.6289,-4.4965,-4.4699,-4.4733,-4.5015,-4.5603,-4.5659,-4.5159,-4.4937,-4.4831,-4.482,-4.4682,-4.4615,-1.7632,-2.2012,-2.6364,0.0,-3.0435,-3.236,-3.4044,0.0,0.0,0.0,0.0,0.0,0.0,0.0,0.0,0.0,0.0,0.0,0.0,0.0,0.0,0.0,0.0,0.0,0.0,0.0,0.0,0.0,0.0,0.0,0.0,-4.0969,-4.0969,-4.1037,-4.1189,0.0,-4.1736,-4.1833,-4.2012,-4.227,-4.2445,-4.2539,-4.2602,-4.2602,-4.2602,-4.2602,-4.2602,-4.2602,-4.2635,-4.2942,-4.3346,-4.3735,-4.4059,-4.4431,-4.4787,-4.4787,-4.4787,-4.4787,-4.4787,-4.4787,-4.4787,-4.4787,-4.4787,-4.4787,-4.4787,-4.4998,-4.5241,-4.5241,-4.581,-4.6429,-4.6429,-4.7008,-4.7407,-4.6668,-4.6496,-4.6348,-4.5872,-4.5934,-4.6062,-4.5937,-4.5512,-4.5557,-4.6714,-4.6935,-4.7426,-4.8813,-4.9372,-4.9619,-4.9679,-4.9619,-4.9471,-4.9229,-4.9138,-4.9063,-4.9001,-4.8386,-4.7539,-4.6515,-4.5772,-4.5139,-4.4615,-4.4615,-4.4615,-4.4615,-4.4993,-4.5032,-4.4793,-4.4709,-4.4682,-4.4682,-4.4643,-4.4615,0.0,0.0,-2.5242,-2.6877,-2.8905,-3.1018,0.0,0.0,0.0,0.0,0.0,0.0,0.0,0.0,0.0,0.0,0.0,0.0,0.0,0.0,0.0,0.0,0.0,0.0,0.0,0.0,0.0,0.0,0.0,0.0,-4.0799,-4.0765,-4.0765,-4.0799,-4.1104,-4.1357,-4.1588,-4.1882,-4.2174,-4.2445,-4.2539,-4.2602,-4.2602,-4.2602,-4.2602,-4.2602,-4.2602,-4.2602,-4.2602,-4.2602,-4.291,-4.3427,-4.3427,-4.3767,-4.4237,-4.4237,-4.4237,-4.4237,-4.4237,-4.4237,-4.4237,-4.4237,-4.4237,-4.4237,-4.4237,-4.4366,-4.4512,-4.4512,-4.5144,-4.5807,-4.5807,-4.6645,-4.729,-4.634,-4.6052,-4.5763,-4.4893,-4.5233,-4.5694,-4.5571,-4.5133,-4.5249,-4.6642,-4.6905,-4.7458,-4.8997,-4.947,-4.9649,-4.9649,-4.95,-4.935,-4.9168,-4.9063,-4.9001,-4.9001,-4.8342,-4.7682,-4.7107,-4.5686,-4.4874,-4.4874,-4.4699,-4.4615,-4.4615,-4.4615,-4.4615,-4.4615,-4.4615,-4.4615,-4.4615,-4.4615,-4.4615,0.0,-2.1196,0.0,-2.5095,-2.6859,0.0,0.0,0.0,0.0,0.0,0.0,0.0,0.0,0.0,0.0,0.0,0.0,0.0,0.0,0.0,0.0,0.0,0.0,0.0,0.0,0.0,0.0,0.0,0.0,0.0,-4.0799,-4.0627,-4.0593,-4.0799,-4.0984,-4.1254,-4.1588,-4.2109,-4.2445,-4.2602,-4.2602,-4.2602,-4.2602,-4.2602,-4.2602,-4.2602,-4.2602,-4.2602,-4.2602,-4.2602,-4.2619,-4.2651,-4.2651,-4.2683,-4.2699,-4.2699,-4.2699,-4.2699,-4.2699,-4.2699,-4.2699,-4.2699,-4.2699,-4.2699,-4.2699,-4.3185,-4.3767,-4.3767,-4.4739,-4.5807,-4.5807,-4.6645,-4.7126,-4.5685,-4.5706,-4.566,-4.4407,-4.4198,-4.4214,-4.4214,-4.4733,-4.5232,-4.5463,-4.6802,-4.7971,-4.8399,-4.9073,-4.9518,-4.9518,-4.932,-4.9168,-4.9032,-4.9001,-4.9001,-4.9001,-4.8342,-4.7872,-4.7838,-4.6464,-4.5652,-4.5652,-4.4959,-4.4615,-4.4615,-4.4615,-4.4615,-4.4615,-4.4615,-4.4615,-4.4615,-4.4615,-4.4615,0.0,0.0,0.0,-2.3032,-2.4916,-2.6907,0.0,0.0,0.0,0.0,0.0,0.0,0.0,0.0,0.0,0.0,0.0,0.0,0.0,0.0,0.0,0.0,0.0,0.0,0.0,0.0,0.0,0.0,0.0,0.0,-3.9979,-3.9912,-4.0078,-4.0578,-4.0932,-4.1303,-4.1784,-4.219,-4.2413,-4.2476,-4.2571,-4.2602,-4.2602,-4.2602,-4.2602,-4.2602,-4.2602,-4.2602,-4.2602,-4.2602,-4.2602,-4.2602,-4.2602,-4.2602,-4.2602,-4.2602,-4.2602,-4.2602,-4.2602,-4.2602,-4.2602,-4.2602,-4.2602,-4.2602,-4.2602,-4.278,-4.2991,-4.2991,-4.4059,-4.516,-4.516,-4.6337,-4.7209,-4.6019,-4.5178,-4.4556,-4.4284,-4.4224,-4.4224,-4.4224,-4.4754,-4.5438,-4.6178,-4.7268,-4.8277,-4.898,-4.9389,-4.956,-4.932,-4.9229,-4.9138,-4.9001,-4.9001,-4.9001,-4.9001,-4.8689,-4.8054,-4.7076,-4.652,-4.5794,-4.485,-4.4677,-4.4615,-4.4615,-4.4615,-4.4615,-4.4615,-4.4615,-4.4615,-4.4615,-4.4615,-4.4615,-1.8021,0.0,0.0,0.0,0.0,0.0,0.0,0.0,0.0,0.0,0.0,0.0,0.0,0.0,0.0,0.0,0.0,0.0,0.0,0.0,0.0,0.0,0.0,0.0,0.0,0.0,0.0,0.0,0.0,0.0,-3.9185,-3.94,-3.9831,-4.0578,-4.0699,-4.1053,-4.1784,-4.1821,-4.2045,-4.2413,-4.2508,-4.2571,-4.2602,-4.2602,-4.2602,-4.2602,-4.2602,-4.2602,-4.2602,-4.2602,-4.2602,-4.2602,-4.2602,-4.2602,-4.2602,-4.2602,-4.2602,-4.2602,-4.2602,-4.2602,-4.2602,-4.2602,-4.2602,-4.2602,-4.2602,-4.2602,-4.2602,-4.2602,-4.367,-4.4787,-4.4787,-4.5766,-4.6635,-4.6076,-4.49,-4.3956,-4.4126,-4.4224,-4.4377,-4.4704,-4.5286,-4.6056,-4.7052,-4.7929,-4.8711,-4.9402,-4.953,-4.9441,-4.9229,-4.9168,-4.8992,-4.8663,-4.8804,-4.8807,-4.8554,-4.8649,-4.8169,-4.6878,-4.6559,-4.59,-4.4731,-4.4575,-4.4542,-4.4615,-4.4615,-4.4615,-4.4615,-4.4615,-4.4615,-4.4615,-4.4615,-4.4615,0.0,0.0,0.0,0.0,0.0,0.0,0.0,0.0,0.0,0.0,0.0,0.0,0.0,0.0,0.0,0.0,0.0,0.0,0.0,0.0,0.0,0.0,0.0,0.0,0.0,0.0,0.0,0.0,0.0,-3.8673,-3.8477,-3.9123,-3.9853,-4.0706,-4.0253,-4.0487,-4.1557,-4.1039,-4.131,-4.2381,-4.2381,-4.2476,-4.2602,-4.2602,-4.2602,-4.2602,-4.2602,-4.2602,-4.2602,-4.2602,-4.2602,-4.2602,-4.2602,-4.2602,-4.2602,-4.2602,-4.2602,-4.2602,-4.2602,-4.2602,-4.2602,-4.2602,-4.2602,-4.2602,-4.2602,-4.2602,-4.2602,-4.2602,-4.367,-4.4771,-4.4853,-4.5049,-4.5356,-4.5704,-4.4826,-4.3868,-4.3898,-4.4114,-4.4591,-4.551,-4.6295,-4.7065,-4.7942,-4.8689,-4.926,-4.9458,-4.932,-4.9199,-4.9199,-4.9046,-4.8666,-4.7956,-4.8391,-4.8416,-4.7662,-4.8109,-4.8115,-4.7429,-4.6675,-4.5982,-4.5391,-4.4697,-4.4412,-4.4615,-4.4615,-4.4615,-4.4615,-4.4615,-4.4615,-4.4615,-4.4615,-4.4615,-1.9486,0.0,0.0,0.0,0.0,0.0,0.0,0.0,0.0,0.0,0.0,0.0,0.0,0.0,0.0,0.0,0.0,0.0,0.0,0.0,0.0,0.0,0.0,0.0,0.0,0.0,0.0,0.0,0.0,-3.8009,-3.7784,-3.8415,-3.8943,-3.936,-3.9288,-3.9717,-4.0635,-4.0737,-4.1231,-4.2061,-4.2286,-4.2413,-4.2476,-4.2571,-4.2602,-4.2602,-4.2602,-4.2602,-4.2602,-4.2602,-4.2602,-4.2602,-4.2602,-4.2602,-4.2602,-4.2602,-4.2602,-4.2602,-4.2602,-4.2602,-4.2602,-4.2602,-4.2602,-4.2602,-4.2602,-4.2602,-4.2602,-4.2602,-4.3266,-4.4286,-4.5439,-4.5424,-4.5163,-4.5387,-4.4364,-4.3372,-4.3509,-4.3979,-4.4544,-4.5198,-4.5924,-4.6767,-4.778,-4.8446,-4.8906,-4.9124,-4.8984,-4.8813,-4.8704,-4.8188,-4.7754,-4.7553,-4.7203,-4.7105,-4.744,-4.7049,-4.6689,-4.6472,-4.5862,-4.5185,-4.449,-4.4501,-4.4542,-4.4615,-4.4615,-4.4615,-4.4615,-4.4615,-4.4615,-4.4615,-4.4615,-4.4615,-2.011,-2.0032,-1.9987,0.0,0.0,0.0,0.0,0.0,0.0,0.0,0.0,0.0,0.0,0.0,0.0,0.0,0.0,0.0,0.0,0.0,0.0,0.0,0.0,0.0,0.0,0.0,0.0,0.0,-3.7297,-3.7326,-3.7492,-3.7877,-3.8248,-3.8656,-3.8539,-3.887,-3.9751,-4.0039,-4.0594,-4.1453,-4.1933,-4.2238,-4.2286,-4.2349,-4.2445,-4.2508,-4.2508,-4.2539,-4.2602,-4.2602,-4.2602,-4.2602,-4.2602,-4.2602,-4.2602,-4.2602,-4.2602,-4.2602,-4.2602,-4.2602,-4.2602,-4.2602,-4.2602,-4.2602,-4.2602,-4.2602,-4.2602,-4.2602,-4.312,-4.401,-4.5342,-4.5049,-4.4512,-4.4722,-4.3792,-4.2912,-4.3035,-4.3608,-4.437,-4.5272,-4.6027,-4.6836,-4.7852,-4.8245,-4.8483,-4.8625,-4.8498,-4.8271,-4.789,-4.7475,-4.6943,-4.6357,-4.6112,-4.6065,-4.6243,-4.6036,-4.5775,-4.5521,-4.5196,-4.472,-4.4131,-4.4286,-4.4457,-4.4615,-4.4615,-4.4615,-4.4615,-4.4615,-4.4615,-4.4615,-4.4615,-4.4615,-2.0677,-2.0606,-2.0592,0.0,0.0,0.0,-2.0442,-2.0259,0.0,0.0,0.0,0.0,0.0,0.0,0.0,0.0,0.0,0.0,0.0,0.0,0.0,0.0,0.0,0.0,0.0,0.0,0.0,-3.6693,-3.6585,-3.6753,-3.7385,-3.7416,-3.7693,-3.8294,-3.7869,-3.8043,-3.8887,-3.9109,-3.9756,-4.0785,-4.1469,-4.1868,-4.2077,-4.2077,-4.2206,-4.2381,-4.2381,-4.2476,-4.2571,-4.2602,-4.2602,-4.2602,-4.2602,-4.2602,-4.2602,-4.2602,-4.2602,-4.2602,-4.2602,-4.2602,-4.2602,-4.2602,-4.2602,-4.2602,-4.2571,-4.2571,-4.2571,-4.2539,-4.3088,-4.3832,-4.4675,-4.4269,-4.3686,-4.3847,-4.3199,-4.2554,-4.2554,-4.3105,-4.4009,-4.5251,-4.6102,-4.6877,-4.7816,-4.7769,-4.7703,-4.7816,-4.7719,-4.7406,-4.6744,-4.6628,-4.6099,-4.4759,-4.5032,-4.5148,-4.4677,-4.5049,-4.5131,-4.466,-4.4605,-4.4411,-4.4073,-4.4068,-4.4258,-4.457,-4.4587,-4.4615,-4.4615,-4.4615,-4.4615,-4.4615,-4.4615,-4.4615,-2.1458,-2.1308,-2.1158,-2.0556,0.0,0.0,0.0,-2.02,0.0,0.0,0.0,0.0,0.0,0.0,0.0,0.0,0.0,0.0,0.0,0.0,0.0,0.0,0.0,0.0,0.0,0.0,-3.6554,-3.6554,-3.6523,-3.66,-3.6848,-3.6863,-3.6925,-3.7049,-3.7218,-3.7606,-3.8169,-3.8512,-3.9313,-4.0657,-4.0896,-4.1358,-4.1947,-4.2061,-4.2109,-4.2174,-4.2349,-4.2413,-4.2445,-4.2571,-4.2602,-4.2602,-4.2602,-4.2602,-4.2602,-4.2602,-4.2602,-4.2602,-4.2602,-4.2602,-4.2602,-4.2602,-4.2602,-4.2571,-4.2476,-4.2445,-4.2413,-4.2238,-4.2719,-4.3345,-4.3522,-4.3442,-4.3313,-4.3346,-4.2751,-4.2206,-4.2206,-4.2767,-4.3378,-4.3637,-4.4512,-4.5456,-4.6372,-4.5897,-4.5506,-4.5701,-4.5522,-4.5375,-4.5228,-4.4836,-4.4459,-4.4165,-4.3817,-4.3781,-4.4255,-4.3846,-4.3781,-4.4271,-4.399,-4.3761,-4.3687,-4.3952,-4.4184,-4.4367,-4.4514,-4.4615,-4.4615,-4.4615,-4.4615,-4.4615,-4.4615,-4.4615,-2.2062,-2.1908,-2.1747,-2.1324,0.0,0.0,0.0,0.0,0.0,0.0,0.0,0.0,0.0,0.0,0.0,0.0,0.0,0.0,0.0,0.0,0.0,0.0,0.0,0.0,0.0,0.0,-3.537,-3.5491,-3.5506,-3.5721,-3.6166,-3.6212,-3.6413,-3.6831,-3.7014,-3.7246,-3.759,-3.812,-3.8778,-3.9566,-3.9961,-4.0531,-4.1244,-4.1325,-4.1581,-4.2012,-4.2109,-4.219,-4.2254,-4.2302,-4.2156,-4.1914,-4.2331,-4.2508,-4.2476,-4.2381,-4.2333,-4.2333,-4.2333,-4.2333,-4.2333,-4.2333,-4.2333,-4.2333,-4.227,-4.219,-4.2109,-4.1916,-4.2105,-4.2408,-4.2408,-4.2309,-4.2276,-4.2375,-4.2039,-4.172,-4.1818,-4.2423,-4.2965,-4.2965,-4.3385,-4.405,-4.5026,-4.4832,-4.459,-4.4705,-4.4639,-4.4427,-4.404,-4.3848,-4.3605,-4.3248,-4.3001,-4.3044,-4.3513,-4.3203,-4.3184,-4.3621,-4.3462,-4.3402,-4.3509,-4.3717,-4.3952,-4.4212,-4.4298,-4.4344,-4.4344,-4.4412,-4.4497,-4.4615,-4.4615,-4.4615,0.0,0.0,0.0,0.0,0.0,-2.1093,0.0,0.0,0.0,-2.1722,0.0,0.0,0.0,0.0,0.0,0.0,0.0,0.0,0.0,0.0,0.0,0.0,0.0,0.0,0.0,0.0,-3.3612,-3.3846,-3.4014,-3.4394,-3.511,-3.5543,-3.61,-3.6811,-3.7028,-3.7165,-3.7238,-3.7866,-3.8289,-3.8538,-3.9013,-3.9661,-4.0356,-4.0339,-4.0719,-4.1371,-4.1404,-4.1469,-4.1582,-4.1646,-4.131,-4.0894,-4.1804,-4.206,-4.1947,-4.1773,-4.1709,-4.1741,-4.1821,-4.1837,-4.1869,-4.1965,-4.198,-4.1948,-4.1948,-4.1754,-4.156,-4.1507,-4.1411,-4.1332,-4.1474,-4.139,-4.129,-4.1472,-4.139,-4.1357,-4.1522,-4.2029,-4.2507,-4.2556,-4.2556,-4.2829,-4.3816,-4.385,-4.377,-4.377,-4.377,-4.3547,-4.2988,-4.3071,-4.296,-4.2414,-4.2476,-4.2634,-4.2837,-4.2837,-4.2883,-4.299,-4.3052,-4.3113,-4.3281,-4.3479,-4.3687,-4.3952,-4.401,-4.4039,-4.4039,-4.4196,-4.4355,-4.4542,-4.457,-4.4615,0.0,0.0,0.0,0.0,-2.1752,0.0,0.0,0.0,-2.0999,-2.1047,0.0,0.0,0.0,0.0,0.0,0.0,0.0,0.0,0.0,0.0,0.0,0.0,0.0,0.0,0.0,0.0,0.0,-3.1561,-3.2182,-3.2746,-3.3193,-3.4971,-3.6076,-3.6285,-3.7148,-3.7537,-3.7387,-3.7646,-3.8054,-3.8672,-3.8509,-3.8811,-3.944,-3.9328,-3.9326,-3.9421,-3.955,-3.9582,-3.9645,-3.9928,-3.9958,-3.9865,-4.0878,-4.0876,-4.0363,-4.0332,-4.0332,-4.0382,-4.0816,-4.096,-4.1024,-4.1514,-4.1555,-4.139,-4.139,-4.0882,-4.0421,-4.1013,-4.0732,-4.0403,-4.1013,-4.1135,-4.1135,-4.1135,-4.1239,-4.1323,-4.1323,-4.1552,-4.1797,-4.196,-4.1993,-4.2182,-4.278,-4.2319,-4.1892,-4.1892,-4.1892,-4.186,-4.1781,-4.1977,-4.2091,-4.2125,-4.2318,-4.2476,-4.2634,-4.2634,-4.2634,-4.2665,-4.2821,-4.293,-4.2961,-4.3267,-4.3432,-4.3479,-4.3713,-4.3831,-4.3831,-4.4039,-4.4212,-4.4338,-4.4514,-4.4615,0.0,0.0,0.0,0.0,0.0,0.0,0.0,0.0,-2.149,0.0,0.0,0.0,0.0,0.0,0.0,0.0,0.0,0.0,0.0,0.0,0.0,0.0,0.0,0.0,0.0,0.0,0.0,0.0,0.0,-3.0592,-3.2126,-3.3458,-3.4877,-3.6387,-3.6848,-3.7255,-3.7698,-3.77,-3.7769,-3.7933,-3.768,-3.7841,-3.8419,-3.826,-3.8381,-3.8753,-3.8803,-3.8835,-3.8867,-3.9092,-3.8968,-3.8607,-3.9109,-3.9455,-3.9628,-3.955,-3.9535,-3.9598,-4.018,-4.0383,-4.0509,-4.1102,-4.1254,-4.1153,-4.1037,-4.0487,-4.0047,-4.0594,-4.0266,-3.9895,-4.0576,-4.0746,-4.078,-4.0882,-4.1052,-4.1221,-4.129,-4.1538,-4.1784,-4.1866,-4.1947,-4.2108,-4.2297,-4.204,-4.1736,-4.1621,-4.1588,-4.1588,-4.1588,-4.1784,-4.1931,-4.198,-4.2222,-4.2413,-4.2476,-4.2571,-4.2602,-4.2602,-4.2665,-4.2775,-4.2899,-4.3054,-4.3129,-4.3204,-4.3355,-4.3399,-4.3399,-4.3611,-4.3759,-4.3906,-4.4253,-4.4468,-2.3469,0.0,0.0,0.0,0.0,0.0,0.0,0.0,0.0,0.0,0.0,0.0,0.0,0.0,0.0,0.0,0.0,0.0,0.0,0.0,0.0,0.0,0.0,0.0,0.0,0.0,0.0,0.0,0.0,0.0,-2.9878,-3.1483,-3.3285,-3.53,-3.6206,-3.6944,-3.7543,-3.7663,-3.7501,-3.7074,-3.692,-3.694,-3.7095,-3.7107,-3.735,-3.781,-3.781,-3.781,-3.781,-3.8067,-3.7853,-3.7373,-3.7577,-3.8013,-3.8544,-3.8528,-3.8528,-3.8621,-3.9478,-3.9957,-4.028,-4.0777,-4.0932,-4.0932,-4.0833,-4.0318,-3.9915,-4.0427,-4.01,-3.9711,-4.0355,-4.0489,-4.0524,-4.0696,-4.0916,-4.1135,-4.1205,-4.1587,-4.1898,-4.1963,-4.2061,-4.2174,-4.2174,-4.2012,-4.1866,-4.1703,-4.1621,-4.1588,-4.1588,-4.1736,-4.1833,-4.1898,-4.2109,-4.2286,-4.2318,-4.2476,-4.2571,-4.2602,-4.2602,-4.2665,-4.2806,-4.2837,-4.2852,-4.2959,-4.3021,-4.3052,-4.3052,-4.3221,-4.3402,-4.3568,-4.3948,-4.4281,0.0,0.0,0.0,-2.3393,0.0,0.0,0.0,0.0,-2.1423,0.0,0.0,0.0,0.0,0.0,-2.1266,-2.0197,0.0,0.0,0.0,0.0,0.0,0.0,0.0,0.0,0.0,0.0,0.0,0.0,0.0,0.0,-2.5552,-2.9012,-3.1356,-3.2237,-3.5263,-3.6821,-3.6635,-3.7351,-3.7205,-3.6234,-3.6444,-3.6076,-3.5278,-3.5826,-3.6051,-3.6066,-3.6066,-3.6066,-3.6098,-3.6428,-3.6429,-3.6289,-3.6616,-3.6677,-3.6615,-3.6939,-3.7077,-3.7249,-3.8446,-3.955,-4.0493,-4.0524,-4.0524,-4.0558,-4.073,-4.0318,-3.9949,-4.0597,-4.0303,-3.9913,-4.0389,-4.0489,-4.0489,-4.0489,-4.083,-4.1117,-4.1117,-4.1503,-4.1931,-4.2093,-4.2238,-4.2381,-4.2381,-4.2109,-4.1898,-4.1898,-4.1703,-4.1588,-4.1588,-4.1621,-4.167,-4.1866,-4.1898,-4.1963,-4.2109,-4.227,-4.2476,-4.2602,-4.2602,-4.2602,-4.2602,-4.2602,-4.2602,-4.2634,-4.2806,-4.2899,-4.2899,-4.3021,-4.3204,-4.3402,-4.3684,-4.4006,0.0,0.0,-2.3884,-2.3557,0.0,0.0,0.0,0.0,0.0,0.0,0.0,0.0,0.0,0.0,-2.1006,-2.0036,-2.0099,0.0,0.0,0.0,0.0,0.0,0.0,0.0,0.0,0.0,0.0,0.0,0.0,0.0,0.0,-2.7574,-2.9868,-3.2667,-3.4374,-3.5669,-3.6587,-3.6685,-3.6423,-3.5862,-3.5169,-3.4851,-3.4863,-3.498,-3.5247,-3.5683,-3.5683,-3.5683,-3.5683,-3.602,-3.6132,-3.61,-3.6445,-3.6554,-3.6523,-3.6631,-3.6662,-3.6847,-3.8143,-3.9434,-4.0489,-4.0489,-4.0489,-4.0524,-4.073,-4.0318,-3.9949,-4.0597,-4.0303,-3.9913,-4.0389,-4.0489,-4.0489,-4.0489,-4.083,-4.1117,-4.1117,-4.1587,-4.2061,-4.2077,-4.2333,-4.2539,-4.2539,-4.2349,-4.2141,-4.1931,-4.1736,-4.1588,-4.1588,-4.1588,-4.1621,-4.1703,-4.1833,-4.1931,-4.1947,-4.2222,-4.2476,-4.2602,-4.2602,-4.2602,-4.2602,-4.2602,-4.2602,-4.2602,-4.2665,-4.2696,-4.2696,-4.2665,-4.2711,-4.2883,-4.2867,-4.3265,-2.4582,-2.4567,0.0,0.0,-2.3833,0.0,-2.3168,0.0,0.0,0.0,0.0,0.0,0.0,0.0,-2.0695,-1.9804,-1.9867,-1.9564,0.0,0.0,0.0,0.0,0.0,0.0,0.0,0.0,-1.9609,-2.0082,0.0,0.0,0.0,0.0,-2.752,-3.0288,-3.2175,-3.3713,-3.4849,-3.5156,-3.5132,-3.472,-3.4181,-3.3925,-3.3938,-3.4325,-3.4758,-3.516,-3.54,-3.5504,-3.5537,-3.5861,-3.6005,-3.6037,-3.6367,-3.6492,-3.6492,-3.6492,-3.6645,-3.6969,-3.7846,-3.9031,-4.0136,-4.0136,-4.0305,-4.0524,-4.0765,-4.0606,-4.0409,-4.086,-4.0624,-4.029,-4.0451,-4.0489,-4.0428,-4.0197,-4.0408,-4.0631,-4.0415,-4.0894,-4.1357,-4.1357,-4.1609,-4.1842,-4.1842,-4.1928,-4.1997,-4.198,-4.1817,-4.167,-4.1621,-4.1588,-4.1588,-4.1588,-4.1703,-4.1754,-4.1629,-4.1805,-4.1898,-4.1858,-4.1842,-4.1842,-4.1842,-4.1827,-4.1796,-4.1796,-4.2039,-4.2184,-4.2184,-4.2332,-4.2445,-4.2539,-4.2381,-4.2649]}]]